<?xml version="1.0" encoding="UTF-8" standalone="no" ?>
<gpx xmlns="http://www.topografix.com/GPX/1/1" xmlns:xsi="http://www.w3.org/2001/XMLSchema-instance" xsi:schemaLocation="http://www.topografix.com/GPX/1/1 http://www.topografix.com/GPX/1/1/gpx.xsd" version="1.1" creator="VisuGPX - https://www.visugpx.com">
  <metadata>
    <name>Vandenesse-en-Auxois circuit des 3 chateaux</name>
    <desc><![CDATA[Randonnée de 22km en boucle à partir de Vandenesse-en-Auxois]]></desc>
  </metadata>
  <trk>
    <name><![CDATA[Boucle des trois Chateaux_R]]></name>
    <trkseg>
      <trkpt lat="47.22131" lon="4.61614">
        <ele>377.45</ele>
        <time>2014-11-09T08:54:07Z</time>
      </trkpt>
      <trkpt lat="47.22132" lon="4.61612">
        <ele>376.97</ele>
        <time>2014-11-09T08:54:32Z</time>
      </trkpt>
      <trkpt lat="47.22135" lon="4.61619">
        <ele>376.49</ele>
        <time>2014-11-09T08:54:58Z</time>
      </trkpt>
      <trkpt lat="47.22129" lon="4.6162">
        <ele>376.49</ele>
        <time>2014-11-09T08:55:15Z</time>
      </trkpt>
      <trkpt lat="47.22134" lon="4.61606">
        <ele>376.49</ele>
        <time>2014-11-09T08:55:41Z</time>
      </trkpt>
      <trkpt lat="47.22132" lon="4.61608">
        <ele>376.01</ele>
        <time>2014-11-09T08:56:03Z</time>
      </trkpt>
      <trkpt lat="47.2213" lon="4.61615">
        <ele>376.01</ele>
        <time>2014-11-09T08:56:21Z</time>
      </trkpt>
      <trkpt lat="47.2213" lon="4.61611">
        <ele>373.13</ele>
        <time>2014-11-09T08:56:36Z</time>
      </trkpt>
      <trkpt lat="47.2213" lon="4.61609">
        <ele>370.24</ele>
        <time>2014-11-09T08:56:42Z</time>
      </trkpt>
      <trkpt lat="47.22129" lon="4.61614">
        <ele>366.88</ele>
        <time>2014-11-09T08:56:49Z</time>
      </trkpt>
      <trkpt lat="47.22131" lon="4.61615">
        <ele>364.96</ele>
        <time>2014-11-09T08:56:54Z</time>
      </trkpt>
      <trkpt lat="47.22129" lon="4.61613">
        <ele>361.59</ele>
        <time>2014-11-09T08:57:09Z</time>
      </trkpt>
      <trkpt lat="47.22125" lon="4.61614">
        <ele>360.63</ele>
        <time>2014-11-09T08:57:37Z</time>
      </trkpt>
      <trkpt lat="47.22131" lon="4.61608">
        <ele>360.63</ele>
        <time>2014-11-09T08:58:07Z</time>
      </trkpt>
      <trkpt lat="47.22138" lon="4.61611">
        <ele>360.63</ele>
        <time>2014-11-09T08:58:27Z</time>
      </trkpt>
      <trkpt lat="47.22138" lon="4.61613">
        <ele>360.63</ele>
        <time>2014-11-09T08:58:46Z</time>
      </trkpt>
      <trkpt lat="47.22142" lon="4.61613">
        <ele>360.63</ele>
        <time>2014-11-09T08:58:57Z</time>
      </trkpt>
      <trkpt lat="47.22149" lon="4.6162">
        <ele>360.15</ele>
        <time>2014-11-09T08:59:04Z</time>
      </trkpt>
      <trkpt lat="47.2216" lon="4.61625">
        <ele>360.15</ele>
        <time>2014-11-09T08:59:13Z</time>
      </trkpt>
      <trkpt lat="47.22161" lon="4.61626">
        <ele>360.15</ele>
        <time>2014-11-09T08:59:14Z</time>
      </trkpt>
      <trkpt lat="47.22167" lon="4.6163">
        <ele>360.15</ele>
        <time>2014-11-09T08:59:20Z</time>
      </trkpt>
      <trkpt lat="47.22168" lon="4.61631">
        <ele>360.15</ele>
        <time>2014-11-09T08:59:21Z</time>
      </trkpt>
      <trkpt lat="47.22171" lon="4.61632">
        <ele>360.15</ele>
        <time>2014-11-09T08:59:24Z</time>
      </trkpt>
      <trkpt lat="47.22172" lon="4.61632">
        <ele>360.15</ele>
        <time>2014-11-09T08:59:25Z</time>
      </trkpt>
      <trkpt lat="47.22179" lon="4.61632">
        <ele>360.15</ele>
        <time>2014-11-09T08:59:29Z</time>
      </trkpt>
      <trkpt lat="47.2218" lon="4.61633">
        <ele>360.15</ele>
        <time>2014-11-09T08:59:30Z</time>
      </trkpt>
      <trkpt lat="47.22181" lon="4.61634">
        <ele>360.15</ele>
        <time>2014-11-09T08:59:31Z</time>
      </trkpt>
      <trkpt lat="47.22182" lon="4.61635">
        <ele>360.15</ele>
        <time>2014-11-09T08:59:32Z</time>
      </trkpt>
      <trkpt lat="47.22183" lon="4.61637">
        <ele>359.67</ele>
        <time>2014-11-09T08:59:33Z</time>
      </trkpt>
      <trkpt lat="47.22183" lon="4.61638">
        <ele>360.15</ele>
        <time>2014-11-09T08:59:34Z</time>
      </trkpt>
      <trkpt lat="47.22192" lon="4.61641">
        <ele>359.67</ele>
        <time>2014-11-09T08:59:42Z</time>
      </trkpt>
      <trkpt lat="47.22197" lon="4.61641">
        <ele>359.67</ele>
        <time>2014-11-09T08:59:47Z</time>
      </trkpt>
      <trkpt lat="47.22198" lon="4.61642">
        <ele>359.67</ele>
        <time>2014-11-09T08:59:48Z</time>
      </trkpt>
      <trkpt lat="47.2221" lon="4.61651">
        <ele>359.67</ele>
        <time>2014-11-09T08:59:58Z</time>
      </trkpt>
      <trkpt lat="47.22222" lon="4.6166">
        <ele>359.67</ele>
        <time>2014-11-09T09:00:10Z</time>
      </trkpt>
      <trkpt lat="47.22224" lon="4.61663">
        <ele>359.67</ele>
        <time>2014-11-09T09:00:13Z</time>
      </trkpt>
      <trkpt lat="47.22234" lon="4.61679">
        <ele>359.67</ele>
        <time>2014-11-09T09:00:26Z</time>
      </trkpt>
      <trkpt lat="47.22241" lon="4.61695">
        <ele>359.67</ele>
        <time>2014-11-09T09:00:38Z</time>
      </trkpt>
      <trkpt lat="47.22252" lon="4.61715">
        <ele>359.67</ele>
        <time>2014-11-09T09:00:54Z</time>
      </trkpt>
      <trkpt lat="47.22253" lon="4.6172">
        <ele>359.67</ele>
        <time>2014-11-09T09:01:05Z</time>
      </trkpt>
      <trkpt lat="47.22255" lon="4.61721">
        <ele>359.67</ele>
        <time>2014-11-09T09:01:06Z</time>
      </trkpt>
      <trkpt lat="47.22257" lon="4.61722">
        <ele>359.67</ele>
        <time>2014-11-09T09:01:07Z</time>
      </trkpt>
      <trkpt lat="47.22259" lon="4.61723">
        <ele>359.67</ele>
        <time>2014-11-09T09:01:08Z</time>
      </trkpt>
      <trkpt lat="47.2226" lon="4.61725">
        <ele>359.67</ele>
        <time>2014-11-09T09:01:09Z</time>
      </trkpt>
      <trkpt lat="47.22265" lon="4.61733">
        <ele>359.67</ele>
        <time>2014-11-09T09:01:14Z</time>
      </trkpt>
      <trkpt lat="47.22275" lon="4.61748">
        <ele>359.67</ele>
        <time>2014-11-09T09:01:28Z</time>
      </trkpt>
      <trkpt lat="47.22289" lon="4.61764">
        <ele>360.15</ele>
        <time>2014-11-09T09:01:41Z</time>
      </trkpt>
      <trkpt lat="47.22307" lon="4.61795">
        <ele>360.63</ele>
        <time>2014-11-09T09:02:02Z</time>
      </trkpt>
      <trkpt lat="47.2231" lon="4.61799">
        <ele>360.63</ele>
        <time>2014-11-09T09:02:05Z</time>
      </trkpt>
      <trkpt lat="47.22313" lon="4.61805">
        <ele>361.11</ele>
        <time>2014-11-09T09:02:09Z</time>
      </trkpt>
      <trkpt lat="47.22317" lon="4.61813">
        <ele>361.11</ele>
        <time>2014-11-09T09:02:15Z</time>
      </trkpt>
      <trkpt lat="47.22318" lon="4.61815">
        <ele>361.11</ele>
        <time>2014-11-09T09:02:16Z</time>
      </trkpt>
      <trkpt lat="47.22319" lon="4.61816">
        <ele>361.11</ele>
        <time>2014-11-09T09:02:17Z</time>
      </trkpt>
      <trkpt lat="47.22319" lon="4.61818">
        <ele>361.11</ele>
        <time>2014-11-09T09:02:18Z</time>
      </trkpt>
      <trkpt lat="47.2232" lon="4.6182">
        <ele>361.59</ele>
        <time>2014-11-09T09:02:19Z</time>
      </trkpt>
      <trkpt lat="47.22321" lon="4.61821">
        <ele>361.11</ele>
        <time>2014-11-09T09:02:20Z</time>
      </trkpt>
      <trkpt lat="47.22325" lon="4.61825">
        <ele>361.59</ele>
        <time>2014-11-09T09:02:24Z</time>
      </trkpt>
      <trkpt lat="47.2233" lon="4.61827">
        <ele>361.59</ele>
        <time>2014-11-09T09:02:29Z</time>
      </trkpt>
      <trkpt lat="47.22342" lon="4.61849">
        <ele>362.07</ele>
        <time>2014-11-09T09:02:43Z</time>
      </trkpt>
      <trkpt lat="47.22353" lon="4.6187">
        <ele>362.55</ele>
        <time>2014-11-09T09:02:58Z</time>
      </trkpt>
      <trkpt lat="47.22369" lon="4.61893">
        <ele>363.52</ele>
        <time>2014-11-09T09:03:14Z</time>
      </trkpt>
      <trkpt lat="47.22372" lon="4.619">
        <ele>364</ele>
        <time>2014-11-09T09:03:19Z</time>
      </trkpt>
      <trkpt lat="47.22374" lon="4.61904">
        <ele>364</ele>
        <time>2014-11-09T09:03:22Z</time>
      </trkpt>
      <trkpt lat="47.22374" lon="4.61905">
        <ele>364</ele>
        <time>2014-11-09T09:03:23Z</time>
      </trkpt>
      <trkpt lat="47.22375" lon="4.61906">
        <ele>364</ele>
        <time>2014-11-09T09:03:24Z</time>
      </trkpt>
      <trkpt lat="47.22376" lon="4.61908">
        <ele>364</ele>
        <time>2014-11-09T09:03:25Z</time>
      </trkpt>
      <trkpt lat="47.22377" lon="4.61909">
        <ele>364</ele>
        <time>2014-11-09T09:03:26Z</time>
      </trkpt>
      <trkpt lat="47.22385" lon="4.61917">
        <ele>364.48</ele>
        <time>2014-11-09T09:03:33Z</time>
      </trkpt>
      <trkpt lat="47.22386" lon="4.61919">
        <ele>364.48</ele>
        <time>2014-11-09T09:03:34Z</time>
      </trkpt>
      <trkpt lat="47.22396" lon="4.61943">
        <ele>364.96</ele>
        <time>2014-11-09T09:03:50Z</time>
      </trkpt>
      <trkpt lat="47.22409" lon="4.61961">
        <ele>365.44</ele>
        <time>2014-11-09T09:04:04Z</time>
      </trkpt>
      <trkpt lat="47.22416" lon="4.61973">
        <ele>365.44</ele>
        <time>2014-11-09T09:04:13Z</time>
      </trkpt>
      <trkpt lat="47.22417" lon="4.61975">
        <ele>365.44</ele>
        <time>2014-11-09T09:04:14Z</time>
      </trkpt>
      <trkpt lat="47.22417" lon="4.61977">
        <ele>365.44</ele>
        <time>2014-11-09T09:04:15Z</time>
      </trkpt>
      <trkpt lat="47.22418" lon="4.6198">
        <ele>365.44</ele>
        <time>2014-11-09T09:04:16Z</time>
      </trkpt>
      <trkpt lat="47.22419" lon="4.61981">
        <ele>365.44</ele>
        <time>2014-11-09T09:04:17Z</time>
      </trkpt>
      <trkpt lat="47.22421" lon="4.61985">
        <ele>365.44</ele>
        <time>2014-11-09T09:04:20Z</time>
      </trkpt>
      <trkpt lat="47.22428" lon="4.61996">
        <ele>365.92</ele>
        <time>2014-11-09T09:04:28Z</time>
      </trkpt>
      <trkpt lat="47.22429" lon="4.61998">
        <ele>365.44</ele>
        <time>2014-11-09T09:04:29Z</time>
      </trkpt>
      <trkpt lat="47.22439" lon="4.62011">
        <ele>365.92</ele>
        <time>2014-11-09T09:04:40Z</time>
      </trkpt>
      <trkpt lat="47.22439" lon="4.62013">
        <ele>365.92</ele>
        <time>2014-11-09T09:04:41Z</time>
      </trkpt>
      <trkpt lat="47.2244" lon="4.62015">
        <ele>365.92</ele>
        <time>2014-11-09T09:04:42Z</time>
      </trkpt>
      <trkpt lat="47.22443" lon="4.62022">
        <ele>365.92</ele>
        <time>2014-11-09T09:04:48Z</time>
      </trkpt>
      <trkpt lat="47.22453" lon="4.6204">
        <ele>366.4</ele>
        <time>2014-11-09T09:05:03Z</time>
      </trkpt>
      <trkpt lat="47.22453" lon="4.62044">
        <ele>365.92</ele>
        <time>2014-11-09T09:05:14Z</time>
      </trkpt>
      <trkpt lat="47.22471" lon="4.62071">
        <ele>365.92</ele>
        <time>2014-11-09T09:05:31Z</time>
      </trkpt>
      <trkpt lat="47.22484" lon="4.62093">
        <ele>366.4</ele>
        <time>2014-11-09T09:05:45Z</time>
      </trkpt>
      <trkpt lat="47.22486" lon="4.62095">
        <ele>366.4</ele>
        <time>2014-11-09T09:06:00Z</time>
      </trkpt>
      <trkpt lat="47.22491" lon="4.62103">
        <ele>366.4</ele>
        <time>2014-11-09T09:06:15Z</time>
      </trkpt>
      <trkpt lat="47.22497" lon="4.62116">
        <ele>365.92</ele>
        <time>2014-11-09T09:06:27Z</time>
      </trkpt>
      <trkpt lat="47.22504" lon="4.62125">
        <ele>365.92</ele>
        <time>2014-11-09T09:06:41Z</time>
      </trkpt>
      <trkpt lat="47.22504" lon="4.62127">
        <ele>365.44</ele>
        <time>2014-11-09T09:06:42Z</time>
      </trkpt>
      <trkpt lat="47.22506" lon="4.62131">
        <ele>365.44</ele>
        <time>2014-11-09T09:06:44Z</time>
      </trkpt>
      <trkpt lat="47.22509" lon="4.62135">
        <ele>365.92</ele>
        <time>2014-11-09T09:06:48Z</time>
      </trkpt>
      <trkpt lat="47.22509" lon="4.62137">
        <ele>365.92</ele>
        <time>2014-11-09T09:06:49Z</time>
      </trkpt>
      <trkpt lat="47.2251" lon="4.62138">
        <ele>365.92</ele>
        <time>2014-11-09T09:06:50Z</time>
      </trkpt>
      <trkpt lat="47.22512" lon="4.62139">
        <ele>365.92</ele>
        <time>2014-11-09T09:06:51Z</time>
      </trkpt>
      <trkpt lat="47.22513" lon="4.62141">
        <ele>365.92</ele>
        <time>2014-11-09T09:06:52Z</time>
      </trkpt>
      <trkpt lat="47.22515" lon="4.62143">
        <ele>365.44</ele>
        <time>2014-11-09T09:06:53Z</time>
      </trkpt>
      <trkpt lat="47.22516" lon="4.62144">
        <ele>365.92</ele>
        <time>2014-11-09T09:06:54Z</time>
      </trkpt>
      <trkpt lat="47.22516" lon="4.62145">
        <ele>365.44</ele>
        <time>2014-11-09T09:06:55Z</time>
      </trkpt>
      <trkpt lat="47.22526" lon="4.62164">
        <ele>365.44</ele>
        <time>2014-11-09T09:07:09Z</time>
      </trkpt>
      <trkpt lat="47.22538" lon="4.62186">
        <ele>365.44</ele>
        <time>2014-11-09T09:07:24Z</time>
      </trkpt>
      <trkpt lat="47.22548" lon="4.62202">
        <ele>365.44</ele>
        <time>2014-11-09T09:07:37Z</time>
      </trkpt>
      <trkpt lat="47.22557" lon="4.62218">
        <ele>365.44</ele>
        <time>2014-11-09T09:07:49Z</time>
      </trkpt>
      <trkpt lat="47.22558" lon="4.6222">
        <ele>365.44</ele>
        <time>2014-11-09T09:07:50Z</time>
      </trkpt>
      <trkpt lat="47.22559" lon="4.62221">
        <ele>365.44</ele>
        <time>2014-11-09T09:07:51Z</time>
      </trkpt>
      <trkpt lat="47.22559" lon="4.62221">
        <ele>365.44</ele>
        <time>2014-11-09T09:07:52Z</time>
      </trkpt>
      <trkpt lat="47.2256" lon="4.62222">
        <ele>365.92</ele>
        <time>2014-11-09T09:07:53Z</time>
      </trkpt>
      <trkpt lat="47.22561" lon="4.62223">
        <ele>365.44</ele>
        <time>2014-11-09T09:07:54Z</time>
      </trkpt>
      <trkpt lat="47.22562" lon="4.62225">
        <ele>365.44</ele>
        <time>2014-11-09T09:07:55Z</time>
      </trkpt>
      <trkpt lat="47.22572" lon="4.62237">
        <ele>365.92</ele>
        <time>2014-11-09T09:08:08Z</time>
      </trkpt>
      <trkpt lat="47.22574" lon="4.62239">
        <ele>365.44</ele>
        <time>2014-11-09T09:08:10Z</time>
      </trkpt>
      <trkpt lat="47.22575" lon="4.62241">
        <ele>365.92</ele>
        <time>2014-11-09T09:08:11Z</time>
      </trkpt>
      <trkpt lat="47.22587" lon="4.62251">
        <ele>365.92</ele>
        <time>2014-11-09T09:08:22Z</time>
      </trkpt>
      <trkpt lat="47.2259" lon="4.62253">
        <ele>365.92</ele>
        <time>2014-11-09T09:08:25Z</time>
      </trkpt>
      <trkpt lat="47.22603" lon="4.62264">
        <ele>366.4</ele>
        <time>2014-11-09T09:08:38Z</time>
      </trkpt>
      <trkpt lat="47.22615" lon="4.62268">
        <ele>367.36</ele>
        <time>2014-11-09T09:08:48Z</time>
      </trkpt>
      <trkpt lat="47.22616" lon="4.62268">
        <ele>367.36</ele>
        <time>2014-11-09T09:08:49Z</time>
      </trkpt>
      <trkpt lat="47.22618" lon="4.62269">
        <ele>367.84</ele>
        <time>2014-11-09T09:08:50Z</time>
      </trkpt>
      <trkpt lat="47.22619" lon="4.6227">
        <ele>367.84</ele>
        <time>2014-11-09T09:08:51Z</time>
      </trkpt>
      <trkpt lat="47.22621" lon="4.62271">
        <ele>367.36</ele>
        <time>2014-11-09T09:08:52Z</time>
      </trkpt>
      <trkpt lat="47.22625" lon="4.62273">
        <ele>368.32</ele>
        <time>2014-11-09T09:08:57Z</time>
      </trkpt>
      <trkpt lat="47.22636" lon="4.62279">
        <ele>369.28</ele>
        <time>2014-11-09T09:09:08Z</time>
      </trkpt>
      <trkpt lat="47.22646" lon="4.62282">
        <ele>369.28</ele>
        <time>2014-11-09T09:09:16Z</time>
      </trkpt>
      <trkpt lat="47.2266" lon="4.62288">
        <ele>370.24</ele>
        <time>2014-11-09T09:09:31Z</time>
      </trkpt>
      <trkpt lat="47.22675" lon="4.62295">
        <ele>371.21</ele>
        <time>2014-11-09T09:09:45Z</time>
      </trkpt>
      <trkpt lat="47.22687" lon="4.62297">
        <ele>371.69</ele>
        <time>2014-11-09T09:09:55Z</time>
      </trkpt>
      <trkpt lat="47.22688" lon="4.62298">
        <ele>372.17</ele>
        <time>2014-11-09T09:09:56Z</time>
      </trkpt>
      <trkpt lat="47.227" lon="4.62304">
        <ele>372.65</ele>
        <time>2014-11-09T09:10:07Z</time>
      </trkpt>
      <trkpt lat="47.22704" lon="4.62304">
        <ele>372.65</ele>
        <time>2014-11-09T09:10:10Z</time>
      </trkpt>
      <trkpt lat="47.22705" lon="4.62305">
        <ele>373.13</ele>
        <time>2014-11-09T09:10:11Z</time>
      </trkpt>
      <trkpt lat="47.22711" lon="4.62307">
        <ele>373.61</ele>
        <time>2014-11-09T09:10:16Z</time>
      </trkpt>
      <trkpt lat="47.22717" lon="4.62311">
        <ele>373.61</ele>
        <time>2014-11-09T09:10:21Z</time>
      </trkpt>
      <trkpt lat="47.22722" lon="4.62313">
        <ele>373.61</ele>
        <time>2014-11-09T09:10:24Z</time>
      </trkpt>
      <trkpt lat="47.22734" lon="4.62322">
        <ele>374.09</ele>
        <time>2014-11-09T09:10:35Z</time>
      </trkpt>
      <trkpt lat="47.22748" lon="4.62332">
        <ele>374.09</ele>
        <time>2014-11-09T09:10:48Z</time>
      </trkpt>
      <trkpt lat="47.22751" lon="4.62334">
        <ele>374.57</ele>
        <time>2014-11-09T09:10:51Z</time>
      </trkpt>
      <trkpt lat="47.22752" lon="4.62335">
        <ele>374.57</ele>
        <time>2014-11-09T09:10:52Z</time>
      </trkpt>
      <trkpt lat="47.22753" lon="4.62336">
        <ele>374.57</ele>
        <time>2014-11-09T09:10:53Z</time>
      </trkpt>
      <trkpt lat="47.22754" lon="4.62337">
        <ele>374.57</ele>
        <time>2014-11-09T09:10:54Z</time>
      </trkpt>
      <trkpt lat="47.22755" lon="4.62338">
        <ele>374.57</ele>
        <time>2014-11-09T09:10:55Z</time>
      </trkpt>
      <trkpt lat="47.22756" lon="4.62339">
        <ele>374.57</ele>
        <time>2014-11-09T09:10:56Z</time>
      </trkpt>
      <trkpt lat="47.22757" lon="4.6234">
        <ele>374.57</ele>
        <time>2014-11-09T09:10:57Z</time>
      </trkpt>
      <trkpt lat="47.22759" lon="4.62341">
        <ele>375.05</ele>
        <time>2014-11-09T09:10:58Z</time>
      </trkpt>
      <trkpt lat="47.22774" lon="4.62349">
        <ele>374.57</ele>
        <time>2014-11-09T09:11:11Z</time>
      </trkpt>
      <trkpt lat="47.22784" lon="4.62357">
        <ele>375.05</ele>
        <time>2014-11-09T09:11:23Z</time>
      </trkpt>
      <trkpt lat="47.2279" lon="4.62362">
        <ele>375.05</ele>
        <time>2014-11-09T09:11:28Z</time>
      </trkpt>
      <trkpt lat="47.22791" lon="4.62363">
        <ele>374.57</ele>
        <time>2014-11-09T09:11:29Z</time>
      </trkpt>
      <trkpt lat="47.22793" lon="4.62364">
        <ele>375.05</ele>
        <time>2014-11-09T09:11:30Z</time>
      </trkpt>
      <trkpt lat="47.22794" lon="4.62365">
        <ele>375.05</ele>
        <time>2014-11-09T09:11:31Z</time>
      </trkpt>
      <trkpt lat="47.22795" lon="4.62366">
        <ele>375.05</ele>
        <time>2014-11-09T09:11:32Z</time>
      </trkpt>
      <trkpt lat="47.22808" lon="4.62377">
        <ele>375.05</ele>
        <time>2014-11-09T09:11:45Z</time>
      </trkpt>
      <trkpt lat="47.22821" lon="4.62386">
        <ele>374.09</ele>
        <time>2014-11-09T09:11:57Z</time>
      </trkpt>
      <trkpt lat="47.22822" lon="4.62387">
        <ele>374.09</ele>
        <time>2014-11-09T09:11:58Z</time>
      </trkpt>
      <trkpt lat="47.22834" lon="4.62396">
        <ele>373.61</ele>
        <time>2014-11-09T09:12:10Z</time>
      </trkpt>
      <trkpt lat="47.22838" lon="4.62399">
        <ele>373.13</ele>
        <time>2014-11-09T09:12:13Z</time>
      </trkpt>
      <trkpt lat="47.22839" lon="4.62399">
        <ele>373.61</ele>
        <time>2014-11-09T09:12:14Z</time>
      </trkpt>
      <trkpt lat="47.22855" lon="4.6241">
        <ele>373.13</ele>
        <time>2014-11-09T09:12:29Z</time>
      </trkpt>
      <trkpt lat="47.22865" lon="4.6242">
        <ele>372.65</ele>
        <time>2014-11-09T09:12:39Z</time>
      </trkpt>
      <trkpt lat="47.22866" lon="4.62422">
        <ele>372.65</ele>
        <time>2014-11-09T09:12:40Z</time>
      </trkpt>
      <trkpt lat="47.22867" lon="4.62423">
        <ele>372.65</ele>
        <time>2014-11-09T09:12:41Z</time>
      </trkpt>
      <trkpt lat="47.22882" lon="4.62431">
        <ele>372.65</ele>
        <time>2014-11-09T09:12:54Z</time>
      </trkpt>
      <trkpt lat="47.22886" lon="4.62436">
        <ele>372.65</ele>
        <time>2014-11-09T09:12:58Z</time>
      </trkpt>
      <trkpt lat="47.22892" lon="4.62444">
        <ele>372.65</ele>
        <time>2014-11-09T09:13:05Z</time>
      </trkpt>
      <trkpt lat="47.22903" lon="4.62449">
        <ele>373.13</ele>
        <time>2014-11-09T09:13:12Z</time>
      </trkpt>
      <trkpt lat="47.22904" lon="4.6245">
        <ele>373.13</ele>
        <time>2014-11-09T09:13:13Z</time>
      </trkpt>
      <trkpt lat="47.22905" lon="4.62452">
        <ele>373.13</ele>
        <time>2014-11-09T09:13:14Z</time>
      </trkpt>
      <trkpt lat="47.22907" lon="4.62453">
        <ele>373.13</ele>
        <time>2014-11-09T09:13:15Z</time>
      </trkpt>
      <trkpt lat="47.22908" lon="4.62455">
        <ele>373.13</ele>
        <time>2014-11-09T09:13:16Z</time>
      </trkpt>
      <trkpt lat="47.22909" lon="4.62456">
        <ele>373.13</ele>
        <time>2014-11-09T09:13:17Z</time>
      </trkpt>
      <trkpt lat="47.22916" lon="4.62463">
        <ele>373.13</ele>
        <time>2014-11-09T09:13:24Z</time>
      </trkpt>
      <trkpt lat="47.22916" lon="4.62465">
        <ele>373.13</ele>
        <time>2014-11-09T09:13:25Z</time>
      </trkpt>
      <trkpt lat="47.22918" lon="4.62465">
        <ele>373.13</ele>
        <time>2014-11-09T09:13:26Z</time>
      </trkpt>
      <trkpt lat="47.22918" lon="4.62465">
        <ele>373.13</ele>
        <time>2014-11-09T09:13:27Z</time>
      </trkpt>
      <trkpt lat="47.22919" lon="4.62465">
        <ele>373.13</ele>
        <time>2014-11-09T09:13:28Z</time>
      </trkpt>
      <trkpt lat="47.2294" lon="4.62479">
        <ele>371.21</ele>
        <time>2014-11-09T09:13:47Z</time>
      </trkpt>
      <trkpt lat="47.22944" lon="4.62481">
        <ele>371.69</ele>
        <time>2014-11-09T09:13:50Z</time>
      </trkpt>
      <trkpt lat="47.22948" lon="4.62486">
        <ele>371.69</ele>
        <time>2014-11-09T09:13:56Z</time>
      </trkpt>
      <trkpt lat="47.22965" lon="4.62498">
        <ele>371.21</ele>
        <time>2014-11-09T09:14:09Z</time>
      </trkpt>
      <trkpt lat="47.22971" lon="4.62502">
        <ele>371.21</ele>
        <time>2014-11-09T09:14:14Z</time>
      </trkpt>
      <trkpt lat="47.22974" lon="4.62507">
        <ele>370.73</ele>
        <time>2014-11-09T09:14:19Z</time>
      </trkpt>
      <trkpt lat="47.22976" lon="4.62508">
        <ele>370.73</ele>
        <time>2014-11-09T09:14:20Z</time>
      </trkpt>
      <trkpt lat="47.22988" lon="4.62515">
        <ele>370.73</ele>
        <time>2014-11-09T09:14:31Z</time>
      </trkpt>
      <trkpt lat="47.22997" lon="4.62522">
        <ele>370.73</ele>
        <time>2014-11-09T09:14:42Z</time>
      </trkpt>
      <trkpt lat="47.23008" lon="4.62529">
        <ele>370.73</ele>
        <time>2014-11-09T09:14:51Z</time>
      </trkpt>
      <trkpt lat="47.23009" lon="4.6253">
        <ele>370.73</ele>
        <time>2014-11-09T09:14:52Z</time>
      </trkpt>
      <trkpt lat="47.23015" lon="4.62535">
        <ele>370.24</ele>
        <time>2014-11-09T09:15:01Z</time>
      </trkpt>
      <trkpt lat="47.23017" lon="4.62536">
        <ele>370.24</ele>
        <time>2014-11-09T09:15:02Z</time>
      </trkpt>
      <trkpt lat="47.23023" lon="4.62543">
        <ele>369.76</ele>
        <time>2014-11-09T09:15:08Z</time>
      </trkpt>
      <trkpt lat="47.23034" lon="4.6255">
        <ele>368.8</ele>
        <time>2014-11-09T09:15:20Z</time>
      </trkpt>
      <trkpt lat="47.23049" lon="4.6256">
        <ele>368.32</ele>
        <time>2014-11-09T09:15:35Z</time>
      </trkpt>
      <trkpt lat="47.23057" lon="4.6257">
        <ele>368.32</ele>
        <time>2014-11-09T09:15:45Z</time>
      </trkpt>
      <trkpt lat="47.23058" lon="4.62571">
        <ele>368.32</ele>
        <time>2014-11-09T09:15:46Z</time>
      </trkpt>
      <trkpt lat="47.23059" lon="4.62572">
        <ele>368.32</ele>
        <time>2014-11-09T09:15:47Z</time>
      </trkpt>
      <trkpt lat="47.23061" lon="4.62573">
        <ele>368.32</ele>
        <time>2014-11-09T09:15:48Z</time>
      </trkpt>
      <trkpt lat="47.23062" lon="4.62575">
        <ele>368.32</ele>
        <time>2014-11-09T09:15:49Z</time>
      </trkpt>
      <trkpt lat="47.23076" lon="4.62581">
        <ele>368.32</ele>
        <time>2014-11-09T09:16:02Z</time>
      </trkpt>
      <trkpt lat="47.23088" lon="4.6259">
        <ele>368.32</ele>
        <time>2014-11-09T09:16:11Z</time>
      </trkpt>
      <trkpt lat="47.23089" lon="4.62591">
        <ele>368.32</ele>
        <time>2014-11-09T09:16:12Z</time>
      </trkpt>
      <trkpt lat="47.23093" lon="4.62595">
        <ele>367.36</ele>
        <time>2014-11-09T09:16:16Z</time>
      </trkpt>
      <trkpt lat="47.23109" lon="4.62611">
        <ele>368.8</ele>
        <time>2014-11-09T09:16:33Z</time>
      </trkpt>
      <trkpt lat="47.23126" lon="4.62624">
        <ele>369.28</ele>
        <time>2014-11-09T09:16:48Z</time>
      </trkpt>
      <trkpt lat="47.23151" lon="4.62641">
        <ele>369.76</ele>
        <time>2014-11-09T09:17:13Z</time>
      </trkpt>
      <trkpt lat="47.23173" lon="4.62656">
        <ele>370.24</ele>
        <time>2014-11-09T09:17:31Z</time>
      </trkpt>
      <trkpt lat="47.23178" lon="4.6266">
        <ele>370.73</ele>
        <time>2014-11-09T09:17:35Z</time>
      </trkpt>
      <trkpt lat="47.23191" lon="4.62671">
        <ele>370.73</ele>
        <time>2014-11-09T09:17:47Z</time>
      </trkpt>
      <trkpt lat="47.2321" lon="4.62686">
        <ele>370.73</ele>
        <time>2014-11-09T09:18:04Z</time>
      </trkpt>
      <trkpt lat="47.23228" lon="4.62701">
        <ele>370.24</ele>
        <time>2014-11-09T09:18:20Z</time>
      </trkpt>
      <trkpt lat="47.23229" lon="4.62702">
        <ele>369.76</ele>
        <time>2014-11-09T09:18:21Z</time>
      </trkpt>
      <trkpt lat="47.23238" lon="4.62712">
        <ele>369.76</ele>
        <time>2014-11-09T09:18:31Z</time>
      </trkpt>
      <trkpt lat="47.23239" lon="4.62713">
        <ele>369.76</ele>
        <time>2014-11-09T09:18:32Z</time>
      </trkpt>
      <trkpt lat="47.23261" lon="4.62733">
        <ele>368.8</ele>
        <time>2014-11-09T09:18:52Z</time>
      </trkpt>
      <trkpt lat="47.23275" lon="4.6275">
        <ele>367.84</ele>
        <time>2014-11-09T09:19:07Z</time>
      </trkpt>
      <trkpt lat="47.23293" lon="4.62768">
        <ele>366.4</ele>
        <time>2014-11-09T09:19:24Z</time>
      </trkpt>
      <trkpt lat="47.23308" lon="4.62782">
        <ele>365.92</ele>
        <time>2014-11-09T09:19:38Z</time>
      </trkpt>
      <trkpt lat="47.23323" lon="4.62798">
        <ele>365.44</ele>
        <time>2014-11-09T09:19:52Z</time>
      </trkpt>
      <trkpt lat="47.23332" lon="4.62814">
        <ele>365.44</ele>
        <time>2014-11-09T09:20:04Z</time>
      </trkpt>
      <trkpt lat="47.23336" lon="4.62818">
        <ele>365.92</ele>
        <time>2014-11-09T09:20:08Z</time>
      </trkpt>
      <trkpt lat="47.23348" lon="4.62833">
        <ele>365.92</ele>
        <time>2014-11-09T09:20:20Z</time>
      </trkpt>
      <trkpt lat="47.23361" lon="4.62853">
        <ele>365.92</ele>
        <time>2014-11-09T09:20:36Z</time>
      </trkpt>
      <trkpt lat="47.23375" lon="4.62872">
        <ele>365.44</ele>
        <time>2014-11-09T09:20:51Z</time>
      </trkpt>
      <trkpt lat="47.23393" lon="4.62893">
        <ele>365.44</ele>
        <time>2014-11-09T09:21:09Z</time>
      </trkpt>
      <trkpt lat="47.23406" lon="4.62914">
        <ele>365.44</ele>
        <time>2014-11-09T09:21:25Z</time>
      </trkpt>
      <trkpt lat="47.23419" lon="4.62935">
        <ele>365.92</ele>
        <time>2014-11-09T09:21:41Z</time>
      </trkpt>
      <trkpt lat="47.23432" lon="4.62963">
        <ele>366.4</ele>
        <time>2014-11-09T09:21:59Z</time>
      </trkpt>
      <trkpt lat="47.23441" lon="4.62988">
        <ele>365.44</ele>
        <time>2014-11-09T09:22:15Z</time>
      </trkpt>
      <trkpt lat="47.23447" lon="4.63022">
        <ele>364</ele>
        <time>2014-11-09T09:22:35Z</time>
      </trkpt>
      <trkpt lat="47.23448" lon="4.63023">
        <ele>364.48</ele>
        <time>2014-11-09T09:22:36Z</time>
      </trkpt>
      <trkpt lat="47.23449" lon="4.63025">
        <ele>364</ele>
        <time>2014-11-09T09:22:37Z</time>
      </trkpt>
      <trkpt lat="47.23457" lon="4.63061">
        <ele>362.55</ele>
        <time>2014-11-09T09:22:58Z</time>
      </trkpt>
      <trkpt lat="47.23463" lon="4.63084">
        <ele>362.07</ele>
        <time>2014-11-09T09:23:12Z</time>
      </trkpt>
      <trkpt lat="47.2347" lon="4.63106">
        <ele>362.07</ele>
        <time>2014-11-09T09:23:26Z</time>
      </trkpt>
      <trkpt lat="47.23478" lon="4.63135">
        <ele>361.59</ele>
        <time>2014-11-09T09:23:43Z</time>
      </trkpt>
      <trkpt lat="47.23483" lon="4.63159">
        <ele>361.11</ele>
        <time>2014-11-09T09:23:58Z</time>
      </trkpt>
      <trkpt lat="47.23487" lon="4.63172">
        <ele>361.11</ele>
        <time>2014-11-09T09:24:06Z</time>
      </trkpt>
      <trkpt lat="47.23507" lon="4.63185">
        <ele>360.63</ele>
        <time>2014-11-09T09:24:21Z</time>
      </trkpt>
      <trkpt lat="47.23519" lon="4.63185">
        <ele>360.63</ele>
        <time>2014-11-09T09:24:30Z</time>
      </trkpt>
      <trkpt lat="47.23536" lon="4.63176">
        <ele>361.11</ele>
        <time>2014-11-09T09:24:45Z</time>
      </trkpt>
      <trkpt lat="47.23539" lon="4.63172">
        <ele>361.11</ele>
        <time>2014-11-09T09:24:49Z</time>
      </trkpt>
      <trkpt lat="47.23549" lon="4.63161">
        <ele>362.07</ele>
        <time>2014-11-09T09:25:03Z</time>
      </trkpt>
      <trkpt lat="47.23558" lon="4.63147">
        <ele>362.07</ele>
        <time>2014-11-09T09:25:17Z</time>
      </trkpt>
      <trkpt lat="47.2356" lon="4.63141">
        <ele>362.55</ele>
        <time>2014-11-09T09:25:21Z</time>
      </trkpt>
      <trkpt lat="47.23569" lon="4.63117">
        <ele>363.52</ele>
        <time>2014-11-09T09:25:38Z</time>
      </trkpt>
      <trkpt lat="47.23569" lon="4.63113">
        <ele>364</ele>
        <time>2014-11-09T09:25:41Z</time>
      </trkpt>
      <trkpt lat="47.23575" lon="4.63091">
        <ele>364.96</ele>
        <time>2014-11-09T09:25:55Z</time>
      </trkpt>
      <trkpt lat="47.2358" lon="4.63072">
        <ele>365.92</ele>
        <time>2014-11-09T09:26:09Z</time>
      </trkpt>
      <trkpt lat="47.23589" lon="4.63049">
        <ele>367.36</ele>
        <time>2014-11-09T09:26:24Z</time>
      </trkpt>
      <trkpt lat="47.23597" lon="4.63032">
        <ele>368.8</ele>
        <time>2014-11-09T09:26:38Z</time>
      </trkpt>
      <trkpt lat="47.23603" lon="4.63021">
        <ele>369.76</ele>
        <time>2014-11-09T09:26:47Z</time>
      </trkpt>
      <trkpt lat="47.23604" lon="4.63018">
        <ele>369.76</ele>
        <time>2014-11-09T09:26:49Z</time>
      </trkpt>
      <trkpt lat="47.23616" lon="4.63008">
        <ele>370.24</ele>
        <time>2014-11-09T09:27:01Z</time>
      </trkpt>
      <trkpt lat="47.23617" lon="4.63007">
        <ele>370.24</ele>
        <time>2014-11-09T09:27:02Z</time>
      </trkpt>
      <trkpt lat="47.23619" lon="4.63004">
        <ele>370.73</ele>
        <time>2014-11-09T09:27:06Z</time>
      </trkpt>
      <trkpt lat="47.23626" lon="4.63001">
        <ele>370.73</ele>
        <time>2014-11-09T09:27:11Z</time>
      </trkpt>
      <trkpt lat="47.23633" lon="4.62994">
        <ele>370.73</ele>
        <time>2014-11-09T09:27:17Z</time>
      </trkpt>
      <trkpt lat="47.23633" lon="4.62992">
        <ele>371.21</ele>
        <time>2014-11-09T09:27:18Z</time>
      </trkpt>
      <trkpt lat="47.23634" lon="4.6299">
        <ele>371.21</ele>
        <time>2014-11-09T09:27:19Z</time>
      </trkpt>
      <trkpt lat="47.23639" lon="4.62986">
        <ele>371.69</ele>
        <time>2014-11-09T09:27:24Z</time>
      </trkpt>
      <trkpt lat="47.23641" lon="4.62985">
        <ele>371.69</ele>
        <time>2014-11-09T09:27:25Z</time>
      </trkpt>
      <trkpt lat="47.23642" lon="4.62984">
        <ele>371.69</ele>
        <time>2014-11-09T09:27:26Z</time>
      </trkpt>
      <trkpt lat="47.23643" lon="4.62983">
        <ele>371.69</ele>
        <time>2014-11-09T09:27:27Z</time>
      </trkpt>
      <trkpt lat="47.23644" lon="4.6298">
        <ele>371.69</ele>
        <time>2014-11-09T09:27:29Z</time>
      </trkpt>
      <trkpt lat="47.23647" lon="4.6297">
        <ele>372.17</ele>
        <time>2014-11-09T09:27:36Z</time>
      </trkpt>
      <trkpt lat="47.23649" lon="4.62965">
        <ele>372.65</ele>
        <time>2014-11-09T09:27:40Z</time>
      </trkpt>
      <trkpt lat="47.23651" lon="4.62958">
        <ele>372.65</ele>
        <time>2014-11-09T09:27:44Z</time>
      </trkpt>
      <trkpt lat="47.23654" lon="4.62952">
        <ele>373.13</ele>
        <time>2014-11-09T09:27:49Z</time>
      </trkpt>
      <trkpt lat="47.23657" lon="4.62941">
        <ele>373.61</ele>
        <time>2014-11-09T09:27:56Z</time>
      </trkpt>
      <trkpt lat="47.2366" lon="4.62931">
        <ele>374.09</ele>
        <time>2014-11-09T09:28:03Z</time>
      </trkpt>
      <trkpt lat="47.23668" lon="4.62907">
        <ele>375.05</ele>
        <time>2014-11-09T09:28:18Z</time>
      </trkpt>
      <trkpt lat="47.23669" lon="4.62902">
        <ele>375.05</ele>
        <time>2014-11-09T09:28:22Z</time>
      </trkpt>
      <trkpt lat="47.23676" lon="4.62876">
        <ele>375.53</ele>
        <time>2014-11-09T09:28:39Z</time>
      </trkpt>
      <trkpt lat="47.23686" lon="4.62848">
        <ele>374.57</ele>
        <time>2014-11-09T09:28:56Z</time>
      </trkpt>
      <trkpt lat="47.23687" lon="4.62847">
        <ele>374.57</ele>
        <time>2014-11-09T09:28:57Z</time>
      </trkpt>
      <trkpt lat="47.23692" lon="4.62827">
        <ele>374.57</ele>
        <time>2014-11-09T09:29:09Z</time>
      </trkpt>
      <trkpt lat="47.23695" lon="4.6283">
        <ele>374.09</ele>
        <time>2014-11-09T09:29:19Z</time>
      </trkpt>
      <trkpt lat="47.23696" lon="4.6283">
        <ele>374.09</ele>
        <time>2014-11-09T09:29:20Z</time>
      </trkpt>
      <trkpt lat="47.23698" lon="4.62831">
        <ele>374.09</ele>
        <time>2014-11-09T09:29:21Z</time>
      </trkpt>
      <trkpt lat="47.23699" lon="4.62831">
        <ele>374.09</ele>
        <time>2014-11-09T09:29:22Z</time>
      </trkpt>
      <trkpt lat="47.23701" lon="4.62831">
        <ele>374.09</ele>
        <time>2014-11-09T09:29:23Z</time>
      </trkpt>
      <trkpt lat="47.23702" lon="4.62832">
        <ele>374.09</ele>
        <time>2014-11-09T09:29:24Z</time>
      </trkpt>
      <trkpt lat="47.23703" lon="4.62833">
        <ele>374.09</ele>
        <time>2014-11-09T09:29:25Z</time>
      </trkpt>
      <trkpt lat="47.23704" lon="4.62835">
        <ele>374.09</ele>
        <time>2014-11-09T09:29:26Z</time>
      </trkpt>
      <trkpt lat="47.23705" lon="4.62836">
        <ele>374.09</ele>
        <time>2014-11-09T09:29:27Z</time>
      </trkpt>
      <trkpt lat="47.23705" lon="4.62838">
        <ele>374.09</ele>
        <time>2014-11-09T09:29:28Z</time>
      </trkpt>
      <trkpt lat="47.23706" lon="4.6284">
        <ele>374.09</ele>
        <time>2014-11-09T09:29:29Z</time>
      </trkpt>
      <trkpt lat="47.23706" lon="4.62842">
        <ele>374.09</ele>
        <time>2014-11-09T09:29:30Z</time>
      </trkpt>
      <trkpt lat="47.23708" lon="4.62846">
        <ele>374.09</ele>
        <time>2014-11-09T09:29:33Z</time>
      </trkpt>
      <trkpt lat="47.23709" lon="4.62849">
        <ele>373.61</ele>
        <time>2014-11-09T09:29:35Z</time>
      </trkpt>
      <trkpt lat="47.23711" lon="4.62856">
        <ele>373.61</ele>
        <time>2014-11-09T09:29:40Z</time>
      </trkpt>
      <trkpt lat="47.23713" lon="4.62864">
        <ele>374.09</ele>
        <time>2014-11-09T09:29:45Z</time>
      </trkpt>
      <trkpt lat="47.23713" lon="4.62865">
        <ele>374.09</ele>
        <time>2014-11-09T09:29:46Z</time>
      </trkpt>
      <trkpt lat="47.23714" lon="4.62867">
        <ele>374.09</ele>
        <time>2014-11-09T09:29:47Z</time>
      </trkpt>
      <trkpt lat="47.23714" lon="4.62869">
        <ele>374.09</ele>
        <time>2014-11-09T09:29:48Z</time>
      </trkpt>
      <trkpt lat="47.23715" lon="4.6287">
        <ele>374.09</ele>
        <time>2014-11-09T09:29:49Z</time>
      </trkpt>
      <trkpt lat="47.23714" lon="4.62874">
        <ele>374.57</ele>
        <time>2014-11-09T09:29:52Z</time>
      </trkpt>
      <trkpt lat="47.23714" lon="4.62876">
        <ele>374.09</ele>
        <time>2014-11-09T09:29:53Z</time>
      </trkpt>
      <trkpt lat="47.23715" lon="4.62877">
        <ele>374.57</ele>
        <time>2014-11-09T09:29:54Z</time>
      </trkpt>
      <trkpt lat="47.23715" lon="4.62898">
        <ele>374.09</ele>
        <time>2014-11-09T09:30:06Z</time>
      </trkpt>
      <trkpt lat="47.23708" lon="4.62923">
        <ele>374.57</ele>
        <time>2014-11-09T09:30:21Z</time>
      </trkpt>
      <trkpt lat="47.23707" lon="4.62926">
        <ele>374.57</ele>
        <time>2014-11-09T09:30:23Z</time>
      </trkpt>
      <trkpt lat="47.23708" lon="4.62928">
        <ele>374.57</ele>
        <time>2014-11-09T09:30:33Z</time>
      </trkpt>
      <trkpt lat="47.23711" lon="4.62941">
        <ele>374.57</ele>
        <time>2014-11-09T09:30:48Z</time>
      </trkpt>
      <trkpt lat="47.23714" lon="4.62943">
        <ele>374.09</ele>
        <time>2014-11-09T09:30:52Z</time>
      </trkpt>
      <trkpt lat="47.23715" lon="4.62945">
        <ele>374.57</ele>
        <time>2014-11-09T09:30:53Z</time>
      </trkpt>
      <trkpt lat="47.23716" lon="4.62946">
        <ele>374.09</ele>
        <time>2014-11-09T09:30:54Z</time>
      </trkpt>
      <trkpt lat="47.23717" lon="4.62948">
        <ele>374.09</ele>
        <time>2014-11-09T09:30:55Z</time>
      </trkpt>
      <trkpt lat="47.23717" lon="4.6295">
        <ele>374.09</ele>
        <time>2014-11-09T09:30:56Z</time>
      </trkpt>
      <trkpt lat="47.23718" lon="4.62953">
        <ele>374.09</ele>
        <time>2014-11-09T09:30:58Z</time>
      </trkpt>
      <trkpt lat="47.23719" lon="4.62954">
        <ele>374.09</ele>
        <time>2014-11-09T09:30:59Z</time>
      </trkpt>
      <trkpt lat="47.2372" lon="4.62955">
        <ele>374.57</ele>
        <time>2014-11-09T09:31:00Z</time>
      </trkpt>
      <trkpt lat="47.23721" lon="4.62952">
        <ele>374.09</ele>
        <time>2014-11-09T09:31:13Z</time>
      </trkpt>
      <trkpt lat="47.23723" lon="4.62959">
        <ele>373.61</ele>
        <time>2014-11-09T09:31:22Z</time>
      </trkpt>
      <trkpt lat="47.23723" lon="4.62961">
        <ele>374.09</ele>
        <time>2014-11-09T09:31:23Z</time>
      </trkpt>
      <trkpt lat="47.23724" lon="4.62963">
        <ele>374.09</ele>
        <time>2014-11-09T09:31:24Z</time>
      </trkpt>
      <trkpt lat="47.23724" lon="4.62965">
        <ele>374.09</ele>
        <time>2014-11-09T09:31:25Z</time>
      </trkpt>
      <trkpt lat="47.23728" lon="4.62972">
        <ele>374.09</ele>
        <time>2014-11-09T09:31:35Z</time>
      </trkpt>
      <trkpt lat="47.23729" lon="4.62973">
        <ele>373.61</ele>
        <time>2014-11-09T09:31:36Z</time>
      </trkpt>
      <trkpt lat="47.23736" lon="4.62988">
        <ele>374.09</ele>
        <time>2014-11-09T09:31:47Z</time>
      </trkpt>
      <trkpt lat="47.23737" lon="4.6299">
        <ele>373.61</ele>
        <time>2014-11-09T09:31:49Z</time>
      </trkpt>
      <trkpt lat="47.2374" lon="4.62996">
        <ele>374.09</ele>
        <time>2014-11-09T09:32:02Z</time>
      </trkpt>
      <trkpt lat="47.23748" lon="4.63017">
        <ele>374.09</ele>
        <time>2014-11-09T09:32:18Z</time>
      </trkpt>
      <trkpt lat="47.23752" lon="4.63024">
        <ele>374.09</ele>
        <time>2014-11-09T09:32:23Z</time>
      </trkpt>
      <trkpt lat="47.23753" lon="4.63025">
        <ele>374.09</ele>
        <time>2014-11-09T09:32:24Z</time>
      </trkpt>
      <trkpt lat="47.23753" lon="4.63026">
        <ele>373.61</ele>
        <time>2014-11-09T09:32:25Z</time>
      </trkpt>
      <trkpt lat="47.23754" lon="4.63028">
        <ele>373.61</ele>
        <time>2014-11-09T09:32:26Z</time>
      </trkpt>
      <trkpt lat="47.23755" lon="4.63029">
        <ele>374.09</ele>
        <time>2014-11-09T09:32:27Z</time>
      </trkpt>
      <trkpt lat="47.23755" lon="4.63031">
        <ele>374.09</ele>
        <time>2014-11-09T09:32:28Z</time>
      </trkpt>
      <trkpt lat="47.23765" lon="4.63052">
        <ele>373.61</ele>
        <time>2014-11-09T09:32:43Z</time>
      </trkpt>
      <trkpt lat="47.23766" lon="4.63054">
        <ele>374.09</ele>
        <time>2014-11-09T09:32:45Z</time>
      </trkpt>
      <trkpt lat="47.23767" lon="4.63056">
        <ele>373.61</ele>
        <time>2014-11-09T09:32:46Z</time>
      </trkpt>
      <trkpt lat="47.23767" lon="4.63057">
        <ele>373.61</ele>
        <time>2014-11-09T09:32:47Z</time>
      </trkpt>
      <trkpt lat="47.23768" lon="4.63059">
        <ele>374.57</ele>
        <time>2014-11-09T09:32:48Z</time>
      </trkpt>
      <trkpt lat="47.23769" lon="4.63061">
        <ele>374.09</ele>
        <time>2014-11-09T09:32:49Z</time>
      </trkpt>
      <trkpt lat="47.23769" lon="4.63062">
        <ele>373.61</ele>
        <time>2014-11-09T09:32:50Z</time>
      </trkpt>
      <trkpt lat="47.2377" lon="4.63064">
        <ele>374.09</ele>
        <time>2014-11-09T09:32:51Z</time>
      </trkpt>
      <trkpt lat="47.23771" lon="4.63065">
        <ele>373.61</ele>
        <time>2014-11-09T09:32:52Z</time>
      </trkpt>
      <trkpt lat="47.23771" lon="4.63067">
        <ele>374.09</ele>
        <time>2014-11-09T09:32:53Z</time>
      </trkpt>
      <trkpt lat="47.23772" lon="4.63068">
        <ele>374.09</ele>
        <time>2014-11-09T09:32:54Z</time>
      </trkpt>
      <trkpt lat="47.23772" lon="4.6307">
        <ele>374.09</ele>
        <time>2014-11-09T09:32:55Z</time>
      </trkpt>
      <trkpt lat="47.23773" lon="4.63072">
        <ele>373.61</ele>
        <time>2014-11-09T09:32:56Z</time>
      </trkpt>
      <trkpt lat="47.23774" lon="4.63073">
        <ele>373.61</ele>
        <time>2014-11-09T09:32:57Z</time>
      </trkpt>
      <trkpt lat="47.23784" lon="4.63095">
        <ele>373.61</ele>
        <time>2014-11-09T09:33:12Z</time>
      </trkpt>
      <trkpt lat="47.23789" lon="4.63104">
        <ele>374.09</ele>
        <time>2014-11-09T09:33:18Z</time>
      </trkpt>
      <trkpt lat="47.23789" lon="4.63106">
        <ele>373.61</ele>
        <time>2014-11-09T09:33:19Z</time>
      </trkpt>
      <trkpt lat="47.23799" lon="4.63127">
        <ele>373.61</ele>
        <time>2014-11-09T09:33:34Z</time>
      </trkpt>
      <trkpt lat="47.2381" lon="4.6315">
        <ele>374.09</ele>
        <time>2014-11-09T09:33:50Z</time>
      </trkpt>
      <trkpt lat="47.2381" lon="4.63151">
        <ele>373.61</ele>
        <time>2014-11-09T09:33:51Z</time>
      </trkpt>
      <trkpt lat="47.23812" lon="4.63156">
        <ele>374.57</ele>
        <time>2014-11-09T09:33:54Z</time>
      </trkpt>
      <trkpt lat="47.23823" lon="4.63182">
        <ele>374.09</ele>
        <time>2014-11-09T09:34:12Z</time>
      </trkpt>
      <trkpt lat="47.23834" lon="4.63206">
        <ele>374.09</ele>
        <time>2014-11-09T09:34:29Z</time>
      </trkpt>
      <trkpt lat="47.23846" lon="4.63233">
        <ele>373.61</ele>
        <time>2014-11-09T09:34:47Z</time>
      </trkpt>
      <trkpt lat="47.23853" lon="4.63249">
        <ele>374.09</ele>
        <time>2014-11-09T09:34:58Z</time>
      </trkpt>
      <trkpt lat="47.23865" lon="4.63276">
        <ele>373.61</ele>
        <time>2014-11-09T09:35:17Z</time>
      </trkpt>
      <trkpt lat="47.23871" lon="4.63292">
        <ele>374.09</ele>
        <time>2014-11-09T09:35:27Z</time>
      </trkpt>
      <trkpt lat="47.23885" lon="4.63306">
        <ele>374.09</ele>
        <time>2014-11-09T09:35:41Z</time>
      </trkpt>
      <trkpt lat="47.23901" lon="4.63319">
        <ele>374.09</ele>
        <time>2014-11-09T09:35:57Z</time>
      </trkpt>
      <trkpt lat="47.23915" lon="4.63329">
        <ele>373.61</ele>
        <time>2014-11-09T09:36:11Z</time>
      </trkpt>
      <trkpt lat="47.23924" lon="4.63336">
        <ele>373.61</ele>
        <time>2014-11-09T09:36:24Z</time>
      </trkpt>
      <trkpt lat="47.23939" lon="4.63348">
        <ele>373.61</ele>
        <time>2014-11-09T09:36:38Z</time>
      </trkpt>
      <trkpt lat="47.23957" lon="4.63362">
        <ele>373.61</ele>
        <time>2014-11-09T09:36:54Z</time>
      </trkpt>
      <trkpt lat="47.23966" lon="4.63371">
        <ele>373.61</ele>
        <time>2014-11-09T09:37:05Z</time>
      </trkpt>
      <trkpt lat="47.2398" lon="4.63384">
        <ele>373.13</ele>
        <time>2014-11-09T09:37:18Z</time>
      </trkpt>
      <trkpt lat="47.23985" lon="4.63387">
        <ele>373.13</ele>
        <time>2014-11-09T09:37:22Z</time>
      </trkpt>
      <trkpt lat="47.23987" lon="4.63384">
        <ele>373.13</ele>
        <time>2014-11-09T09:37:34Z</time>
      </trkpt>
      <trkpt lat="47.23989" lon="4.63389">
        <ele>373.13</ele>
        <time>2014-11-09T09:37:45Z</time>
      </trkpt>
      <trkpt lat="47.23989" lon="4.63389">
        <ele>373.13</ele>
        <time>2014-11-09T09:37:46Z</time>
      </trkpt>
      <trkpt lat="47.23991" lon="4.6339">
        <ele>373.13</ele>
        <time>2014-11-09T09:37:48Z</time>
      </trkpt>
      <trkpt lat="47.23992" lon="4.63392">
        <ele>373.13</ele>
        <time>2014-11-09T09:37:59Z</time>
      </trkpt>
      <trkpt lat="47.23991" lon="4.63391">
        <ele>372.65</ele>
        <time>2014-11-09T09:38:13Z</time>
      </trkpt>
      <trkpt lat="47.23992" lon="4.6339">
        <ele>372.65</ele>
        <time>2014-11-09T09:38:25Z</time>
      </trkpt>
      <trkpt lat="47.23993" lon="4.6339">
        <ele>372.65</ele>
        <time>2014-11-09T09:38:46Z</time>
      </trkpt>
      <trkpt lat="47.24001" lon="4.63399">
        <ele>372.65</ele>
        <time>2014-11-09T09:39:01Z</time>
      </trkpt>
      <trkpt lat="47.24009" lon="4.63406">
        <ele>371.69</ele>
        <time>2014-11-09T09:39:11Z</time>
      </trkpt>
      <trkpt lat="47.2403" lon="4.63422">
        <ele>371.21</ele>
        <time>2014-11-09T09:39:32Z</time>
      </trkpt>
      <trkpt lat="47.24046" lon="4.63435">
        <ele>372.65</ele>
        <time>2014-11-09T09:39:52Z</time>
      </trkpt>
      <trkpt lat="47.24044" lon="4.63433">
        <ele>373.13</ele>
        <time>2014-11-09T09:40:04Z</time>
      </trkpt>
      <trkpt lat="47.24043" lon="4.63433">
        <ele>372.17</ele>
        <time>2014-11-09T09:40:05Z</time>
      </trkpt>
      <trkpt lat="47.24038" lon="4.63429">
        <ele>372.65</ele>
        <time>2014-11-09T09:40:10Z</time>
      </trkpt>
      <trkpt lat="47.24032" lon="4.63422">
        <ele>373.13</ele>
        <time>2014-11-09T09:40:17Z</time>
      </trkpt>
      <trkpt lat="47.24031" lon="4.63421">
        <ele>372.65</ele>
        <time>2014-11-09T09:40:31Z</time>
      </trkpt>
      <trkpt lat="47.24031" lon="4.63421">
        <ele>372.65</ele>
        <time>2014-11-09T09:40:35Z</time>
      </trkpt>
      <trkpt lat="47.2403" lon="4.63421">
        <ele>372.65</ele>
        <time>2014-11-09T09:40:37Z</time>
      </trkpt>
      <trkpt lat="47.24025" lon="4.63416">
        <ele>372.65</ele>
        <time>2014-11-09T09:40:43Z</time>
      </trkpt>
      <trkpt lat="47.24016" lon="4.63411">
        <ele>372.65</ele>
        <time>2014-11-09T09:40:52Z</time>
      </trkpt>
      <trkpt lat="47.24021" lon="4.63415">
        <ele>372.17</ele>
        <time>2014-11-09T09:40:56Z</time>
      </trkpt>
      <trkpt lat="47.24028" lon="4.63422">
        <ele>370.24</ele>
        <time>2014-11-09T09:41:03Z</time>
      </trkpt>
      <trkpt lat="47.24033" lon="4.63425">
        <ele>372.65</ele>
        <time>2014-11-09T09:41:08Z</time>
      </trkpt>
      <trkpt lat="47.24052" lon="4.63441">
        <ele>372.65</ele>
        <time>2014-11-09T09:41:26Z</time>
      </trkpt>
      <trkpt lat="47.24068" lon="4.63453">
        <ele>372.65</ele>
        <time>2014-11-09T09:41:44Z</time>
      </trkpt>
      <trkpt lat="47.24085" lon="4.63468">
        <ele>372.65</ele>
        <time>2014-11-09T09:42:02Z</time>
      </trkpt>
      <trkpt lat="47.24093" lon="4.63474">
        <ele>372.65</ele>
        <time>2014-11-09T09:42:10Z</time>
      </trkpt>
      <trkpt lat="47.24112" lon="4.6349">
        <ele>372.17</ele>
        <time>2014-11-09T09:42:29Z</time>
      </trkpt>
      <trkpt lat="47.24129" lon="4.63502">
        <ele>372.65</ele>
        <time>2014-11-09T09:42:44Z</time>
      </trkpt>
      <trkpt lat="47.24133" lon="4.63507">
        <ele>372.65</ele>
        <time>2014-11-09T09:42:49Z</time>
      </trkpt>
      <trkpt lat="47.24137" lon="4.63507">
        <ele>372.65</ele>
        <time>2014-11-09T09:42:53Z</time>
      </trkpt>
      <trkpt lat="47.24144" lon="4.63515">
        <ele>372.65</ele>
        <time>2014-11-09T09:43:01Z</time>
      </trkpt>
      <trkpt lat="47.24159" lon="4.63527">
        <ele>372.65</ele>
        <time>2014-11-09T09:43:14Z</time>
      </trkpt>
      <trkpt lat="47.24168" lon="4.63533">
        <ele>372.65</ele>
        <time>2014-11-09T09:43:23Z</time>
      </trkpt>
      <trkpt lat="47.24173" lon="4.63538">
        <ele>372.65</ele>
        <time>2014-11-09T09:43:29Z</time>
      </trkpt>
      <trkpt lat="47.24179" lon="4.63541">
        <ele>372.65</ele>
        <time>2014-11-09T09:43:35Z</time>
      </trkpt>
      <trkpt lat="47.24186" lon="4.6355">
        <ele>372.65</ele>
        <time>2014-11-09T09:43:42Z</time>
      </trkpt>
      <trkpt lat="47.24201" lon="4.63561">
        <ele>372.65</ele>
        <time>2014-11-09T09:43:56Z</time>
      </trkpt>
      <trkpt lat="47.24208" lon="4.63565">
        <ele>372.65</ele>
        <time>2014-11-09T09:44:05Z</time>
      </trkpt>
      <trkpt lat="47.24214" lon="4.63571">
        <ele>372.17</ele>
        <time>2014-11-09T09:44:11Z</time>
      </trkpt>
      <trkpt lat="47.24229" lon="4.63581">
        <ele>372.65</ele>
        <time>2014-11-09T09:44:26Z</time>
      </trkpt>
      <trkpt lat="47.2424" lon="4.63584">
        <ele>372.65</ele>
        <time>2014-11-09T09:44:34Z</time>
      </trkpt>
      <trkpt lat="47.24251" lon="4.63591">
        <ele>372.65</ele>
        <time>2014-11-09T09:44:46Z</time>
      </trkpt>
      <trkpt lat="47.2426" lon="4.63596">
        <ele>372.65</ele>
        <time>2014-11-09T09:44:59Z</time>
      </trkpt>
      <trkpt lat="47.24273" lon="4.63601">
        <ele>372.65</ele>
        <time>2014-11-09T09:45:11Z</time>
      </trkpt>
      <trkpt lat="47.24283" lon="4.63606">
        <ele>372.65</ele>
        <time>2014-11-09T09:45:20Z</time>
      </trkpt>
      <trkpt lat="47.24298" lon="4.63616">
        <ele>372.65</ele>
        <time>2014-11-09T09:45:35Z</time>
      </trkpt>
      <trkpt lat="47.24312" lon="4.63622">
        <ele>372.65</ele>
        <time>2014-11-09T09:45:47Z</time>
      </trkpt>
      <trkpt lat="47.2433" lon="4.63633">
        <ele>372.65</ele>
        <time>2014-11-09T09:46:04Z</time>
      </trkpt>
      <trkpt lat="47.24337" lon="4.63636">
        <ele>372.65</ele>
        <time>2014-11-09T09:46:11Z</time>
      </trkpt>
      <trkpt lat="47.24352" lon="4.63641">
        <ele>373.13</ele>
        <time>2014-11-09T09:46:25Z</time>
      </trkpt>
      <trkpt lat="47.2437" lon="4.63651">
        <ele>372.65</ele>
        <time>2014-11-09T09:46:41Z</time>
      </trkpt>
      <trkpt lat="47.24379" lon="4.63658">
        <ele>372.65</ele>
        <time>2014-11-09T09:46:55Z</time>
      </trkpt>
      <trkpt lat="47.24395" lon="4.63663">
        <ele>372.65</ele>
        <time>2014-11-09T09:47:07Z</time>
      </trkpt>
      <trkpt lat="47.24405" lon="4.63669">
        <ele>373.13</ele>
        <time>2014-11-09T09:47:17Z</time>
      </trkpt>
      <trkpt lat="47.24423" lon="4.63679">
        <ele>373.13</ele>
        <time>2014-11-09T09:47:33Z</time>
      </trkpt>
      <trkpt lat="47.24441" lon="4.63688">
        <ele>373.13</ele>
        <time>2014-11-09T09:47:48Z</time>
      </trkpt>
      <trkpt lat="47.24453" lon="4.63694">
        <ele>373.13</ele>
        <time>2014-11-09T09:47:59Z</time>
      </trkpt>
      <trkpt lat="47.24463" lon="4.637">
        <ele>373.13</ele>
        <time>2014-11-09T09:48:08Z</time>
      </trkpt>
      <trkpt lat="47.24468" lon="4.63703">
        <ele>373.61</ele>
        <time>2014-11-09T09:48:12Z</time>
      </trkpt>
      <trkpt lat="47.24473" lon="4.63705">
        <ele>373.13</ele>
        <time>2014-11-09T09:48:16Z</time>
      </trkpt>
      <trkpt lat="47.24475" lon="4.63706">
        <ele>373.61</ele>
        <time>2014-11-09T09:48:18Z</time>
      </trkpt>
      <trkpt lat="47.24484" lon="4.63712">
        <ele>373.61</ele>
        <time>2014-11-09T09:48:26Z</time>
      </trkpt>
      <trkpt lat="47.24501" lon="4.63718">
        <ele>373.13</ele>
        <time>2014-11-09T09:48:40Z</time>
      </trkpt>
      <trkpt lat="47.24502" lon="4.63718">
        <ele>373.13</ele>
        <time>2014-11-09T09:48:41Z</time>
      </trkpt>
      <trkpt lat="47.2451" lon="4.63717">
        <ele>373.13</ele>
        <time>2014-11-09T09:48:48Z</time>
      </trkpt>
      <trkpt lat="47.24524" lon="4.63712">
        <ele>373.13</ele>
        <time>2014-11-09T09:49:00Z</time>
      </trkpt>
      <trkpt lat="47.24528" lon="4.63711">
        <ele>373.13</ele>
        <time>2014-11-09T09:49:04Z</time>
      </trkpt>
      <trkpt lat="47.24531" lon="4.6371">
        <ele>373.13</ele>
        <time>2014-11-09T09:49:06Z</time>
      </trkpt>
      <trkpt lat="47.24536" lon="4.63708">
        <ele>372.65</ele>
        <time>2014-11-09T09:49:10Z</time>
      </trkpt>
      <trkpt lat="47.24541" lon="4.63707">
        <ele>373.13</ele>
        <time>2014-11-09T09:49:14Z</time>
      </trkpt>
      <trkpt lat="47.24556" lon="4.63702">
        <ele>372.65</ele>
        <time>2014-11-09T09:49:28Z</time>
      </trkpt>
      <trkpt lat="47.24564" lon="4.63699">
        <ele>373.13</ele>
        <time>2014-11-09T09:49:35Z</time>
      </trkpt>
      <trkpt lat="47.2458" lon="4.63696">
        <ele>373.13</ele>
        <time>2014-11-09T09:49:49Z</time>
      </trkpt>
      <trkpt lat="47.24595" lon="4.63689">
        <ele>373.13</ele>
        <time>2014-11-09T09:50:01Z</time>
      </trkpt>
      <trkpt lat="47.24611" lon="4.63678">
        <ele>373.61</ele>
        <time>2014-11-09T09:50:16Z</time>
      </trkpt>
      <trkpt lat="47.24624" lon="4.63669">
        <ele>374.09</ele>
        <time>2014-11-09T09:50:29Z</time>
      </trkpt>
      <trkpt lat="47.2464" lon="4.6366">
        <ele>374.09</ele>
        <time>2014-11-09T09:50:43Z</time>
      </trkpt>
      <trkpt lat="47.2465" lon="4.63655">
        <ele>374.09</ele>
        <time>2014-11-09T09:50:52Z</time>
      </trkpt>
      <trkpt lat="47.24657" lon="4.63654">
        <ele>373.61</ele>
        <time>2014-11-09T09:51:04Z</time>
      </trkpt>
      <trkpt lat="47.24672" lon="4.6365">
        <ele>373.13</ele>
        <time>2014-11-09T09:51:17Z</time>
      </trkpt>
      <trkpt lat="47.24678" lon="4.63647">
        <ele>373.13</ele>
        <time>2014-11-09T09:51:22Z</time>
      </trkpt>
      <trkpt lat="47.24693" lon="4.6364">
        <ele>372.65</ele>
        <time>2014-11-09T09:51:35Z</time>
      </trkpt>
      <trkpt lat="47.247" lon="4.63636">
        <ele>373.13</ele>
        <time>2014-11-09T09:51:42Z</time>
      </trkpt>
      <trkpt lat="47.24718" lon="4.63629">
        <ele>373.13</ele>
        <time>2014-11-09T09:51:58Z</time>
      </trkpt>
      <trkpt lat="47.24724" lon="4.63624">
        <ele>373.13</ele>
        <time>2014-11-09T09:52:04Z</time>
      </trkpt>
      <trkpt lat="47.24726" lon="4.63622">
        <ele>373.13</ele>
        <time>2014-11-09T09:52:07Z</time>
      </trkpt>
      <trkpt lat="47.24741" lon="4.63613">
        <ele>373.13</ele>
        <time>2014-11-09T09:52:20Z</time>
      </trkpt>
      <trkpt lat="47.24746" lon="4.63609">
        <ele>373.13</ele>
        <time>2014-11-09T09:52:25Z</time>
      </trkpt>
      <trkpt lat="47.2476" lon="4.63598">
        <ele>373.13</ele>
        <time>2014-11-09T09:52:39Z</time>
      </trkpt>
      <trkpt lat="47.24773" lon="4.63589">
        <ele>371.69</ele>
        <time>2014-11-09T09:52:51Z</time>
      </trkpt>
      <trkpt lat="47.24783" lon="4.63587">
        <ele>373.61</ele>
        <time>2014-11-09T09:53:03Z</time>
      </trkpt>
      <trkpt lat="47.24788" lon="4.63587">
        <ele>374.09</ele>
        <time>2014-11-09T09:53:09Z</time>
      </trkpt>
      <trkpt lat="47.24807" lon="4.63591">
        <ele>374.09</ele>
        <time>2014-11-09T09:53:24Z</time>
      </trkpt>
      <trkpt lat="47.24826" lon="4.63598">
        <ele>374.57</ele>
        <time>2014-11-09T09:53:40Z</time>
      </trkpt>
      <trkpt lat="47.24839" lon="4.63601">
        <ele>373.61</ele>
        <time>2014-11-09T09:53:50Z</time>
      </trkpt>
      <trkpt lat="47.24858" lon="4.6361">
        <ele>374.09</ele>
        <time>2014-11-09T09:54:06Z</time>
      </trkpt>
      <trkpt lat="47.24874" lon="4.63615">
        <ele>373.61</ele>
        <time>2014-11-09T09:54:20Z</time>
      </trkpt>
      <trkpt lat="47.24894" lon="4.63618">
        <ele>373.61</ele>
        <time>2014-11-09T09:54:37Z</time>
      </trkpt>
      <trkpt lat="47.24898" lon="4.63617">
        <ele>373.61</ele>
        <time>2014-11-09T09:54:40Z</time>
      </trkpt>
      <trkpt lat="47.24915" lon="4.63617">
        <ele>373.61</ele>
        <time>2014-11-09T09:54:55Z</time>
      </trkpt>
      <trkpt lat="47.24932" lon="4.63615">
        <ele>373.13</ele>
        <time>2014-11-09T09:55:08Z</time>
      </trkpt>
      <trkpt lat="47.24942" lon="4.63612">
        <ele>373.13</ele>
        <time>2014-11-09T09:55:16Z</time>
      </trkpt>
      <trkpt lat="47.24958" lon="4.6359">
        <ele>373.13</ele>
        <time>2014-11-09T09:55:35Z</time>
      </trkpt>
      <trkpt lat="47.24961" lon="4.63585">
        <ele>373.13</ele>
        <time>2014-11-09T09:55:39Z</time>
      </trkpt>
      <trkpt lat="47.24962" lon="4.6358">
        <ele>373.13</ele>
        <time>2014-11-09T09:55:42Z</time>
      </trkpt>
      <trkpt lat="47.24965" lon="4.63575">
        <ele>373.13</ele>
        <time>2014-11-09T09:55:46Z</time>
      </trkpt>
      <trkpt lat="47.24971" lon="4.63557">
        <ele>373.13</ele>
        <time>2014-11-09T09:55:57Z</time>
      </trkpt>
      <trkpt lat="47.2498" lon="4.63538">
        <ele>373.13</ele>
        <time>2014-11-09T09:56:11Z</time>
      </trkpt>
      <trkpt lat="47.24989" lon="4.63515">
        <ele>373.13</ele>
        <time>2014-11-09T09:56:26Z</time>
      </trkpt>
      <trkpt lat="47.24996" lon="4.6349">
        <ele>373.61</ele>
        <time>2014-11-09T09:56:42Z</time>
      </trkpt>
      <trkpt lat="47.25001" lon="4.63473">
        <ele>373.61</ele>
        <time>2014-11-09T09:56:54Z</time>
      </trkpt>
      <trkpt lat="47.25007" lon="4.63445">
        <ele>373.61</ele>
        <time>2014-11-09T09:57:11Z</time>
      </trkpt>
      <trkpt lat="47.25011" lon="4.63426">
        <ele>374.09</ele>
        <time>2014-11-09T09:57:25Z</time>
      </trkpt>
      <trkpt lat="47.25016" lon="4.63422">
        <ele>374.09</ele>
        <time>2014-11-09T09:57:38Z</time>
      </trkpt>
      <trkpt lat="47.25013" lon="4.63416">
        <ele>374.09</ele>
        <time>2014-11-09T09:57:51Z</time>
      </trkpt>
      <trkpt lat="47.25016" lon="4.63416">
        <ele>374.09</ele>
        <time>2014-11-09T09:58:12Z</time>
      </trkpt>
      <trkpt lat="47.25021" lon="4.63412">
        <ele>374.57</ele>
        <time>2014-11-09T09:58:18Z</time>
      </trkpt>
      <trkpt lat="47.25025" lon="4.63412">
        <ele>373.61</ele>
        <time>2014-11-09T09:58:21Z</time>
      </trkpt>
      <trkpt lat="47.25028" lon="4.63414">
        <ele>373.61</ele>
        <time>2014-11-09T09:58:24Z</time>
      </trkpt>
      <trkpt lat="47.25035" lon="4.63421">
        <ele>373.61</ele>
        <time>2014-11-09T09:58:31Z</time>
      </trkpt>
      <trkpt lat="47.25047" lon="4.63426">
        <ele>374.09</ele>
        <time>2014-11-09T09:58:43Z</time>
      </trkpt>
      <trkpt lat="47.25052" lon="4.63428">
        <ele>373.61</ele>
        <time>2014-11-09T09:58:48Z</time>
      </trkpt>
      <trkpt lat="47.25059" lon="4.63431">
        <ele>374.09</ele>
        <time>2014-11-09T09:58:57Z</time>
      </trkpt>
      <trkpt lat="47.25078" lon="4.63438">
        <ele>374.09</ele>
        <time>2014-11-09T09:59:12Z</time>
      </trkpt>
      <trkpt lat="47.25097" lon="4.63446">
        <ele>373.61</ele>
        <time>2014-11-09T09:59:28Z</time>
      </trkpt>
      <trkpt lat="47.25119" lon="4.63456">
        <ele>374.09</ele>
        <time>2014-11-09T09:59:49Z</time>
      </trkpt>
      <trkpt lat="47.25131" lon="4.63461">
        <ele>373.61</ele>
        <time>2014-11-09T10:00:06Z</time>
      </trkpt>
      <trkpt lat="47.25136" lon="4.63463">
        <ele>375.05</ele>
        <time>2014-11-09T10:00:11Z</time>
      </trkpt>
      <trkpt lat="47.25169" lon="4.63475">
        <ele>375.05</ele>
        <time>2014-11-09T10:00:36Z</time>
      </trkpt>
      <trkpt lat="47.25193" lon="4.63485">
        <ele>375.05</ele>
        <time>2014-11-09T10:00:58Z</time>
      </trkpt>
      <trkpt lat="47.25222" lon="4.63497">
        <ele>374.57</ele>
        <time>2014-11-09T10:01:22Z</time>
      </trkpt>
      <trkpt lat="47.25245" lon="4.63507">
        <ele>375.53</ele>
        <time>2014-11-09T10:01:44Z</time>
      </trkpt>
      <trkpt lat="47.25268" lon="4.63519">
        <ele>376.01</ele>
        <time>2014-11-09T10:02:05Z</time>
      </trkpt>
      <trkpt lat="47.25295" lon="4.63529">
        <ele>376.01</ele>
        <time>2014-11-09T10:02:30Z</time>
      </trkpt>
      <trkpt lat="47.25298" lon="4.63527">
        <ele>374.57</ele>
        <time>2014-11-09T10:02:33Z</time>
      </trkpt>
      <trkpt lat="47.25323" lon="4.6354">
        <ele>376.01</ele>
        <time>2014-11-09T10:02:55Z</time>
      </trkpt>
      <trkpt lat="47.25329" lon="4.63541">
        <ele>376.01</ele>
        <time>2014-11-09T10:03:00Z</time>
      </trkpt>
      <trkpt lat="47.25354" lon="4.63549">
        <ele>376.97</ele>
        <time>2014-11-09T10:03:22Z</time>
      </trkpt>
      <trkpt lat="47.25356" lon="4.63563">
        <ele>376.97</ele>
        <time>2014-11-09T10:03:40Z</time>
      </trkpt>
      <trkpt lat="47.25363" lon="4.63561">
        <ele>377.94</ele>
        <time>2014-11-09T10:03:57Z</time>
      </trkpt>
      <trkpt lat="47.25387" lon="4.63571">
        <ele>378.42</ele>
        <time>2014-11-09T10:04:18Z</time>
      </trkpt>
      <trkpt lat="47.2541" lon="4.63577">
        <ele>377.45</ele>
        <time>2014-11-09T10:04:40Z</time>
      </trkpt>
      <trkpt lat="47.25432" lon="4.63589">
        <ele>378.42</ele>
        <time>2014-11-09T10:05:02Z</time>
      </trkpt>
      <trkpt lat="47.25462" lon="4.63602">
        <ele>377.94</ele>
        <time>2014-11-09T10:05:26Z</time>
      </trkpt>
      <trkpt lat="47.25475" lon="4.63607">
        <ele>378.42</ele>
        <time>2014-11-09T10:05:38Z</time>
      </trkpt>
      <trkpt lat="47.25487" lon="4.63612">
        <ele>378.42</ele>
        <time>2014-11-09T10:05:49Z</time>
      </trkpt>
      <trkpt lat="47.25507" lon="4.63621">
        <ele>378.9</ele>
        <time>2014-11-09T10:06:05Z</time>
      </trkpt>
      <trkpt lat="47.25525" lon="4.63628">
        <ele>378.42</ele>
        <time>2014-11-09T10:06:22Z</time>
      </trkpt>
      <trkpt lat="47.25536" lon="4.63635">
        <ele>378.9</ele>
        <time>2014-11-09T10:06:36Z</time>
      </trkpt>
      <trkpt lat="47.25548" lon="4.63644">
        <ele>378.9</ele>
        <time>2014-11-09T10:06:48Z</time>
      </trkpt>
      <trkpt lat="47.25562" lon="4.6365">
        <ele>378.9</ele>
        <time>2014-11-09T10:07:01Z</time>
      </trkpt>
      <trkpt lat="47.25579" lon="4.63654">
        <ele>379.38</ele>
        <time>2014-11-09T10:07:15Z</time>
      </trkpt>
      <trkpt lat="47.25593" lon="4.63662">
        <ele>379.86</ele>
        <time>2014-11-09T10:07:28Z</time>
      </trkpt>
      <trkpt lat="47.25598" lon="4.63664">
        <ele>380.34</ele>
        <time>2014-11-09T10:07:32Z</time>
      </trkpt>
      <trkpt lat="47.25614" lon="4.6367">
        <ele>380.34</ele>
        <time>2014-11-09T10:07:47Z</time>
      </trkpt>
      <trkpt lat="47.25623" lon="4.63676">
        <ele>380.34</ele>
        <time>2014-11-09T10:07:56Z</time>
      </trkpt>
      <trkpt lat="47.25635" lon="4.63679">
        <ele>380.82</ele>
        <time>2014-11-09T10:08:07Z</time>
      </trkpt>
      <trkpt lat="47.25649" lon="4.63684">
        <ele>381.3</ele>
        <time>2014-11-09T10:08:20Z</time>
      </trkpt>
      <trkpt lat="47.2566" lon="4.63688">
        <ele>381.3</ele>
        <time>2014-11-09T10:08:30Z</time>
      </trkpt>
      <trkpt lat="47.25662" lon="4.63703">
        <ele>381.78</ele>
        <time>2014-11-09T10:08:42Z</time>
      </trkpt>
      <trkpt lat="47.2566" lon="4.63704">
        <ele>381.78</ele>
        <time>2014-11-09T10:08:44Z</time>
      </trkpt>
      <trkpt lat="47.25656" lon="4.63721">
        <ele>381.3</ele>
        <time>2014-11-09T10:08:56Z</time>
      </trkpt>
      <trkpt lat="47.25657" lon="4.63726">
        <ele>381.3</ele>
        <time>2014-11-09T10:09:01Z</time>
      </trkpt>
      <trkpt lat="47.2566" lon="4.63735">
        <ele>381.78</ele>
        <time>2014-11-09T10:09:07Z</time>
      </trkpt>
      <trkpt lat="47.2568" lon="4.63746">
        <ele>381.78</ele>
        <time>2014-11-09T10:09:25Z</time>
      </trkpt>
      <trkpt lat="47.25693" lon="4.63754">
        <ele>382.74</ele>
        <time>2014-11-09T10:09:39Z</time>
      </trkpt>
      <trkpt lat="47.25711" lon="4.6376">
        <ele>384.18</ele>
        <time>2014-11-09T10:09:56Z</time>
      </trkpt>
      <trkpt lat="47.25725" lon="4.63767">
        <ele>385.15</ele>
        <time>2014-11-09T10:10:09Z</time>
      </trkpt>
      <trkpt lat="47.25739" lon="4.63771">
        <ele>386.59</ele>
        <time>2014-11-09T10:10:22Z</time>
      </trkpt>
      <trkpt lat="47.2575" lon="4.63771">
        <ele>387.55</ele>
        <time>2014-11-09T10:10:32Z</time>
      </trkpt>
      <trkpt lat="47.25754" lon="4.63774">
        <ele>387.55</ele>
        <time>2014-11-09T10:10:36Z</time>
      </trkpt>
      <trkpt lat="47.2577" lon="4.63772">
        <ele>388.51</ele>
        <time>2014-11-09T10:10:50Z</time>
      </trkpt>
      <trkpt lat="47.25788" lon="4.63773">
        <ele>388.99</ele>
        <time>2014-11-09T10:11:05Z</time>
      </trkpt>
      <trkpt lat="47.25805" lon="4.63776">
        <ele>388.03</ele>
        <time>2014-11-09T10:11:21Z</time>
      </trkpt>
      <trkpt lat="47.25812" lon="4.63775">
        <ele>387.55</ele>
        <time>2014-11-09T10:11:28Z</time>
      </trkpt>
      <trkpt lat="47.25814" lon="4.63775">
        <ele>387.55</ele>
        <time>2014-11-09T10:11:30Z</time>
      </trkpt>
      <trkpt lat="47.25839" lon="4.63775">
        <ele>385.63</ele>
        <time>2014-11-09T10:11:51Z</time>
      </trkpt>
      <trkpt lat="47.25848" lon="4.63776">
        <ele>385.15</ele>
        <time>2014-11-09T10:11:59Z</time>
      </trkpt>
      <trkpt lat="47.25863" lon="4.63787">
        <ele>383.7</ele>
        <time>2014-11-09T10:12:13Z</time>
      </trkpt>
      <trkpt lat="47.25862" lon="4.6379">
        <ele>383.22</ele>
        <time>2014-11-09T10:12:25Z</time>
      </trkpt>
      <trkpt lat="47.25863" lon="4.63794">
        <ele>383.22</ele>
        <time>2014-11-09T10:12:28Z</time>
      </trkpt>
      <trkpt lat="47.25864" lon="4.63797">
        <ele>382.74</ele>
        <time>2014-11-09T10:12:30Z</time>
      </trkpt>
      <trkpt lat="47.25873" lon="4.63804">
        <ele>381.78</ele>
        <time>2014-11-09T10:12:40Z</time>
      </trkpt>
      <trkpt lat="47.25876" lon="4.63805">
        <ele>381.78</ele>
        <time>2014-11-09T10:12:43Z</time>
      </trkpt>
      <trkpt lat="47.25888" lon="4.63811">
        <ele>381.3</ele>
        <time>2014-11-09T10:12:57Z</time>
      </trkpt>
      <trkpt lat="47.2589" lon="4.63814">
        <ele>381.3</ele>
        <time>2014-11-09T10:13:00Z</time>
      </trkpt>
      <trkpt lat="47.25909" lon="4.63818">
        <ele>380.34</ele>
        <time>2014-11-09T10:13:16Z</time>
      </trkpt>
      <trkpt lat="47.25911" lon="4.63819">
        <ele>380.34</ele>
        <time>2014-11-09T10:13:18Z</time>
      </trkpt>
      <trkpt lat="47.25922" lon="4.63822">
        <ele>380.34</ele>
        <time>2014-11-09T10:13:31Z</time>
      </trkpt>
      <trkpt lat="47.25939" lon="4.63829">
        <ele>380.34</ele>
        <time>2014-11-09T10:13:46Z</time>
      </trkpt>
      <trkpt lat="47.25945" lon="4.6383">
        <ele>380.34</ele>
        <time>2014-11-09T10:14:04Z</time>
      </trkpt>
      <trkpt lat="47.25956" lon="4.63836">
        <ele>380.34</ele>
        <time>2014-11-09T10:14:16Z</time>
      </trkpt>
      <trkpt lat="47.25973" lon="4.63841">
        <ele>379.86</ele>
        <time>2014-11-09T10:14:31Z</time>
      </trkpt>
      <trkpt lat="47.25992" lon="4.63849">
        <ele>379.38</ele>
        <time>2014-11-09T10:14:46Z</time>
      </trkpt>
      <trkpt lat="47.26002" lon="4.63856">
        <ele>379.86</ele>
        <time>2014-11-09T10:14:58Z</time>
      </trkpt>
      <trkpt lat="47.26015" lon="4.63869">
        <ele>379.38</ele>
        <time>2014-11-09T10:15:12Z</time>
      </trkpt>
      <trkpt lat="47.26023" lon="4.6388">
        <ele>379.38</ele>
        <time>2014-11-09T10:15:22Z</time>
      </trkpt>
      <trkpt lat="47.26026" lon="4.63883">
        <ele>379.86</ele>
        <time>2014-11-09T10:15:25Z</time>
      </trkpt>
      <trkpt lat="47.26042" lon="4.63903">
        <ele>380.82</ele>
        <time>2014-11-09T10:15:42Z</time>
      </trkpt>
      <trkpt lat="47.2605" lon="4.63919">
        <ele>380.82</ele>
        <time>2014-11-09T10:15:54Z</time>
      </trkpt>
      <trkpt lat="47.26052" lon="4.63924">
        <ele>380.82</ele>
        <time>2014-11-09T10:15:58Z</time>
      </trkpt>
      <trkpt lat="47.26055" lon="4.63932">
        <ele>381.3</ele>
        <time>2014-11-09T10:16:03Z</time>
      </trkpt>
      <trkpt lat="47.26059" lon="4.63948">
        <ele>380.82</ele>
        <time>2014-11-09T10:16:13Z</time>
      </trkpt>
      <trkpt lat="47.26064" lon="4.63977">
        <ele>380.82</ele>
        <time>2014-11-09T10:16:29Z</time>
      </trkpt>
      <trkpt lat="47.2607" lon="4.64003">
        <ele>380.82</ele>
        <time>2014-11-09T10:16:46Z</time>
      </trkpt>
      <trkpt lat="47.26078" lon="4.64033">
        <ele>380.82</ele>
        <time>2014-11-09T10:17:07Z</time>
      </trkpt>
      <trkpt lat="47.26086" lon="4.64066">
        <ele>380.82</ele>
        <time>2014-11-09T10:17:27Z</time>
      </trkpt>
      <trkpt lat="47.26093" lon="4.64094">
        <ele>381.3</ele>
        <time>2014-11-09T10:17:46Z</time>
      </trkpt>
      <trkpt lat="47.26097" lon="4.64115">
        <ele>381.78</ele>
        <time>2014-11-09T10:18:01Z</time>
      </trkpt>
      <trkpt lat="47.26102" lon="4.64148">
        <ele>381.78</ele>
        <time>2014-11-09T10:18:19Z</time>
      </trkpt>
      <trkpt lat="47.26109" lon="4.64171">
        <ele>381.3</ele>
        <time>2014-11-09T10:18:35Z</time>
      </trkpt>
      <trkpt lat="47.26111" lon="4.64182">
        <ele>381.3</ele>
        <time>2014-11-09T10:18:42Z</time>
      </trkpt>
      <trkpt lat="47.26114" lon="4.64198">
        <ele>381.3</ele>
        <time>2014-11-09T10:18:55Z</time>
      </trkpt>
      <trkpt lat="47.26118" lon="4.64203">
        <ele>381.3</ele>
        <time>2014-11-09T10:19:09Z</time>
      </trkpt>
      <trkpt lat="47.26118" lon="4.64206">
        <ele>381.3</ele>
        <time>2014-11-09T10:19:11Z</time>
      </trkpt>
      <trkpt lat="47.26118" lon="4.6421">
        <ele>381.3</ele>
        <time>2014-11-09T10:19:13Z</time>
      </trkpt>
      <trkpt lat="47.26126" lon="4.64236">
        <ele>381.78</ele>
        <time>2014-11-09T10:19:30Z</time>
      </trkpt>
      <trkpt lat="47.26127" lon="4.6424">
        <ele>381.78</ele>
        <time>2014-11-09T10:19:33Z</time>
      </trkpt>
      <trkpt lat="47.26131" lon="4.64263">
        <ele>381.78</ele>
        <time>2014-11-09T10:19:46Z</time>
      </trkpt>
      <trkpt lat="47.26135" lon="4.64287">
        <ele>381.78</ele>
        <time>2014-11-09T10:20:01Z</time>
      </trkpt>
      <trkpt lat="47.26143" lon="4.64306">
        <ele>381.78</ele>
        <time>2014-11-09T10:20:14Z</time>
      </trkpt>
      <trkpt lat="47.26144" lon="4.64309">
        <ele>381.78</ele>
        <time>2014-11-09T10:20:16Z</time>
      </trkpt>
      <trkpt lat="47.26149" lon="4.64327">
        <ele>382.26</ele>
        <time>2014-11-09T10:20:28Z</time>
      </trkpt>
      <trkpt lat="47.26153" lon="4.64336">
        <ele>382.74</ele>
        <time>2014-11-09T10:20:34Z</time>
      </trkpt>
      <trkpt lat="47.26153" lon="4.64338">
        <ele>382.26</ele>
        <time>2014-11-09T10:20:36Z</time>
      </trkpt>
      <trkpt lat="47.26162" lon="4.64357">
        <ele>382.74</ele>
        <time>2014-11-09T10:20:50Z</time>
      </trkpt>
      <trkpt lat="47.26168" lon="4.6437">
        <ele>382.74</ele>
        <time>2014-11-09T10:21:02Z</time>
      </trkpt>
      <trkpt lat="47.26181" lon="4.64391">
        <ele>383.22</ele>
        <time>2014-11-09T10:21:18Z</time>
      </trkpt>
      <trkpt lat="47.26183" lon="4.64396">
        <ele>383.22</ele>
        <time>2014-11-09T10:21:22Z</time>
      </trkpt>
      <trkpt lat="47.26187" lon="4.64404">
        <ele>383.22</ele>
        <time>2014-11-09T10:21:28Z</time>
      </trkpt>
      <trkpt lat="47.2619" lon="4.64409">
        <ele>383.22</ele>
        <time>2014-11-09T10:21:32Z</time>
      </trkpt>
      <trkpt lat="47.26194" lon="4.64414">
        <ele>383.22</ele>
        <time>2014-11-09T10:21:37Z</time>
      </trkpt>
      <trkpt lat="47.26198" lon="4.6442">
        <ele>383.7</ele>
        <time>2014-11-09T10:21:42Z</time>
      </trkpt>
      <trkpt lat="47.26201" lon="4.64424">
        <ele>383.7</ele>
        <time>2014-11-09T10:21:45Z</time>
      </trkpt>
      <trkpt lat="47.26209" lon="4.64433">
        <ele>383.7</ele>
        <time>2014-11-09T10:21:54Z</time>
      </trkpt>
      <trkpt lat="47.26211" lon="4.64434">
        <ele>383.7</ele>
        <time>2014-11-09T10:21:56Z</time>
      </trkpt>
      <trkpt lat="47.26216" lon="4.64441">
        <ele>384.18</ele>
        <time>2014-11-09T10:22:02Z</time>
      </trkpt>
      <trkpt lat="47.26219" lon="4.64445">
        <ele>384.18</ele>
        <time>2014-11-09T10:22:05Z</time>
      </trkpt>
      <trkpt lat="47.26228" lon="4.64457">
        <ele>384.18</ele>
        <time>2014-11-09T10:22:16Z</time>
      </trkpt>
      <trkpt lat="47.26232" lon="4.64462">
        <ele>384.66</ele>
        <time>2014-11-09T10:22:20Z</time>
      </trkpt>
      <trkpt lat="47.26232" lon="4.6447">
        <ele>384.66</ele>
        <time>2014-11-09T10:22:25Z</time>
      </trkpt>
      <trkpt lat="47.26229" lon="4.64474">
        <ele>384.66</ele>
        <time>2014-11-09T10:22:28Z</time>
      </trkpt>
      <trkpt lat="47.26214" lon="4.64484">
        <ele>384.18</ele>
        <time>2014-11-09T10:22:42Z</time>
      </trkpt>
      <trkpt lat="47.26211" lon="4.64487">
        <ele>384.18</ele>
        <time>2014-11-09T10:22:45Z</time>
      </trkpt>
      <trkpt lat="47.26205" lon="4.64489">
        <ele>384.18</ele>
        <time>2014-11-09T10:22:50Z</time>
      </trkpt>
      <trkpt lat="47.26198" lon="4.64492">
        <ele>384.18</ele>
        <time>2014-11-09T10:22:57Z</time>
      </trkpt>
      <trkpt lat="47.26187" lon="4.64505">
        <ele>384.18</ele>
        <time>2014-11-09T10:23:09Z</time>
      </trkpt>
      <trkpt lat="47.26168" lon="4.64515">
        <ele>384.18</ele>
        <time>2014-11-09T10:23:27Z</time>
      </trkpt>
      <trkpt lat="47.2615" lon="4.64526">
        <ele>383.7</ele>
        <time>2014-11-09T10:23:42Z</time>
      </trkpt>
      <trkpt lat="47.26135" lon="4.64537">
        <ele>383.7</ele>
        <time>2014-11-09T10:23:57Z</time>
      </trkpt>
      <trkpt lat="47.26121" lon="4.64546">
        <ele>383.7</ele>
        <time>2014-11-09T10:24:09Z</time>
      </trkpt>
      <trkpt lat="47.26119" lon="4.64548">
        <ele>383.22</ele>
        <time>2014-11-09T10:24:12Z</time>
      </trkpt>
      <trkpt lat="47.26109" lon="4.64554">
        <ele>383.22</ele>
        <time>2014-11-09T10:24:20Z</time>
      </trkpt>
      <trkpt lat="47.26089" lon="4.64566">
        <ele>382.26</ele>
        <time>2014-11-09T10:24:39Z</time>
      </trkpt>
      <trkpt lat="47.2607" lon="4.64576">
        <ele>381.3</ele>
        <time>2014-11-09T10:24:55Z</time>
      </trkpt>
      <trkpt lat="47.26048" lon="4.64587">
        <ele>380.82</ele>
        <time>2014-11-09T10:25:13Z</time>
      </trkpt>
      <trkpt lat="47.26032" lon="4.64594">
        <ele>380.34</ele>
        <time>2014-11-09T10:25:26Z</time>
      </trkpt>
      <trkpt lat="47.26016" lon="4.64601">
        <ele>380.34</ele>
        <time>2014-11-09T10:25:40Z</time>
      </trkpt>
      <trkpt lat="47.25999" lon="4.64612">
        <ele>379.38</ele>
        <time>2014-11-09T10:25:56Z</time>
      </trkpt>
      <trkpt lat="47.25986" lon="4.64622">
        <ele>379.38</ele>
        <time>2014-11-09T10:26:09Z</time>
      </trkpt>
      <trkpt lat="47.25985" lon="4.64622">
        <ele>379.38</ele>
        <time>2014-11-09T10:26:10Z</time>
      </trkpt>
      <trkpt lat="47.25971" lon="4.64635">
        <ele>378.9</ele>
        <time>2014-11-09T10:26:25Z</time>
      </trkpt>
      <trkpt lat="47.25968" lon="4.64638">
        <ele>378.9</ele>
        <time>2014-11-09T10:26:29Z</time>
      </trkpt>
      <trkpt lat="47.2595" lon="4.64653">
        <ele>378.42</ele>
        <time>2014-11-09T10:26:47Z</time>
      </trkpt>
      <trkpt lat="47.25937" lon="4.64666">
        <ele>377.94</ele>
        <time>2014-11-09T10:27:00Z</time>
      </trkpt>
      <trkpt lat="47.25931" lon="4.64672">
        <ele>377.94</ele>
        <time>2014-11-09T10:27:06Z</time>
      </trkpt>
      <trkpt lat="47.2592" lon="4.64684">
        <ele>377.94</ele>
        <time>2014-11-09T10:27:18Z</time>
      </trkpt>
      <trkpt lat="47.25905" lon="4.64686">
        <ele>377.94</ele>
        <time>2014-11-09T10:27:30Z</time>
      </trkpt>
      <trkpt lat="47.25889" lon="4.64679">
        <ele>377.94</ele>
        <time>2014-11-09T10:27:44Z</time>
      </trkpt>
      <trkpt lat="47.25877" lon="4.64668">
        <ele>377.94</ele>
        <time>2014-11-09T10:27:58Z</time>
      </trkpt>
      <trkpt lat="47.25873" lon="4.64666">
        <ele>377.94</ele>
        <time>2014-11-09T10:28:02Z</time>
      </trkpt>
      <trkpt lat="47.25856" lon="4.64657">
        <ele>378.42</ele>
        <time>2014-11-09T10:28:20Z</time>
      </trkpt>
      <trkpt lat="47.25845" lon="4.64652">
        <ele>378.42</ele>
        <time>2014-11-09T10:28:31Z</time>
      </trkpt>
      <trkpt lat="47.25836" lon="4.64647">
        <ele>378.42</ele>
        <time>2014-11-09T10:28:40Z</time>
      </trkpt>
      <trkpt lat="47.2583" lon="4.64637">
        <ele>378.42</ele>
        <time>2014-11-09T10:28:50Z</time>
      </trkpt>
      <trkpt lat="47.25827" lon="4.64632">
        <ele>378.42</ele>
        <time>2014-11-09T10:28:59Z</time>
      </trkpt>
      <trkpt lat="47.25809" lon="4.64629">
        <ele>377.94</ele>
        <time>2014-11-09T10:29:13Z</time>
      </trkpt>
      <trkpt lat="47.25802" lon="4.64625">
        <ele>377.45</ele>
        <time>2014-11-09T10:29:19Z</time>
      </trkpt>
      <trkpt lat="47.25795" lon="4.6462">
        <ele>377.94</ele>
        <time>2014-11-09T10:29:35Z</time>
      </trkpt>
      <trkpt lat="47.25794" lon="4.64611">
        <ele>377.45</ele>
        <time>2014-11-09T10:29:41Z</time>
      </trkpt>
      <trkpt lat="47.25788" lon="4.64602">
        <ele>377.45</ele>
        <time>2014-11-09T10:29:57Z</time>
      </trkpt>
      <trkpt lat="47.25795" lon="4.64614">
        <ele>377.45</ele>
        <time>2014-11-09T10:30:07Z</time>
      </trkpt>
      <trkpt lat="47.25789" lon="4.64627">
        <ele>377.45</ele>
        <time>2014-11-09T10:30:18Z</time>
      </trkpt>
      <trkpt lat="47.25781" lon="4.64635">
        <ele>377.94</ele>
        <time>2014-11-09T10:30:27Z</time>
      </trkpt>
      <trkpt lat="47.25766" lon="4.6465">
        <ele>377.45</ele>
        <time>2014-11-09T10:30:41Z</time>
      </trkpt>
      <trkpt lat="47.25761" lon="4.64655">
        <ele>377.45</ele>
        <time>2014-11-09T10:30:47Z</time>
      </trkpt>
      <trkpt lat="47.25744" lon="4.64665">
        <ele>376.97</ele>
        <time>2014-11-09T10:31:01Z</time>
      </trkpt>
      <trkpt lat="47.25732" lon="4.64673">
        <ele>376.97</ele>
        <time>2014-11-09T10:31:13Z</time>
      </trkpt>
      <trkpt lat="47.25721" lon="4.64679">
        <ele>376.49</ele>
        <time>2014-11-09T10:31:26Z</time>
      </trkpt>
      <trkpt lat="47.2572" lon="4.64681">
        <ele>376.49</ele>
        <time>2014-11-09T10:31:29Z</time>
      </trkpt>
      <trkpt lat="47.25709" lon="4.64685">
        <ele>376.49</ele>
        <time>2014-11-09T10:31:43Z</time>
      </trkpt>
      <trkpt lat="47.2571" lon="4.64684">
        <ele>376.97</ele>
        <time>2014-11-09T10:31:50Z</time>
      </trkpt>
      <trkpt lat="47.25707" lon="4.64688">
        <ele>376.49</ele>
        <time>2014-11-09T10:31:54Z</time>
      </trkpt>
      <trkpt lat="47.25699" lon="4.64696">
        <ele>376.49</ele>
        <time>2014-11-09T10:32:02Z</time>
      </trkpt>
      <trkpt lat="47.25691" lon="4.64704">
        <ele>376.49</ele>
        <time>2014-11-09T10:32:13Z</time>
      </trkpt>
      <trkpt lat="47.25679" lon="4.64729">
        <ele>376.49</ele>
        <time>2014-11-09T10:32:28Z</time>
      </trkpt>
      <trkpt lat="47.2567" lon="4.64748">
        <ele>376.49</ele>
        <time>2014-11-09T10:32:40Z</time>
      </trkpt>
      <trkpt lat="47.25669" lon="4.64751">
        <ele>376.49</ele>
        <time>2014-11-09T10:32:42Z</time>
      </trkpt>
      <trkpt lat="47.25665" lon="4.64786">
        <ele>376.49</ele>
        <time>2014-11-09T10:33:02Z</time>
      </trkpt>
      <trkpt lat="47.25665" lon="4.64792">
        <ele>376.97</ele>
        <time>2014-11-09T10:33:05Z</time>
      </trkpt>
      <trkpt lat="47.25668" lon="4.64818">
        <ele>376.01</ele>
        <time>2014-11-09T10:33:21Z</time>
      </trkpt>
      <trkpt lat="47.25668" lon="4.64826">
        <ele>375.05</ele>
        <time>2014-11-09T10:33:26Z</time>
      </trkpt>
      <trkpt lat="47.25666" lon="4.64839">
        <ele>374.57</ele>
        <time>2014-11-09T10:33:35Z</time>
      </trkpt>
      <trkpt lat="47.2566" lon="4.64845">
        <ele>374.09</ele>
        <time>2014-11-09T10:33:51Z</time>
      </trkpt>
      <trkpt lat="47.25652" lon="4.6486">
        <ele>373.13</ele>
        <time>2014-11-09T10:34:01Z</time>
      </trkpt>
      <trkpt lat="47.25646" lon="4.64868">
        <ele>372.65</ele>
        <time>2014-11-09T10:34:14Z</time>
      </trkpt>
      <trkpt lat="47.25642" lon="4.6486">
        <ele>372.65</ele>
        <time>2014-11-09T10:34:34Z</time>
      </trkpt>
      <trkpt lat="47.25653" lon="4.6486">
        <ele>373.13</ele>
        <time>2014-11-09T10:34:49Z</time>
      </trkpt>
      <trkpt lat="47.2566" lon="4.64867">
        <ele>373.13</ele>
        <time>2014-11-09T10:34:56Z</time>
      </trkpt>
      <trkpt lat="47.25675" lon="4.64875">
        <ele>373.13</ele>
        <time>2014-11-09T10:35:10Z</time>
      </trkpt>
      <trkpt lat="47.25684" lon="4.64887">
        <ele>372.17</ele>
        <time>2014-11-09T10:35:22Z</time>
      </trkpt>
      <trkpt lat="47.25684" lon="4.64889">
        <ele>372.17</ele>
        <time>2014-11-09T10:35:24Z</time>
      </trkpt>
      <trkpt lat="47.25677" lon="4.6491">
        <ele>372.17</ele>
        <time>2014-11-09T10:35:38Z</time>
      </trkpt>
      <trkpt lat="47.25671" lon="4.64923">
        <ele>372.17</ele>
        <time>2014-11-09T10:35:52Z</time>
      </trkpt>
      <trkpt lat="47.25669" lon="4.64932">
        <ele>372.17</ele>
        <time>2014-11-09T10:36:00Z</time>
      </trkpt>
      <trkpt lat="47.2567" lon="4.64936">
        <ele>371.69</ele>
        <time>2014-11-09T10:36:03Z</time>
      </trkpt>
      <trkpt lat="47.25666" lon="4.64949">
        <ele>371.69</ele>
        <time>2014-11-09T10:36:14Z</time>
      </trkpt>
      <trkpt lat="47.25655" lon="4.64967">
        <ele>371.69</ele>
        <time>2014-11-09T10:36:28Z</time>
      </trkpt>
      <trkpt lat="47.25645" lon="4.64986">
        <ele>371.21</ele>
        <time>2014-11-09T10:36:42Z</time>
      </trkpt>
      <trkpt lat="47.25638" lon="4.64991">
        <ele>371.69</ele>
        <time>2014-11-09T10:36:56Z</time>
      </trkpt>
      <trkpt lat="47.25636" lon="4.64995">
        <ele>371.69</ele>
        <time>2014-11-09T10:37:07Z</time>
      </trkpt>
      <trkpt lat="47.25631" lon="4.65008">
        <ele>371.69</ele>
        <time>2014-11-09T10:37:16Z</time>
      </trkpt>
      <trkpt lat="47.25622" lon="4.65011">
        <ele>371.69</ele>
        <time>2014-11-09T10:37:31Z</time>
      </trkpt>
      <trkpt lat="47.25622" lon="4.65012">
        <ele>371.69</ele>
        <time>2014-11-09T10:37:47Z</time>
      </trkpt>
      <trkpt lat="47.25631" lon="4.65004">
        <ele>371.69</ele>
        <time>2014-11-09T10:37:57Z</time>
      </trkpt>
      <trkpt lat="47.25634" lon="4.65003">
        <ele>371.69</ele>
        <time>2014-11-09T10:38:05Z</time>
      </trkpt>
      <trkpt lat="47.2563" lon="4.65007">
        <ele>372.17</ele>
        <time>2014-11-09T10:38:08Z</time>
      </trkpt>
      <trkpt lat="47.25622" lon="4.65018">
        <ele>371.69</ele>
        <time>2014-11-09T10:38:22Z</time>
      </trkpt>
      <trkpt lat="47.2562" lon="4.65026">
        <ele>372.17</ele>
        <time>2014-11-09T10:38:35Z</time>
      </trkpt>
      <trkpt lat="47.25622" lon="4.6502">
        <ele>371.69</ele>
        <time>2014-11-09T10:38:58Z</time>
      </trkpt>
      <trkpt lat="47.25621" lon="4.65021">
        <ele>372.17</ele>
        <time>2014-11-09T10:39:13Z</time>
      </trkpt>
      <trkpt lat="47.25622" lon="4.6502">
        <ele>371.69</ele>
        <time>2014-11-09T10:39:15Z</time>
      </trkpt>
      <trkpt lat="47.25626" lon="4.65012">
        <ele>372.17</ele>
        <time>2014-11-09T10:39:29Z</time>
      </trkpt>
      <trkpt lat="47.25635" lon="4.64998">
        <ele>371.69</ele>
        <time>2014-11-09T10:39:42Z</time>
      </trkpt>
      <trkpt lat="47.25648" lon="4.64973">
        <ele>372.17</ele>
        <time>2014-11-09T10:40:00Z</time>
      </trkpt>
      <trkpt lat="47.25658" lon="4.64952">
        <ele>372.17</ele>
        <time>2014-11-09T10:40:16Z</time>
      </trkpt>
      <trkpt lat="47.25664" lon="4.64941">
        <ele>371.69</ele>
        <time>2014-11-09T10:40:23Z</time>
      </trkpt>
      <trkpt lat="47.25674" lon="4.64921">
        <ele>372.17</ele>
        <time>2014-11-09T10:40:37Z</time>
      </trkpt>
      <trkpt lat="47.25675" lon="4.6492">
        <ele>372.17</ele>
        <time>2014-11-09T10:40:38Z</time>
      </trkpt>
      <trkpt lat="47.25677" lon="4.64918">
        <ele>372.17</ele>
        <time>2014-11-09T10:40:40Z</time>
      </trkpt>
      <trkpt lat="47.25687" lon="4.64898">
        <ele>372.65</ele>
        <time>2014-11-09T10:40:54Z</time>
      </trkpt>
      <trkpt lat="47.25696" lon="4.64887">
        <ele>372.65</ele>
        <time>2014-11-09T10:41:07Z</time>
      </trkpt>
      <trkpt lat="47.25702" lon="4.64888">
        <ele>372.65</ele>
        <time>2014-11-09T10:41:23Z</time>
      </trkpt>
      <trkpt lat="47.25702" lon="4.64881">
        <ele>372.65</ele>
        <time>2014-11-09T10:41:37Z</time>
      </trkpt>
      <trkpt lat="47.25698" lon="4.64874">
        <ele>372.65</ele>
        <time>2014-11-09T10:41:49Z</time>
      </trkpt>
      <trkpt lat="47.25698" lon="4.64872">
        <ele>372.65</ele>
        <time>2014-11-09T10:41:50Z</time>
      </trkpt>
      <trkpt lat="47.25696" lon="4.6487">
        <ele>372.65</ele>
        <time>2014-11-09T10:41:53Z</time>
      </trkpt>
      <trkpt lat="47.25688" lon="4.64862">
        <ele>373.13</ele>
        <time>2014-11-09T10:42:10Z</time>
      </trkpt>
      <trkpt lat="47.25687" lon="4.6486">
        <ele>373.13</ele>
        <time>2014-11-09T10:42:11Z</time>
      </trkpt>
      <trkpt lat="47.25684" lon="4.64858">
        <ele>373.61</ele>
        <time>2014-11-09T10:42:14Z</time>
      </trkpt>
      <trkpt lat="47.25683" lon="4.64857">
        <ele>373.61</ele>
        <time>2014-11-09T10:42:16Z</time>
      </trkpt>
      <trkpt lat="47.25679" lon="4.64849">
        <ele>374.09</ele>
        <time>2014-11-09T10:42:22Z</time>
      </trkpt>
      <trkpt lat="47.25685" lon="4.64837">
        <ele>375.53</ele>
        <time>2014-11-09T10:42:37Z</time>
      </trkpt>
      <trkpt lat="47.25692" lon="4.64835">
        <ele>376.01</ele>
        <time>2014-11-09T10:42:52Z</time>
      </trkpt>
      <trkpt lat="47.25702" lon="4.64829">
        <ele>376.49</ele>
        <time>2014-11-09T10:43:04Z</time>
      </trkpt>
      <trkpt lat="47.25708" lon="4.64825">
        <ele>376.97</ele>
        <time>2014-11-09T10:43:13Z</time>
      </trkpt>
      <trkpt lat="47.2572" lon="4.64818">
        <ele>377.45</ele>
        <time>2014-11-09T10:43:24Z</time>
      </trkpt>
      <trkpt lat="47.25736" lon="4.64794">
        <ele>377.94</ele>
        <time>2014-11-09T10:43:40Z</time>
      </trkpt>
      <trkpt lat="47.25739" lon="4.64791">
        <ele>377.94</ele>
        <time>2014-11-09T10:43:43Z</time>
      </trkpt>
      <trkpt lat="47.2574" lon="4.64788">
        <ele>377.94</ele>
        <time>2014-11-09T10:43:45Z</time>
      </trkpt>
      <trkpt lat="47.25754" lon="4.64772">
        <ele>377.94</ele>
        <time>2014-11-09T10:44:02Z</time>
      </trkpt>
      <trkpt lat="47.25764" lon="4.64768">
        <ele>378.42</ele>
        <time>2014-11-09T10:44:13Z</time>
      </trkpt>
      <trkpt lat="47.25766" lon="4.64745">
        <ele>378.42</ele>
        <time>2014-11-09T10:44:26Z</time>
      </trkpt>
      <trkpt lat="47.25767" lon="4.64736">
        <ele>378.42</ele>
        <time>2014-11-09T10:44:31Z</time>
      </trkpt>
      <trkpt lat="47.25769" lon="4.64714">
        <ele>378.42</ele>
        <time>2014-11-09T10:44:47Z</time>
      </trkpt>
      <trkpt lat="47.25772" lon="4.64716">
        <ele>378.42</ele>
        <time>2014-11-09T10:44:50Z</time>
      </trkpt>
      <trkpt lat="47.2578" lon="4.64724">
        <ele>378.42</ele>
        <time>2014-11-09T10:45:04Z</time>
      </trkpt>
      <trkpt lat="47.25779" lon="4.6472">
        <ele>378.42</ele>
        <time>2014-11-09T10:45:10Z</time>
      </trkpt>
      <trkpt lat="47.25774" lon="4.64715">
        <ele>378.42</ele>
        <time>2014-11-09T10:45:15Z</time>
      </trkpt>
      <trkpt lat="47.25771" lon="4.6471">
        <ele>378.42</ele>
        <time>2014-11-09T10:45:21Z</time>
      </trkpt>
      <trkpt lat="47.25775" lon="4.64701">
        <ele>378.42</ele>
        <time>2014-11-09T10:45:27Z</time>
      </trkpt>
      <trkpt lat="47.25778" lon="4.64691">
        <ele>378.9</ele>
        <time>2014-11-09T10:45:39Z</time>
      </trkpt>
      <trkpt lat="47.25773" lon="4.647">
        <ele>378.42</ele>
        <time>2014-11-09T10:45:54Z</time>
      </trkpt>
      <trkpt lat="47.25774" lon="4.64696">
        <ele>378.42</ele>
        <time>2014-11-09T10:46:10Z</time>
      </trkpt>
      <trkpt lat="47.25778" lon="4.64689">
        <ele>378.42</ele>
        <time>2014-11-09T10:46:14Z</time>
      </trkpt>
      <trkpt lat="47.25784" lon="4.64678">
        <ele>378.42</ele>
        <time>2014-11-09T10:46:22Z</time>
      </trkpt>
      <trkpt lat="47.25786" lon="4.64673">
        <ele>378.42</ele>
        <time>2014-11-09T10:46:26Z</time>
      </trkpt>
      <trkpt lat="47.25799" lon="4.6467">
        <ele>378.42</ele>
        <time>2014-11-09T10:46:43Z</time>
      </trkpt>
      <trkpt lat="47.258" lon="4.6467">
        <ele>378.42</ele>
        <time>2014-11-09T10:46:48Z</time>
      </trkpt>
      <trkpt lat="47.25789" lon="4.64652">
        <ele>377.94</ele>
        <time>2014-11-09T10:47:03Z</time>
      </trkpt>
      <trkpt lat="47.25787" lon="4.64648">
        <ele>378.42</ele>
        <time>2014-11-09T10:47:06Z</time>
      </trkpt>
      <trkpt lat="47.25786" lon="4.64642">
        <ele>377.94</ele>
        <time>2014-11-09T10:47:09Z</time>
      </trkpt>
      <trkpt lat="47.25789" lon="4.64638">
        <ele>377.94</ele>
        <time>2014-11-09T10:47:13Z</time>
      </trkpt>
      <trkpt lat="47.25807" lon="4.64631">
        <ele>378.42</ele>
        <time>2014-11-09T10:47:30Z</time>
      </trkpt>
      <trkpt lat="47.25812" lon="4.64633">
        <ele>378.42</ele>
        <time>2014-11-09T10:47:35Z</time>
      </trkpt>
      <trkpt lat="47.25819" lon="4.6464">
        <ele>378.42</ele>
        <time>2014-11-09T10:47:44Z</time>
      </trkpt>
      <trkpt lat="47.25831" lon="4.64646">
        <ele>378.9</ele>
        <time>2014-11-09T10:47:57Z</time>
      </trkpt>
      <trkpt lat="47.25834" lon="4.64648">
        <ele>378.9</ele>
        <time>2014-11-09T10:48:01Z</time>
      </trkpt>
      <trkpt lat="47.25839" lon="4.6465">
        <ele>378.9</ele>
        <time>2014-11-09T10:48:05Z</time>
      </trkpt>
      <trkpt lat="47.25852" lon="4.64655">
        <ele>378.9</ele>
        <time>2014-11-09T10:48:18Z</time>
      </trkpt>
      <trkpt lat="47.25879" lon="4.64671">
        <ele>378.42</ele>
        <time>2014-11-09T10:48:35Z</time>
      </trkpt>
      <trkpt lat="47.25894" lon="4.64683">
        <ele>378.42</ele>
        <time>2014-11-09T10:48:49Z</time>
      </trkpt>
      <trkpt lat="47.25905" lon="4.64683">
        <ele>378.9</ele>
        <time>2014-11-09T10:49:00Z</time>
      </trkpt>
      <trkpt lat="47.25921" lon="4.64674">
        <ele>378.42</ele>
        <time>2014-11-09T10:49:14Z</time>
      </trkpt>
      <trkpt lat="47.25922" lon="4.64672">
        <ele>378.42</ele>
        <time>2014-11-09T10:49:15Z</time>
      </trkpt>
      <trkpt lat="47.25937" lon="4.64661">
        <ele>378.9</ele>
        <time>2014-11-09T10:49:30Z</time>
      </trkpt>
      <trkpt lat="47.25949" lon="4.64649">
        <ele>379.38</ele>
        <time>2014-11-09T10:49:43Z</time>
      </trkpt>
      <trkpt lat="47.25957" lon="4.64643">
        <ele>379.86</ele>
        <time>2014-11-09T10:49:51Z</time>
      </trkpt>
      <trkpt lat="47.25971" lon="4.64631">
        <ele>380.34</ele>
        <time>2014-11-09T10:50:04Z</time>
      </trkpt>
      <trkpt lat="47.25976" lon="4.64628">
        <ele>380.34</ele>
        <time>2014-11-09T10:50:09Z</time>
      </trkpt>
      <trkpt lat="47.2598" lon="4.64622">
        <ele>380.34</ele>
        <time>2014-11-09T10:50:14Z</time>
      </trkpt>
      <trkpt lat="47.25989" lon="4.64616">
        <ele>380.34</ele>
        <time>2014-11-09T10:50:22Z</time>
      </trkpt>
      <trkpt lat="47.26003" lon="4.64606">
        <ele>380.82</ele>
        <time>2014-11-09T10:50:37Z</time>
      </trkpt>
      <trkpt lat="47.26018" lon="4.64597">
        <ele>381.3</ele>
        <time>2014-11-09T10:50:52Z</time>
      </trkpt>
      <trkpt lat="47.26021" lon="4.64596">
        <ele>381.78</ele>
        <time>2014-11-09T10:50:55Z</time>
      </trkpt>
      <trkpt lat="47.26038" lon="4.64588">
        <ele>381.78</ele>
        <time>2014-11-09T10:51:10Z</time>
      </trkpt>
      <trkpt lat="47.26054" lon="4.64581">
        <ele>382.26</ele>
        <time>2014-11-09T10:51:24Z</time>
      </trkpt>
      <trkpt lat="47.26058" lon="4.6458">
        <ele>382.74</ele>
        <time>2014-11-09T10:51:29Z</time>
      </trkpt>
      <trkpt lat="47.26072" lon="4.64573">
        <ele>382.74</ele>
        <time>2014-11-09T10:51:42Z</time>
      </trkpt>
      <trkpt lat="47.2608" lon="4.64567">
        <ele>383.22</ele>
        <time>2014-11-09T10:51:50Z</time>
      </trkpt>
      <trkpt lat="47.26085" lon="4.64565">
        <ele>383.22</ele>
        <time>2014-11-09T10:51:55Z</time>
      </trkpt>
      <trkpt lat="47.26101" lon="4.64555">
        <ele>383.7</ele>
        <time>2014-11-09T10:52:09Z</time>
      </trkpt>
      <trkpt lat="47.26118" lon="4.64545">
        <ele>384.18</ele>
        <time>2014-11-09T10:52:25Z</time>
      </trkpt>
      <trkpt lat="47.26134" lon="4.64537">
        <ele>384.66</ele>
        <time>2014-11-09T10:52:40Z</time>
      </trkpt>
      <trkpt lat="47.26153" lon="4.64523">
        <ele>384.66</ele>
        <time>2014-11-09T10:52:58Z</time>
      </trkpt>
      <trkpt lat="47.2617" lon="4.64512">
        <ele>384.66</ele>
        <time>2014-11-09T10:53:13Z</time>
      </trkpt>
      <trkpt lat="47.26183" lon="4.64502">
        <ele>384.66</ele>
        <time>2014-11-09T10:53:26Z</time>
      </trkpt>
      <trkpt lat="47.26198" lon="4.64493">
        <ele>384.66</ele>
        <time>2014-11-09T10:53:39Z</time>
      </trkpt>
      <trkpt lat="47.26208" lon="4.64484">
        <ele>384.66</ele>
        <time>2014-11-09T10:53:50Z</time>
      </trkpt>
      <trkpt lat="47.26212" lon="4.64481">
        <ele>384.66</ele>
        <time>2014-11-09T10:53:53Z</time>
      </trkpt>
      <trkpt lat="47.26227" lon="4.6447">
        <ele>384.66</ele>
        <time>2014-11-09T10:54:08Z</time>
      </trkpt>
      <trkpt lat="47.26236" lon="4.64468">
        <ele>384.66</ele>
        <time>2014-11-09T10:54:16Z</time>
      </trkpt>
      <trkpt lat="47.26248" lon="4.64483">
        <ele>384.18</ele>
        <time>2014-11-09T10:54:32Z</time>
      </trkpt>
      <trkpt lat="47.26261" lon="4.64497">
        <ele>384.18</ele>
        <time>2014-11-09T10:54:47Z</time>
      </trkpt>
      <trkpt lat="47.26274" lon="4.64511">
        <ele>383.7</ele>
        <time>2014-11-09T10:55:01Z</time>
      </trkpt>
      <trkpt lat="47.26288" lon="4.64526">
        <ele>383.22</ele>
        <time>2014-11-09T10:55:16Z</time>
      </trkpt>
      <trkpt lat="47.26289" lon="4.64526">
        <ele>383.22</ele>
        <time>2014-11-09T10:55:17Z</time>
      </trkpt>
      <trkpt lat="47.26295" lon="4.64533">
        <ele>382.74</ele>
        <time>2014-11-09T10:55:24Z</time>
      </trkpt>
      <trkpt lat="47.26312" lon="4.64547">
        <ele>381.78</ele>
        <time>2014-11-09T10:55:40Z</time>
      </trkpt>
      <trkpt lat="47.26324" lon="4.64562">
        <ele>381.78</ele>
        <time>2014-11-09T10:55:54Z</time>
      </trkpt>
      <trkpt lat="47.26337" lon="4.64579">
        <ele>381.78</ele>
        <time>2014-11-09T10:56:10Z</time>
      </trkpt>
      <trkpt lat="47.2635" lon="4.64594">
        <ele>381.78</ele>
        <time>2014-11-09T10:56:26Z</time>
      </trkpt>
      <trkpt lat="47.26365" lon="4.6461">
        <ele>381.3</ele>
        <time>2014-11-09T10:56:42Z</time>
      </trkpt>
      <trkpt lat="47.26377" lon="4.64624">
        <ele>381.78</ele>
        <time>2014-11-09T10:56:55Z</time>
      </trkpt>
      <trkpt lat="47.26389" lon="4.64639">
        <ele>381.3</ele>
        <time>2014-11-09T10:57:10Z</time>
      </trkpt>
      <trkpt lat="47.26402" lon="4.64656">
        <ele>381.78</ele>
        <time>2014-11-09T10:57:25Z</time>
      </trkpt>
      <trkpt lat="47.26408" lon="4.64664">
        <ele>381.3</ele>
        <time>2014-11-09T10:57:32Z</time>
      </trkpt>
      <trkpt lat="47.26411" lon="4.6467">
        <ele>381.78</ele>
        <time>2014-11-09T10:57:38Z</time>
      </trkpt>
      <trkpt lat="47.26412" lon="4.64672">
        <ele>381.3</ele>
        <time>2014-11-09T10:57:40Z</time>
      </trkpt>
      <trkpt lat="47.26422" lon="4.64691">
        <ele>381.78</ele>
        <time>2014-11-09T10:57:55Z</time>
      </trkpt>
      <trkpt lat="47.26425" lon="4.64699">
        <ele>381.78</ele>
        <time>2014-11-09T10:58:01Z</time>
      </trkpt>
      <trkpt lat="47.26431" lon="4.64715">
        <ele>381.78</ele>
        <time>2014-11-09T10:58:11Z</time>
      </trkpt>
      <trkpt lat="47.26441" lon="4.64737">
        <ele>381.78</ele>
        <time>2014-11-09T10:58:27Z</time>
      </trkpt>
      <trkpt lat="47.26445" lon="4.64745">
        <ele>381.78</ele>
        <time>2014-11-09T10:58:33Z</time>
      </trkpt>
      <trkpt lat="47.26447" lon="4.64756">
        <ele>381.78</ele>
        <time>2014-11-09T10:58:41Z</time>
      </trkpt>
      <trkpt lat="47.26448" lon="4.64766">
        <ele>381.78</ele>
        <time>2014-11-09T10:58:47Z</time>
      </trkpt>
      <trkpt lat="47.26454" lon="4.64791">
        <ele>381.3</ele>
        <time>2014-11-09T10:59:02Z</time>
      </trkpt>
      <trkpt lat="47.26455" lon="4.64796">
        <ele>381.3</ele>
        <time>2014-11-09T10:59:05Z</time>
      </trkpt>
      <trkpt lat="47.26468" lon="4.6484">
        <ele>386.59</ele>
        <time>2014-11-09T10:59:42Z</time>
      </trkpt>
      <trkpt lat="47.26472" lon="4.64865">
        <ele>382.26</ele>
        <time>2014-11-09T10:59:58Z</time>
      </trkpt>
      <trkpt lat="47.26471" lon="4.64867">
        <ele>382.26</ele>
        <time>2014-11-09T11:00:04Z</time>
      </trkpt>
      <trkpt lat="47.2647" lon="4.64872">
        <ele>381.78</ele>
        <time>2014-11-09T11:00:07Z</time>
      </trkpt>
      <trkpt lat="47.26464" lon="4.64882">
        <ele>382.26</ele>
        <time>2014-11-09T11:00:17Z</time>
      </trkpt>
      <trkpt lat="47.26467" lon="4.64894">
        <ele>382.74</ele>
        <time>2014-11-09T11:00:29Z</time>
      </trkpt>
      <trkpt lat="47.26478" lon="4.64914">
        <ele>382.74</ele>
        <time>2014-11-09T11:00:45Z</time>
      </trkpt>
      <trkpt lat="47.26486" lon="4.64921">
        <ele>382.74</ele>
        <time>2014-11-09T11:00:55Z</time>
      </trkpt>
      <trkpt lat="47.26489" lon="4.64922">
        <ele>382.74</ele>
        <time>2014-11-09T11:00:58Z</time>
      </trkpt>
      <trkpt lat="47.26496" lon="4.64943">
        <ele>382.74</ele>
        <time>2014-11-09T11:01:11Z</time>
      </trkpt>
      <trkpt lat="47.26499" lon="4.64962">
        <ele>382.74</ele>
        <time>2014-11-09T11:01:25Z</time>
      </trkpt>
      <trkpt lat="47.26498" lon="4.64968">
        <ele>381.78</ele>
        <time>2014-11-09T11:01:29Z</time>
      </trkpt>
      <trkpt lat="47.26496" lon="4.64977">
        <ele>382.26</ele>
        <time>2014-11-09T11:01:35Z</time>
      </trkpt>
      <trkpt lat="47.265" lon="4.64989">
        <ele>381.78</ele>
        <time>2014-11-09T11:01:42Z</time>
      </trkpt>
      <trkpt lat="47.26505" lon="4.65015">
        <ele>381.78</ele>
        <time>2014-11-09T11:01:57Z</time>
      </trkpt>
      <trkpt lat="47.26513" lon="4.65038">
        <ele>382.26</ele>
        <time>2014-11-09T11:02:13Z</time>
      </trkpt>
      <trkpt lat="47.26516" lon="4.65053">
        <ele>382.26</ele>
        <time>2014-11-09T11:02:22Z</time>
      </trkpt>
      <trkpt lat="47.26523" lon="4.65077">
        <ele>382.26</ele>
        <time>2014-11-09T11:02:38Z</time>
      </trkpt>
      <trkpt lat="47.26527" lon="4.65102">
        <ele>382.26</ele>
        <time>2014-11-09T11:02:52Z</time>
      </trkpt>
      <trkpt lat="47.26535" lon="4.65134">
        <ele>382.74</ele>
        <time>2014-11-09T11:03:11Z</time>
      </trkpt>
      <trkpt lat="47.26536" lon="4.65135">
        <ele>382.26</ele>
        <time>2014-11-09T11:03:12Z</time>
      </trkpt>
      <trkpt lat="47.2654" lon="4.65158">
        <ele>382.26</ele>
        <time>2014-11-09T11:03:26Z</time>
      </trkpt>
      <trkpt lat="47.26543" lon="4.65171">
        <ele>382.26</ele>
        <time>2014-11-09T11:03:34Z</time>
      </trkpt>
      <trkpt lat="47.26552" lon="4.65197">
        <ele>382.74</ele>
        <time>2014-11-09T11:03:51Z</time>
      </trkpt>
      <trkpt lat="47.26557" lon="4.65221">
        <ele>383.22</ele>
        <time>2014-11-09T11:04:06Z</time>
      </trkpt>
      <trkpt lat="47.26564" lon="4.65248">
        <ele>383.7</ele>
        <time>2014-11-09T11:04:23Z</time>
      </trkpt>
      <trkpt lat="47.26565" lon="4.65251">
        <ele>383.7</ele>
        <time>2014-11-09T11:04:25Z</time>
      </trkpt>
      <trkpt lat="47.26571" lon="4.65277">
        <ele>383.7</ele>
        <time>2014-11-09T11:04:41Z</time>
      </trkpt>
      <trkpt lat="47.26572" lon="4.6528">
        <ele>383.7</ele>
        <time>2014-11-09T11:04:43Z</time>
      </trkpt>
      <trkpt lat="47.26572" lon="4.65283">
        <ele>383.22</ele>
        <time>2014-11-09T11:04:45Z</time>
      </trkpt>
      <trkpt lat="47.26579" lon="4.65308">
        <ele>383.7</ele>
        <time>2014-11-09T11:05:00Z</time>
      </trkpt>
      <trkpt lat="47.2658" lon="4.65317">
        <ele>382.26</ele>
        <time>2014-11-09T11:05:04Z</time>
      </trkpt>
      <trkpt lat="47.26589" lon="4.65351">
        <ele>382.26</ele>
        <time>2014-11-09T11:05:25Z</time>
      </trkpt>
      <trkpt lat="47.26591" lon="4.65375">
        <ele>384.18</ele>
        <time>2014-11-09T11:05:40Z</time>
      </trkpt>
      <trkpt lat="47.26596" lon="4.654">
        <ele>384.18</ele>
        <time>2014-11-09T11:05:56Z</time>
      </trkpt>
      <trkpt lat="47.26602" lon="4.65425">
        <ele>384.18</ele>
        <time>2014-11-09T11:06:11Z</time>
      </trkpt>
      <trkpt lat="47.26609" lon="4.65451">
        <ele>384.66</ele>
        <time>2014-11-09T11:06:27Z</time>
      </trkpt>
      <trkpt lat="47.26611" lon="4.65459">
        <ele>384.66</ele>
        <time>2014-11-09T11:06:32Z</time>
      </trkpt>
      <trkpt lat="47.26612" lon="4.65466">
        <ele>384.66</ele>
        <time>2014-11-09T11:06:36Z</time>
      </trkpt>
      <trkpt lat="47.26609" lon="4.65481">
        <ele>384.66</ele>
        <time>2014-11-09T11:06:50Z</time>
      </trkpt>
      <trkpt lat="47.26599" lon="4.65497">
        <ele>385.15</ele>
        <time>2014-11-09T11:07:05Z</time>
      </trkpt>
      <trkpt lat="47.26594" lon="4.65509">
        <ele>385.15</ele>
        <time>2014-11-09T11:07:13Z</time>
      </trkpt>
      <trkpt lat="47.26585" lon="4.65529">
        <ele>385.15</ele>
        <time>2014-11-09T11:07:27Z</time>
      </trkpt>
      <trkpt lat="47.26576" lon="4.65549">
        <ele>385.15</ele>
        <time>2014-11-09T11:07:41Z</time>
      </trkpt>
      <trkpt lat="47.2657" lon="4.65561">
        <ele>385.15</ele>
        <time>2014-11-09T11:07:50Z</time>
      </trkpt>
      <trkpt lat="47.26567" lon="4.65566">
        <ele>384.66</ele>
        <time>2014-11-09T11:07:56Z</time>
      </trkpt>
      <trkpt lat="47.26566" lon="4.65569">
        <ele>385.15</ele>
        <time>2014-11-09T11:07:58Z</time>
      </trkpt>
      <trkpt lat="47.26568" lon="4.65574">
        <ele>385.15</ele>
        <time>2014-11-09T11:08:07Z</time>
      </trkpt>
      <trkpt lat="47.26565" lon="4.65577">
        <ele>385.15</ele>
        <time>2014-11-09T11:08:19Z</time>
      </trkpt>
      <trkpt lat="47.26557" lon="4.65603">
        <ele>385.15</ele>
        <time>2014-11-09T11:08:36Z</time>
      </trkpt>
      <trkpt lat="47.26556" lon="4.65608">
        <ele>385.15</ele>
        <time>2014-11-09T11:08:39Z</time>
      </trkpt>
      <trkpt lat="47.26556" lon="4.65611">
        <ele>385.15</ele>
        <time>2014-11-09T11:08:41Z</time>
      </trkpt>
      <trkpt lat="47.2655" lon="4.65633">
        <ele>385.15</ele>
        <time>2014-11-09T11:08:54Z</time>
      </trkpt>
      <trkpt lat="47.26548" lon="4.65648">
        <ele>385.63</ele>
        <time>2014-11-09T11:09:07Z</time>
      </trkpt>
      <trkpt lat="47.26545" lon="4.65661">
        <ele>385.15</ele>
        <time>2014-11-09T11:09:20Z</time>
      </trkpt>
      <trkpt lat="47.26542" lon="4.65676">
        <ele>386.11</ele>
        <time>2014-11-09T11:09:29Z</time>
      </trkpt>
      <trkpt lat="47.2654" lon="4.657">
        <ele>386.11</ele>
        <time>2014-11-09T11:09:44Z</time>
      </trkpt>
      <trkpt lat="47.2654" lon="4.65702">
        <ele>386.11</ele>
        <time>2014-11-09T11:09:45Z</time>
      </trkpt>
      <trkpt lat="47.26541" lon="4.65716">
        <ele>385.63</ele>
        <time>2014-11-09T11:09:59Z</time>
      </trkpt>
      <trkpt lat="47.26541" lon="4.65715">
        <ele>385.63</ele>
        <time>2014-11-09T11:10:10Z</time>
      </trkpt>
      <trkpt lat="47.26538" lon="4.65716">
        <ele>385.63</ele>
        <time>2014-11-09T11:10:26Z</time>
      </trkpt>
      <trkpt lat="47.26538" lon="4.65718">
        <ele>385.63</ele>
        <time>2014-11-09T11:10:39Z</time>
      </trkpt>
      <trkpt lat="47.2654" lon="4.65724">
        <ele>385.15</ele>
        <time>2014-11-09T11:10:45Z</time>
      </trkpt>
      <trkpt lat="47.2654" lon="4.65728">
        <ele>385.15</ele>
        <time>2014-11-09T11:10:48Z</time>
      </trkpt>
      <trkpt lat="47.2654" lon="4.65749">
        <ele>386.11</ele>
        <time>2014-11-09T11:11:01Z</time>
      </trkpt>
      <trkpt lat="47.26539" lon="4.65751">
        <ele>385.63</ele>
        <time>2014-11-09T11:11:02Z</time>
      </trkpt>
      <trkpt lat="47.26539" lon="4.65761">
        <ele>386.11</ele>
        <time>2014-11-09T11:11:08Z</time>
      </trkpt>
      <trkpt lat="47.2654" lon="4.6578">
        <ele>385.63</ele>
        <time>2014-11-09T11:11:21Z</time>
      </trkpt>
      <trkpt lat="47.26543" lon="4.65801">
        <ele>385.63</ele>
        <time>2014-11-09T11:11:33Z</time>
      </trkpt>
      <trkpt lat="47.26543" lon="4.65807">
        <ele>385.63</ele>
        <time>2014-11-09T11:11:36Z</time>
      </trkpt>
      <trkpt lat="47.26547" lon="4.65831">
        <ele>386.11</ele>
        <time>2014-11-09T11:11:50Z</time>
      </trkpt>
      <trkpt lat="47.2655" lon="4.65853">
        <ele>385.63</ele>
        <time>2014-11-09T11:12:04Z</time>
      </trkpt>
      <trkpt lat="47.26558" lon="4.65877">
        <ele>385.63</ele>
        <time>2014-11-09T11:12:18Z</time>
      </trkpt>
      <trkpt lat="47.2656" lon="4.65883">
        <ele>385.63</ele>
        <time>2014-11-09T11:12:22Z</time>
      </trkpt>
      <trkpt lat="47.26566" lon="4.65904">
        <ele>385.63</ele>
        <time>2014-11-09T11:12:36Z</time>
      </trkpt>
      <trkpt lat="47.26572" lon="4.65925">
        <ele>385.63</ele>
        <time>2014-11-09T11:12:49Z</time>
      </trkpt>
      <trkpt lat="47.26577" lon="4.65941">
        <ele>385.63</ele>
        <time>2014-11-09T11:13:02Z</time>
      </trkpt>
      <trkpt lat="47.26581" lon="4.65945">
        <ele>385.63</ele>
        <time>2014-11-09T11:13:07Z</time>
      </trkpt>
      <trkpt lat="47.26583" lon="4.65951">
        <ele>385.63</ele>
        <time>2014-11-09T11:13:11Z</time>
      </trkpt>
      <trkpt lat="47.26588" lon="4.65961">
        <ele>385.63</ele>
        <time>2014-11-09T11:13:18Z</time>
      </trkpt>
      <trkpt lat="47.266" lon="4.65981">
        <ele>385.63</ele>
        <time>2014-11-09T11:13:34Z</time>
      </trkpt>
      <trkpt lat="47.26611" lon="4.65996">
        <ele>385.15</ele>
        <time>2014-11-09T11:13:48Z</time>
      </trkpt>
      <trkpt lat="47.26622" lon="4.66013">
        <ele>385.63</ele>
        <time>2014-11-09T11:14:03Z</time>
      </trkpt>
      <trkpt lat="47.2663" lon="4.66022">
        <ele>385.63</ele>
        <time>2014-11-09T11:14:12Z</time>
      </trkpt>
      <trkpt lat="47.26631" lon="4.66026">
        <ele>385.63</ele>
        <time>2014-11-09T11:14:15Z</time>
      </trkpt>
      <trkpt lat="47.26644" lon="4.6604">
        <ele>385.63</ele>
        <time>2014-11-09T11:14:30Z</time>
      </trkpt>
      <trkpt lat="47.26652" lon="4.66049">
        <ele>385.63</ele>
        <time>2014-11-09T11:14:39Z</time>
      </trkpt>
      <trkpt lat="47.26667" lon="4.66064">
        <ele>386.11</ele>
        <time>2014-11-09T11:14:54Z</time>
      </trkpt>
      <trkpt lat="47.26681" lon="4.66076">
        <ele>386.11</ele>
        <time>2014-11-09T11:15:08Z</time>
      </trkpt>
      <trkpt lat="47.26693" lon="4.66088">
        <ele>385.63</ele>
        <time>2014-11-09T11:15:21Z</time>
      </trkpt>
      <trkpt lat="47.26705" lon="4.66098">
        <ele>385.63</ele>
        <time>2014-11-09T11:15:33Z</time>
      </trkpt>
      <trkpt lat="47.26707" lon="4.66099">
        <ele>385.63</ele>
        <time>2014-11-09T11:15:35Z</time>
      </trkpt>
      <trkpt lat="47.26718" lon="4.66114">
        <ele>385.63</ele>
        <time>2014-11-09T11:15:49Z</time>
      </trkpt>
      <trkpt lat="47.26732" lon="4.66127">
        <ele>385.63</ele>
        <time>2014-11-09T11:16:03Z</time>
      </trkpt>
      <trkpt lat="47.26743" lon="4.66136">
        <ele>385.63</ele>
        <time>2014-11-09T11:16:15Z</time>
      </trkpt>
      <trkpt lat="47.26757" lon="4.66149">
        <ele>385.63</ele>
        <time>2014-11-09T11:16:30Z</time>
      </trkpt>
      <trkpt lat="47.26773" lon="4.66165">
        <ele>386.59</ele>
        <time>2014-11-09T11:16:46Z</time>
      </trkpt>
      <trkpt lat="47.26784" lon="4.66174">
        <ele>386.59</ele>
        <time>2014-11-09T11:16:59Z</time>
      </trkpt>
      <trkpt lat="47.26783" lon="4.66186">
        <ele>386.11</ele>
        <time>2014-11-09T11:17:10Z</time>
      </trkpt>
      <trkpt lat="47.26772" lon="4.66189">
        <ele>385.63</ele>
        <time>2014-11-09T11:17:23Z</time>
      </trkpt>
      <trkpt lat="47.26756" lon="4.66185">
        <ele>386.11</ele>
        <time>2014-11-09T11:17:37Z</time>
      </trkpt>
      <trkpt lat="47.26739" lon="4.66187">
        <ele>386.11</ele>
        <time>2014-11-09T11:17:52Z</time>
      </trkpt>
      <trkpt lat="47.26733" lon="4.66191">
        <ele>386.59</ele>
        <time>2014-11-09T11:18:06Z</time>
      </trkpt>
      <trkpt lat="47.26733" lon="4.6619">
        <ele>386.59</ele>
        <time>2014-11-09T11:18:31Z</time>
      </trkpt>
      <trkpt lat="47.2673" lon="4.66188">
        <ele>386.59</ele>
        <time>2014-11-09T11:18:54Z</time>
      </trkpt>
      <trkpt lat="47.26728" lon="4.66189">
        <ele>386.59</ele>
        <time>2014-11-09T11:18:55Z</time>
      </trkpt>
      <trkpt lat="47.26724" lon="4.66191">
        <ele>386.59</ele>
        <time>2014-11-09T11:19:03Z</time>
      </trkpt>
      <trkpt lat="47.26723" lon="4.66192">
        <ele>387.07</ele>
        <time>2014-11-09T11:19:05Z</time>
      </trkpt>
      <trkpt lat="47.2672" lon="4.66193">
        <ele>387.07</ele>
        <time>2014-11-09T11:19:25Z</time>
      </trkpt>
      <trkpt lat="47.26709" lon="4.66195">
        <ele>386.59</ele>
        <time>2014-11-09T11:19:39Z</time>
      </trkpt>
      <trkpt lat="47.26707" lon="4.66196">
        <ele>387.55</ele>
        <time>2014-11-09T11:19:42Z</time>
      </trkpt>
      <trkpt lat="47.26702" lon="4.66198">
        <ele>387.55</ele>
        <time>2014-11-09T11:19:47Z</time>
      </trkpt>
      <trkpt lat="47.26699" lon="4.662">
        <ele>388.03</ele>
        <time>2014-11-09T11:19:50Z</time>
      </trkpt>
      <trkpt lat="47.26685" lon="4.66207">
        <ele>388.03</ele>
        <time>2014-11-09T11:20:03Z</time>
      </trkpt>
      <trkpt lat="47.26672" lon="4.66217">
        <ele>388.99</ele>
        <time>2014-11-09T11:20:18Z</time>
      </trkpt>
      <trkpt lat="47.26662" lon="4.66225">
        <ele>388.99</ele>
        <time>2014-11-09T11:20:33Z</time>
      </trkpt>
      <trkpt lat="47.26657" lon="4.66229">
        <ele>388.99</ele>
        <time>2014-11-09T11:20:49Z</time>
      </trkpt>
      <trkpt lat="47.26648" lon="4.66237">
        <ele>388.99</ele>
        <time>2014-11-09T11:21:00Z</time>
      </trkpt>
      <trkpt lat="47.26632" lon="4.66249">
        <ele>388.99</ele>
        <time>2014-11-09T11:21:17Z</time>
      </trkpt>
      <trkpt lat="47.26627" lon="4.66255">
        <ele>389.47</ele>
        <time>2014-11-09T11:21:23Z</time>
      </trkpt>
      <trkpt lat="47.26615" lon="4.66265">
        <ele>389.95</ele>
        <time>2014-11-09T11:21:36Z</time>
      </trkpt>
      <trkpt lat="47.2661" lon="4.66269">
        <ele>389.95</ele>
        <time>2014-11-09T11:21:46Z</time>
      </trkpt>
      <trkpt lat="47.26608" lon="4.66268">
        <ele>389.95</ele>
        <time>2014-11-09T11:21:54Z</time>
      </trkpt>
      <trkpt lat="47.26606" lon="4.6627">
        <ele>389.95</ele>
        <time>2014-11-09T11:21:56Z</time>
      </trkpt>
      <trkpt lat="47.26592" lon="4.66282">
        <ele>390.43</ele>
        <time>2014-11-09T11:22:11Z</time>
      </trkpt>
      <trkpt lat="47.26577" lon="4.66294">
        <ele>390.91</ele>
        <time>2014-11-09T11:22:26Z</time>
      </trkpt>
      <trkpt lat="47.26563" lon="4.66305">
        <ele>391.39</ele>
        <time>2014-11-09T11:22:40Z</time>
      </trkpt>
      <trkpt lat="47.26548" lon="4.66317">
        <ele>392.36</ele>
        <time>2014-11-09T11:22:55Z</time>
      </trkpt>
      <trkpt lat="47.26534" lon="4.66331">
        <ele>393.32</ele>
        <time>2014-11-09T11:23:09Z</time>
      </trkpt>
      <trkpt lat="47.26521" lon="4.66351">
        <ele>393.8</ele>
        <time>2014-11-09T11:23:26Z</time>
      </trkpt>
      <trkpt lat="47.26509" lon="4.6637">
        <ele>394.76</ele>
        <time>2014-11-09T11:23:41Z</time>
      </trkpt>
      <trkpt lat="47.26497" lon="4.66389">
        <ele>395.24</ele>
        <time>2014-11-09T11:23:56Z</time>
      </trkpt>
      <trkpt lat="47.26486" lon="4.66406">
        <ele>396.2</ele>
        <time>2014-11-09T11:24:11Z</time>
      </trkpt>
      <trkpt lat="47.26475" lon="4.6643">
        <ele>397.64</ele>
        <time>2014-11-09T11:24:28Z</time>
      </trkpt>
      <trkpt lat="47.26467" lon="4.66446">
        <ele>398.6</ele>
        <time>2014-11-09T11:24:39Z</time>
      </trkpt>
      <trkpt lat="47.26456" lon="4.66465">
        <ele>400.05</ele>
        <time>2014-11-09T11:24:55Z</time>
      </trkpt>
      <trkpt lat="47.26447" lon="4.66481">
        <ele>400.53</ele>
        <time>2014-11-09T11:25:07Z</time>
      </trkpt>
      <trkpt lat="47.2644" lon="4.66498">
        <ele>401.01</ele>
        <time>2014-11-09T11:25:20Z</time>
      </trkpt>
      <trkpt lat="47.26437" lon="4.66502">
        <ele>401.49</ele>
        <time>2014-11-09T11:25:23Z</time>
      </trkpt>
      <trkpt lat="47.26429" lon="4.66526">
        <ele>401.97</ele>
        <time>2014-11-09T11:25:40Z</time>
      </trkpt>
      <trkpt lat="47.26428" lon="4.66528">
        <ele>401.97</ele>
        <time>2014-11-09T11:25:41Z</time>
      </trkpt>
      <trkpt lat="47.2642" lon="4.66552">
        <ele>402.93</ele>
        <time>2014-11-09T11:25:56Z</time>
      </trkpt>
      <trkpt lat="47.26414" lon="4.66572">
        <ele>402.93</ele>
        <time>2014-11-09T11:26:09Z</time>
      </trkpt>
      <trkpt lat="47.26411" lon="4.666">
        <ele>402.93</ele>
        <time>2014-11-09T11:26:25Z</time>
      </trkpt>
      <trkpt lat="47.2641" lon="4.66611">
        <ele>403.41</ele>
        <time>2014-11-09T11:26:31Z</time>
      </trkpt>
      <trkpt lat="47.26406" lon="4.66641">
        <ele>403.41</ele>
        <time>2014-11-09T11:26:49Z</time>
      </trkpt>
      <trkpt lat="47.26396" lon="4.66667">
        <ele>403.41</ele>
        <time>2014-11-09T11:27:06Z</time>
      </trkpt>
      <trkpt lat="47.26395" lon="4.66669">
        <ele>403.41</ele>
        <time>2014-11-09T11:27:07Z</time>
      </trkpt>
      <trkpt lat="47.26384" lon="4.66691">
        <ele>403.41</ele>
        <time>2014-11-09T11:27:23Z</time>
      </trkpt>
      <trkpt lat="47.2637" lon="4.66708">
        <ele>403.41</ele>
        <time>2014-11-09T11:27:38Z</time>
      </trkpt>
      <trkpt lat="47.26358" lon="4.66723">
        <ele>403.41</ele>
        <time>2014-11-09T11:27:52Z</time>
      </trkpt>
      <trkpt lat="47.2634" lon="4.66732">
        <ele>403.89</ele>
        <time>2014-11-09T11:28:08Z</time>
      </trkpt>
      <trkpt lat="47.26323" lon="4.6674">
        <ele>404.85</ele>
        <time>2014-11-09T11:28:23Z</time>
      </trkpt>
      <trkpt lat="47.2631" lon="4.66746">
        <ele>405.33</ele>
        <time>2014-11-09T11:28:35Z</time>
      </trkpt>
      <trkpt lat="47.26295" lon="4.66754">
        <ele>405.81</ele>
        <time>2014-11-09T11:28:50Z</time>
      </trkpt>
      <trkpt lat="47.26294" lon="4.66755">
        <ele>405.81</ele>
        <time>2014-11-09T11:28:51Z</time>
      </trkpt>
      <trkpt lat="47.26279" lon="4.66762">
        <ele>406.77</ele>
        <time>2014-11-09T11:29:04Z</time>
      </trkpt>
      <trkpt lat="47.26266" lon="4.66768">
        <ele>407.74</ele>
        <time>2014-11-09T11:29:16Z</time>
      </trkpt>
      <trkpt lat="47.26253" lon="4.66773">
        <ele>408.7</ele>
        <time>2014-11-09T11:29:30Z</time>
      </trkpt>
      <trkpt lat="47.26248" lon="4.66775">
        <ele>408.7</ele>
        <time>2014-11-09T11:29:34Z</time>
      </trkpt>
      <trkpt lat="47.26232" lon="4.66783">
        <ele>410.14</ele>
        <time>2014-11-09T11:29:48Z</time>
      </trkpt>
      <trkpt lat="47.26218" lon="4.66788">
        <ele>411.58</ele>
        <time>2014-11-09T11:30:02Z</time>
      </trkpt>
      <trkpt lat="47.26204" lon="4.66798">
        <ele>413.98</ele>
        <time>2014-11-09T11:30:18Z</time>
      </trkpt>
      <trkpt lat="47.26193" lon="4.66803">
        <ele>415.43</ele>
        <time>2014-11-09T11:30:29Z</time>
      </trkpt>
      <trkpt lat="47.26188" lon="4.66806">
        <ele>416.39</ele>
        <time>2014-11-09T11:30:35Z</time>
      </trkpt>
      <trkpt lat="47.26175" lon="4.66813">
        <ele>418.31</ele>
        <time>2014-11-09T11:30:50Z</time>
      </trkpt>
      <trkpt lat="47.26161" lon="4.66821">
        <ele>420.23</ele>
        <time>2014-11-09T11:31:04Z</time>
      </trkpt>
      <trkpt lat="47.26148" lon="4.6683">
        <ele>421.68</ele>
        <time>2014-11-09T11:31:18Z</time>
      </trkpt>
      <trkpt lat="47.26134" lon="4.66839">
        <ele>423.6</ele>
        <time>2014-11-09T11:31:32Z</time>
      </trkpt>
      <trkpt lat="47.26121" lon="4.66851">
        <ele>426</ele>
        <time>2014-11-09T11:31:47Z</time>
      </trkpt>
      <trkpt lat="47.26108" lon="4.66866">
        <ele>428.4</ele>
        <time>2014-11-09T11:32:05Z</time>
      </trkpt>
      <trkpt lat="47.26098" lon="4.66878">
        <ele>429.85</ele>
        <time>2014-11-09T11:32:18Z</time>
      </trkpt>
      <trkpt lat="47.26092" lon="4.66888">
        <ele>430.81</ele>
        <time>2014-11-09T11:32:28Z</time>
      </trkpt>
      <trkpt lat="47.26088" lon="4.66895">
        <ele>431.77</ele>
        <time>2014-11-09T11:32:34Z</time>
      </trkpt>
      <trkpt lat="47.26086" lon="4.669">
        <ele>432.73</ele>
        <time>2014-11-09T11:32:38Z</time>
      </trkpt>
      <trkpt lat="47.2608" lon="4.66908">
        <ele>434.17</ele>
        <time>2014-11-09T11:32:46Z</time>
      </trkpt>
      <trkpt lat="47.2607" lon="4.66927">
        <ele>436.1</ele>
        <time>2014-11-09T11:33:04Z</time>
      </trkpt>
      <trkpt lat="47.26062" lon="4.66949">
        <ele>438.02</ele>
        <time>2014-11-09T11:33:19Z</time>
      </trkpt>
      <trkpt lat="47.26058" lon="4.66959">
        <ele>438.98</ele>
        <time>2014-11-09T11:33:27Z</time>
      </trkpt>
      <trkpt lat="47.2605" lon="4.66979">
        <ele>440.9</ele>
        <time>2014-11-09T11:33:41Z</time>
      </trkpt>
      <trkpt lat="47.26046" lon="4.67">
        <ele>441.86</ele>
        <time>2014-11-09T11:33:55Z</time>
      </trkpt>
      <trkpt lat="47.26043" lon="4.67027">
        <ele>443.79</ele>
        <time>2014-11-09T11:34:13Z</time>
      </trkpt>
      <trkpt lat="47.26042" lon="4.67043">
        <ele>445.23</ele>
        <time>2014-11-09T11:34:24Z</time>
      </trkpt>
      <trkpt lat="47.26039" lon="4.67069">
        <ele>446.67</ele>
        <time>2014-11-09T11:34:40Z</time>
      </trkpt>
      <trkpt lat="47.26038" lon="4.67086">
        <ele>448.11</ele>
        <time>2014-11-09T11:34:53Z</time>
      </trkpt>
      <trkpt lat="47.26038" lon="4.67109">
        <ele>450.03</ele>
        <time>2014-11-09T11:35:08Z</time>
      </trkpt>
      <trkpt lat="47.26037" lon="4.6713">
        <ele>451.48</ele>
        <time>2014-11-09T11:35:21Z</time>
      </trkpt>
      <trkpt lat="47.26039" lon="4.67152">
        <ele>452.92</ele>
        <time>2014-11-09T11:35:36Z</time>
      </trkpt>
      <trkpt lat="47.26039" lon="4.67168">
        <ele>454.84</ele>
        <time>2014-11-09T11:35:48Z</time>
      </trkpt>
      <trkpt lat="47.26039" lon="4.67173">
        <ele>455.32</ele>
        <time>2014-11-09T11:36:00Z</time>
      </trkpt>
      <trkpt lat="47.26041" lon="4.67194">
        <ele>456.76</ele>
        <time>2014-11-09T11:36:14Z</time>
      </trkpt>
      <trkpt lat="47.26041" lon="4.67198">
        <ele>456.76</ele>
        <time>2014-11-09T11:36:17Z</time>
      </trkpt>
      <trkpt lat="47.26043" lon="4.67218">
        <ele>458.69</ele>
        <time>2014-11-09T11:36:30Z</time>
      </trkpt>
      <trkpt lat="47.26044" lon="4.67239">
        <ele>459.65</ele>
        <time>2014-11-09T11:36:45Z</time>
      </trkpt>
      <trkpt lat="47.26045" lon="4.67246">
        <ele>460.13</ele>
        <time>2014-11-09T11:36:49Z</time>
      </trkpt>
      <trkpt lat="47.26047" lon="4.67255">
        <ele>461.09</ele>
        <time>2014-11-09T11:36:55Z</time>
      </trkpt>
      <trkpt lat="47.2605" lon="4.67274">
        <ele>463.01</ele>
        <time>2014-11-09T11:37:09Z</time>
      </trkpt>
      <trkpt lat="47.26051" lon="4.67296">
        <ele>464.93</ele>
        <time>2014-11-09T11:37:24Z</time>
      </trkpt>
      <trkpt lat="47.26053" lon="4.67316">
        <ele>466.38</ele>
        <time>2014-11-09T11:37:38Z</time>
      </trkpt>
      <trkpt lat="47.26056" lon="4.67348">
        <ele>468.3</ele>
        <time>2014-11-09T11:37:58Z</time>
      </trkpt>
      <trkpt lat="47.26058" lon="4.67356">
        <ele>469.26</ele>
        <time>2014-11-09T11:38:03Z</time>
      </trkpt>
      <trkpt lat="47.2606" lon="4.67362">
        <ele>469.26</ele>
        <time>2014-11-09T11:38:07Z</time>
      </trkpt>
      <trkpt lat="47.26061" lon="4.67379">
        <ele>471.18</ele>
        <time>2014-11-09T11:38:21Z</time>
      </trkpt>
      <trkpt lat="47.26065" lon="4.67403">
        <ele>472.63</ele>
        <time>2014-11-09T11:38:36Z</time>
      </trkpt>
      <trkpt lat="47.26068" lon="4.67428">
        <ele>473.59</ele>
        <time>2014-11-09T11:38:51Z</time>
      </trkpt>
      <trkpt lat="47.26068" lon="4.67434">
        <ele>474.07</ele>
        <time>2014-11-09T11:38:55Z</time>
      </trkpt>
      <trkpt lat="47.26072" lon="4.67458">
        <ele>475.51</ele>
        <time>2014-11-09T11:39:11Z</time>
      </trkpt>
      <trkpt lat="47.26074" lon="4.67476">
        <ele>476.95</ele>
        <time>2014-11-09T11:39:23Z</time>
      </trkpt>
      <trkpt lat="47.26077" lon="4.67495">
        <ele>478.39</ele>
        <time>2014-11-09T11:39:35Z</time>
      </trkpt>
      <trkpt lat="47.26082" lon="4.67517">
        <ele>479.35</ele>
        <time>2014-11-09T11:39:50Z</time>
      </trkpt>
      <trkpt lat="47.26086" lon="4.67541">
        <ele>480.8</ele>
        <time>2014-11-09T11:40:04Z</time>
      </trkpt>
      <trkpt lat="47.2609" lon="4.67561">
        <ele>482.72</ele>
        <time>2014-11-09T11:40:18Z</time>
      </trkpt>
      <trkpt lat="47.26095" lon="4.67579">
        <ele>483.68</ele>
        <time>2014-11-09T11:40:31Z</time>
      </trkpt>
      <trkpt lat="47.261" lon="4.67599">
        <ele>485.6</ele>
        <time>2014-11-09T11:40:45Z</time>
      </trkpt>
      <trkpt lat="47.26104" lon="4.67625">
        <ele>487.05</ele>
        <time>2014-11-09T11:41:02Z</time>
      </trkpt>
      <trkpt lat="47.2611" lon="4.67649">
        <ele>488.49</ele>
        <time>2014-11-09T11:41:18Z</time>
      </trkpt>
      <trkpt lat="47.26117" lon="4.6767">
        <ele>489.93</ele>
        <time>2014-11-09T11:41:32Z</time>
      </trkpt>
      <trkpt lat="47.26119" lon="4.67681">
        <ele>489.93</ele>
        <time>2014-11-09T11:41:38Z</time>
      </trkpt>
      <trkpt lat="47.26127" lon="4.67701">
        <ele>491.85</ele>
        <time>2014-11-09T11:41:53Z</time>
      </trkpt>
      <trkpt lat="47.26131" lon="4.67718">
        <ele>492.81</ele>
        <time>2014-11-09T11:42:06Z</time>
      </trkpt>
      <trkpt lat="47.26137" lon="4.67741">
        <ele>494.74</ele>
        <time>2014-11-09T11:42:22Z</time>
      </trkpt>
      <trkpt lat="47.26142" lon="4.67756">
        <ele>496.18</ele>
        <time>2014-11-09T11:42:36Z</time>
      </trkpt>
      <trkpt lat="47.26148" lon="4.67777">
        <ele>497.14</ele>
        <time>2014-11-09T11:42:50Z</time>
      </trkpt>
      <trkpt lat="47.26156" lon="4.67799">
        <ele>498.58</ele>
        <time>2014-11-09T11:43:06Z</time>
      </trkpt>
      <trkpt lat="47.2616" lon="4.67817">
        <ele>499.54</ele>
        <time>2014-11-09T11:43:19Z</time>
      </trkpt>
      <trkpt lat="47.26168" lon="4.67841">
        <ele>501.46</ele>
        <time>2014-11-09T11:43:36Z</time>
      </trkpt>
      <trkpt lat="47.26175" lon="4.67858">
        <ele>502.43</ele>
        <time>2014-11-09T11:43:54Z</time>
      </trkpt>
      <trkpt lat="47.26179" lon="4.67868">
        <ele>502.91</ele>
        <time>2014-11-09T11:44:09Z</time>
      </trkpt>
      <trkpt lat="47.26179" lon="4.67881">
        <ele>503.39</ele>
        <time>2014-11-09T11:44:27Z</time>
      </trkpt>
      <trkpt lat="47.26182" lon="4.67889">
        <ele>504.35</ele>
        <time>2014-11-09T11:44:41Z</time>
      </trkpt>
      <trkpt lat="47.26193" lon="4.67906">
        <ele>505.79</ele>
        <time>2014-11-09T11:44:56Z</time>
      </trkpt>
      <trkpt lat="47.26199" lon="4.67918">
        <ele>506.27</ele>
        <time>2014-11-09T11:45:08Z</time>
      </trkpt>
      <trkpt lat="47.26209" lon="4.6795">
        <ele>508.19</ele>
        <time>2014-11-09T11:45:30Z</time>
      </trkpt>
      <trkpt lat="47.26213" lon="4.67981">
        <ele>510.12</ele>
        <time>2014-11-09T11:45:48Z</time>
      </trkpt>
      <trkpt lat="47.2621" lon="4.68001">
        <ele>512.04</ele>
        <time>2014-11-09T11:46:05Z</time>
      </trkpt>
      <trkpt lat="47.26199" lon="4.68014">
        <ele>514.44</ele>
        <time>2014-11-09T11:46:23Z</time>
      </trkpt>
      <trkpt lat="47.26185" lon="4.68009">
        <ele>515.88</ele>
        <time>2014-11-09T11:46:38Z</time>
      </trkpt>
      <trkpt lat="47.26174" lon="4.68004">
        <ele>516.85</ele>
        <time>2014-11-09T11:46:51Z</time>
      </trkpt>
      <trkpt lat="47.26157" lon="4.67991">
        <ele>518.29</ele>
        <time>2014-11-09T11:47:08Z</time>
      </trkpt>
      <trkpt lat="47.26155" lon="4.67985">
        <ele>518.77</ele>
        <time>2014-11-09T11:47:12Z</time>
      </trkpt>
      <trkpt lat="47.26141" lon="4.67972">
        <ele>519.73</ele>
        <time>2014-11-09T11:47:27Z</time>
      </trkpt>
      <trkpt lat="47.26126" lon="4.67955">
        <ele>521.17</ele>
        <time>2014-11-09T11:47:44Z</time>
      </trkpt>
      <trkpt lat="47.26115" lon="4.67947">
        <ele>522.61</ele>
        <time>2014-11-09T11:47:58Z</time>
      </trkpt>
      <trkpt lat="47.26101" lon="4.67937">
        <ele>523.58</ele>
        <time>2014-11-09T11:48:12Z</time>
      </trkpt>
      <trkpt lat="47.26089" lon="4.6793">
        <ele>524.54</ele>
        <time>2014-11-09T11:48:27Z</time>
      </trkpt>
      <trkpt lat="47.26076" lon="4.67922">
        <ele>525.98</ele>
        <time>2014-11-09T11:48:42Z</time>
      </trkpt>
      <trkpt lat="47.26063" lon="4.67911">
        <ele>527.42</ele>
        <time>2014-11-09T11:48:56Z</time>
      </trkpt>
      <trkpt lat="47.26049" lon="4.67903">
        <ele>528.38</ele>
        <time>2014-11-09T11:49:10Z</time>
      </trkpt>
      <trkpt lat="47.26038" lon="4.67896">
        <ele>529.34</ele>
        <time>2014-11-09T11:49:23Z</time>
      </trkpt>
      <trkpt lat="47.26022" lon="4.67888">
        <ele>530.3</ele>
        <time>2014-11-09T11:49:38Z</time>
      </trkpt>
      <trkpt lat="47.26009" lon="4.67883">
        <ele>531.75</ele>
        <time>2014-11-09T11:49:51Z</time>
      </trkpt>
      <trkpt lat="47.25994" lon="4.67878">
        <ele>532.23</ele>
        <time>2014-11-09T11:50:05Z</time>
      </trkpt>
      <trkpt lat="47.25978" lon="4.67877">
        <ele>534.15</ele>
        <time>2014-11-09T11:50:20Z</time>
      </trkpt>
      <trkpt lat="47.25963" lon="4.67877">
        <ele>534.63</ele>
        <time>2014-11-09T11:50:34Z</time>
      </trkpt>
      <trkpt lat="47.25945" lon="4.67882">
        <ele>536.07</ele>
        <time>2014-11-09T11:50:51Z</time>
      </trkpt>
      <trkpt lat="47.2593" lon="4.67897">
        <ele>537.51</ele>
        <time>2014-11-09T11:51:09Z</time>
      </trkpt>
      <trkpt lat="47.2592" lon="4.6792">
        <ele>538.96</ele>
        <time>2014-11-09T11:51:27Z</time>
      </trkpt>
      <trkpt lat="47.25911" lon="4.6795">
        <ele>540.4</ele>
        <time>2014-11-09T11:51:45Z</time>
      </trkpt>
      <trkpt lat="47.25897" lon="4.67979">
        <ele>541.84</ele>
        <time>2014-11-09T11:52:06Z</time>
      </trkpt>
      <trkpt lat="47.25882" lon="4.68001">
        <ele>542.32</ele>
        <time>2014-11-09T11:52:22Z</time>
      </trkpt>
      <trkpt lat="47.25868" lon="4.68011">
        <ele>542.32</ele>
        <time>2014-11-09T11:52:36Z</time>
      </trkpt>
      <trkpt lat="47.25857" lon="4.68025">
        <ele>542.8</ele>
        <time>2014-11-09T11:52:51Z</time>
      </trkpt>
      <trkpt lat="47.25847" lon="4.68043">
        <ele>542.32</ele>
        <time>2014-11-09T11:53:06Z</time>
      </trkpt>
      <trkpt lat="47.25828" lon="4.68066">
        <ele>541.84</ele>
        <time>2014-11-09T11:53:23Z</time>
      </trkpt>
      <trkpt lat="47.25814" lon="4.68081">
        <ele>541.84</ele>
        <time>2014-11-09T11:53:40Z</time>
      </trkpt>
      <trkpt lat="47.25802" lon="4.68097">
        <ele>541.36</ele>
        <time>2014-11-09T11:53:55Z</time>
      </trkpt>
      <trkpt lat="47.2579" lon="4.6811">
        <ele>540.4</ele>
        <time>2014-11-09T11:54:09Z</time>
      </trkpt>
      <trkpt lat="47.25777" lon="4.68124">
        <ele>540.4</ele>
        <time>2014-11-09T11:54:23Z</time>
      </trkpt>
      <trkpt lat="47.25762" lon="4.68144">
        <ele>538.48</ele>
        <time>2014-11-09T11:54:41Z</time>
      </trkpt>
      <trkpt lat="47.25749" lon="4.68161">
        <ele>537.03</ele>
        <time>2014-11-09T11:54:56Z</time>
      </trkpt>
      <trkpt lat="47.25735" lon="4.68176">
        <ele>535.59</ele>
        <time>2014-11-09T11:55:12Z</time>
      </trkpt>
      <trkpt lat="47.25731" lon="4.68175">
        <ele>535.11</ele>
        <time>2014-11-09T11:55:27Z</time>
      </trkpt>
      <trkpt lat="47.2573" lon="4.68177">
        <ele>535.11</ele>
        <time>2014-11-09T11:55:50Z</time>
      </trkpt>
      <trkpt lat="47.25731" lon="4.68182">
        <ele>535.59</ele>
        <time>2014-11-09T11:56:17Z</time>
      </trkpt>
      <trkpt lat="47.25729" lon="4.68183">
        <ele>535.59</ele>
        <time>2014-11-09T11:56:41Z</time>
      </trkpt>
      <trkpt lat="47.25727" lon="4.68184">
        <ele>535.59</ele>
        <time>2014-11-09T11:57:02Z</time>
      </trkpt>
      <trkpt lat="47.25727" lon="4.68183">
        <ele>536.07</ele>
        <time>2014-11-09T11:57:28Z</time>
      </trkpt>
      <trkpt lat="47.25728" lon="4.68183">
        <ele>536.55</ele>
        <time>2014-11-09T11:57:56Z</time>
      </trkpt>
      <trkpt lat="47.25727" lon="4.68189">
        <ele>536.07</ele>
        <time>2014-11-09T11:58:25Z</time>
      </trkpt>
      <trkpt lat="47.25726" lon="4.68193">
        <ele>536.07</ele>
        <time>2014-11-09T11:58:27Z</time>
      </trkpt>
      <trkpt lat="47.25723" lon="4.68203">
        <ele>535.59</ele>
        <time>2014-11-09T11:58:32Z</time>
      </trkpt>
      <trkpt lat="47.25722" lon="4.68221">
        <ele>535.11</ele>
        <time>2014-11-09T11:58:44Z</time>
      </trkpt>
      <trkpt lat="47.2572" lon="4.68247">
        <ele>534.63</ele>
        <time>2014-11-09T11:58:59Z</time>
      </trkpt>
      <trkpt lat="47.25716" lon="4.68274">
        <ele>533.67</ele>
        <time>2014-11-09T11:59:13Z</time>
      </trkpt>
      <trkpt lat="47.25716" lon="4.68281">
        <ele>533.67</ele>
        <time>2014-11-09T11:59:17Z</time>
      </trkpt>
      <trkpt lat="47.25716" lon="4.68308">
        <ele>532.71</ele>
        <time>2014-11-09T11:59:33Z</time>
      </trkpt>
      <trkpt lat="47.25717" lon="4.68338">
        <ele>531.75</ele>
        <time>2014-11-09T11:59:50Z</time>
      </trkpt>
      <trkpt lat="47.25716" lon="4.68342">
        <ele>531.75</ele>
        <time>2014-11-09T11:59:52Z</time>
      </trkpt>
      <trkpt lat="47.25714" lon="4.68365">
        <ele>531.75</ele>
        <time>2014-11-09T12:00:05Z</time>
      </trkpt>
      <trkpt lat="47.25712" lon="4.68391">
        <ele>531.75</ele>
        <time>2014-11-09T12:00:19Z</time>
      </trkpt>
      <trkpt lat="47.2571" lon="4.68419">
        <ele>531.27</ele>
        <time>2014-11-09T12:00:33Z</time>
      </trkpt>
      <trkpt lat="47.25707" lon="4.68445">
        <ele>531.27</ele>
        <time>2014-11-09T12:00:49Z</time>
      </trkpt>
      <trkpt lat="47.25706" lon="4.68464">
        <ele>531.75</ele>
        <time>2014-11-09T12:00:59Z</time>
      </trkpt>
      <trkpt lat="47.25707" lon="4.68472">
        <ele>531.75</ele>
        <time>2014-11-09T12:01:04Z</time>
      </trkpt>
      <trkpt lat="47.25701" lon="4.68508">
        <ele>531.75</ele>
        <time>2014-11-09T12:01:23Z</time>
      </trkpt>
      <trkpt lat="47.25698" lon="4.68535">
        <ele>531.75</ele>
        <time>2014-11-09T12:01:39Z</time>
      </trkpt>
      <trkpt lat="47.25713" lon="4.6855">
        <ele>531.75</ele>
        <time>2014-11-09T12:01:57Z</time>
      </trkpt>
      <trkpt lat="47.25721" lon="4.68552">
        <ele>532.23</ele>
        <time>2014-11-09T12:02:11Z</time>
      </trkpt>
      <trkpt lat="47.2573" lon="4.68553">
        <ele>532.23</ele>
        <time>2014-11-09T12:02:30Z</time>
      </trkpt>
      <trkpt lat="47.25723" lon="4.68552">
        <ele>532.23</ele>
        <time>2014-11-09T12:02:51Z</time>
      </trkpt>
      <trkpt lat="47.25712" lon="4.68553">
        <ele>531.75</ele>
        <time>2014-11-09T12:03:07Z</time>
      </trkpt>
      <trkpt lat="47.257" lon="4.68546">
        <ele>531.75</ele>
        <time>2014-11-09T12:03:18Z</time>
      </trkpt>
      <trkpt lat="47.25699" lon="4.68539">
        <ele>531.75</ele>
        <time>2014-11-09T12:03:29Z</time>
      </trkpt>
      <trkpt lat="47.25697" lon="4.68522">
        <ele>532.23</ele>
        <time>2014-11-09T12:03:39Z</time>
      </trkpt>
      <trkpt lat="47.25698" lon="4.68516">
        <ele>532.23</ele>
        <time>2014-11-09T12:03:43Z</time>
      </trkpt>
      <trkpt lat="47.25702" lon="4.68496">
        <ele>532.23</ele>
        <time>2014-11-09T12:03:57Z</time>
      </trkpt>
      <trkpt lat="47.25703" lon="4.68485">
        <ele>532.23</ele>
        <time>2014-11-09T12:04:09Z</time>
      </trkpt>
      <trkpt lat="47.25704" lon="4.68464">
        <ele>532.71</ele>
        <time>2014-11-09T12:04:22Z</time>
      </trkpt>
      <trkpt lat="47.25706" lon="4.68443">
        <ele>532.23</ele>
        <time>2014-11-09T12:04:35Z</time>
      </trkpt>
      <trkpt lat="47.25707" lon="4.68413">
        <ele>532.23</ele>
        <time>2014-11-09T12:04:52Z</time>
      </trkpt>
      <trkpt lat="47.25708" lon="4.68404">
        <ele>532.71</ele>
        <time>2014-11-09T12:04:57Z</time>
      </trkpt>
      <trkpt lat="47.2571" lon="4.68378">
        <ele>532.71</ele>
        <time>2014-11-09T12:05:13Z</time>
      </trkpt>
      <trkpt lat="47.25712" lon="4.68364">
        <ele>532.71</ele>
        <time>2014-11-09T12:05:22Z</time>
      </trkpt>
      <trkpt lat="47.25714" lon="4.6835">
        <ele>533.19</ele>
        <time>2014-11-09T12:05:31Z</time>
      </trkpt>
      <trkpt lat="47.25714" lon="4.68347">
        <ele>533.19</ele>
        <time>2014-11-09T12:05:33Z</time>
      </trkpt>
      <trkpt lat="47.25714" lon="4.68343">
        <ele>533.19</ele>
        <time>2014-11-09T12:05:35Z</time>
      </trkpt>
      <trkpt lat="47.25715" lon="4.68315">
        <ele>533.67</ele>
        <time>2014-11-09T12:05:51Z</time>
      </trkpt>
      <trkpt lat="47.25716" lon="4.68302">
        <ele>534.15</ele>
        <time>2014-11-09T12:05:58Z</time>
      </trkpt>
      <trkpt lat="47.25717" lon="4.68278">
        <ele>535.11</ele>
        <time>2014-11-09T12:06:12Z</time>
      </trkpt>
      <trkpt lat="47.2572" lon="4.68256">
        <ele>535.59</ele>
        <time>2014-11-09T12:06:26Z</time>
      </trkpt>
      <trkpt lat="47.25721" lon="4.68246">
        <ele>536.07</ele>
        <time>2014-11-09T12:06:32Z</time>
      </trkpt>
      <trkpt lat="47.25723" lon="4.68216">
        <ele>537.03</ele>
        <time>2014-11-09T12:06:50Z</time>
      </trkpt>
      <trkpt lat="47.25727" lon="4.68188">
        <ele>537.99</ele>
        <time>2014-11-09T12:07:07Z</time>
      </trkpt>
      <trkpt lat="47.25731" lon="4.68165">
        <ele>538.96</ele>
        <time>2014-11-09T12:07:21Z</time>
      </trkpt>
      <trkpt lat="47.25734" lon="4.68141">
        <ele>539.92</ele>
        <time>2014-11-09T12:07:35Z</time>
      </trkpt>
      <trkpt lat="47.25735" lon="4.68113">
        <ele>540.4</ele>
        <time>2014-11-09T12:07:51Z</time>
      </trkpt>
      <trkpt lat="47.25734" lon="4.68075">
        <ele>540.4</ele>
        <time>2014-11-09T12:08:12Z</time>
      </trkpt>
      <trkpt lat="47.25733" lon="4.6807">
        <ele>540.4</ele>
        <time>2014-11-09T12:08:15Z</time>
      </trkpt>
      <trkpt lat="47.25729" lon="4.68049">
        <ele>539.44</ele>
        <time>2014-11-09T12:08:28Z</time>
      </trkpt>
      <trkpt lat="47.25719" lon="4.68026">
        <ele>538.96</ele>
        <time>2014-11-09T12:08:42Z</time>
      </trkpt>
      <trkpt lat="47.2571" lon="4.68001">
        <ele>537.99</ele>
        <time>2014-11-09T12:08:59Z</time>
      </trkpt>
      <trkpt lat="47.25706" lon="4.67994">
        <ele>537.51</ele>
        <time>2014-11-09T12:09:04Z</time>
      </trkpt>
      <trkpt lat="47.25696" lon="4.67975">
        <ele>536.07</ele>
        <time>2014-11-09T12:09:18Z</time>
      </trkpt>
      <trkpt lat="47.25684" lon="4.67953">
        <ele>534.63</ele>
        <time>2014-11-09T12:09:34Z</time>
      </trkpt>
      <trkpt lat="47.25672" lon="4.67932">
        <ele>533.19</ele>
        <time>2014-11-09T12:09:49Z</time>
      </trkpt>
      <trkpt lat="47.2567" lon="4.67927">
        <ele>533.19</ele>
        <time>2014-11-09T12:09:52Z</time>
      </trkpt>
      <trkpt lat="47.25658" lon="4.67902">
        <ele>532.71</ele>
        <time>2014-11-09T12:10:08Z</time>
      </trkpt>
      <trkpt lat="47.25652" lon="4.67888">
        <ele>531.27</ele>
        <time>2014-11-09T12:10:27Z</time>
      </trkpt>
      <trkpt lat="47.25642" lon="4.67871">
        <ele>530.79</ele>
        <time>2014-11-09T12:10:43Z</time>
      </trkpt>
      <trkpt lat="47.25629" lon="4.67841">
        <ele>529.82</ele>
        <time>2014-11-09T12:11:03Z</time>
      </trkpt>
      <trkpt lat="47.25622" lon="4.67831">
        <ele>528.86</ele>
        <time>2014-11-09T12:11:17Z</time>
      </trkpt>
      <trkpt lat="47.25622" lon="4.6783">
        <ele>529.34</ele>
        <time>2014-11-09T12:11:22Z</time>
      </trkpt>
      <trkpt lat="47.25616" lon="4.67817">
        <ele>529.34</ele>
        <time>2014-11-09T12:11:32Z</time>
      </trkpt>
      <trkpt lat="47.25609" lon="4.67801">
        <ele>528.86</ele>
        <time>2014-11-09T12:11:50Z</time>
      </trkpt>
      <trkpt lat="47.25609" lon="4.67801">
        <ele>528.86</ele>
        <time>2014-11-09T12:11:55Z</time>
      </trkpt>
      <trkpt lat="47.256" lon="4.6778">
        <ele>527.9</ele>
        <time>2014-11-09T12:12:11Z</time>
      </trkpt>
      <trkpt lat="47.25592" lon="4.67764">
        <ele>527.42</ele>
        <time>2014-11-09T12:12:30Z</time>
      </trkpt>
      <trkpt lat="47.25584" lon="4.67749">
        <ele>527.42</ele>
        <time>2014-11-09T12:12:43Z</time>
      </trkpt>
      <trkpt lat="47.25572" lon="4.67726">
        <ele>526.94</ele>
        <time>2014-11-09T12:12:59Z</time>
      </trkpt>
      <trkpt lat="47.25564" lon="4.67705">
        <ele>526.46</ele>
        <time>2014-11-09T12:13:14Z</time>
      </trkpt>
      <trkpt lat="47.25555" lon="4.67683">
        <ele>526.94</ele>
        <time>2014-11-09T12:13:29Z</time>
      </trkpt>
      <trkpt lat="47.25541" lon="4.67659">
        <ele>526.46</ele>
        <time>2014-11-09T12:13:46Z</time>
      </trkpt>
      <trkpt lat="47.25531" lon="4.67632">
        <ele>526.46</ele>
        <time>2014-11-09T12:14:03Z</time>
      </trkpt>
      <trkpt lat="47.25525" lon="4.67618">
        <ele>526.94</ele>
        <time>2014-11-09T12:14:19Z</time>
      </trkpt>
      <trkpt lat="47.25524" lon="4.67615">
        <ele>534.63</ele>
        <time>2014-11-09T12:37:48Z</time>
      </trkpt>
      <trkpt lat="47.25519" lon="4.67613">
        <ele>535.11</ele>
        <time>2014-11-09T12:37:55Z</time>
      </trkpt>
      <trkpt lat="47.25517" lon="4.67604">
        <ele>535.11</ele>
        <time>2014-11-09T12:38:08Z</time>
      </trkpt>
      <trkpt lat="47.25511" lon="4.67594">
        <ele>535.11</ele>
        <time>2014-11-09T12:38:16Z</time>
      </trkpt>
      <trkpt lat="47.25499" lon="4.67577">
        <ele>535.59</ele>
        <time>2014-11-09T12:38:30Z</time>
      </trkpt>
      <trkpt lat="47.25488" lon="4.67564">
        <ele>536.55</ele>
        <time>2014-11-09T12:38:43Z</time>
      </trkpt>
      <trkpt lat="47.25472" lon="4.67546">
        <ele>537.51</ele>
        <time>2014-11-09T12:38:59Z</time>
      </trkpt>
      <trkpt lat="47.25458" lon="4.67531">
        <ele>538.48</ele>
        <time>2014-11-09T12:39:15Z</time>
      </trkpt>
      <trkpt lat="47.25442" lon="4.6751">
        <ele>538.96</ele>
        <time>2014-11-09T12:39:32Z</time>
      </trkpt>
      <trkpt lat="47.25429" lon="4.67494">
        <ele>538.96</ele>
        <time>2014-11-09T12:39:46Z</time>
      </trkpt>
      <trkpt lat="47.25411" lon="4.67471">
        <ele>539.44</ele>
        <time>2014-11-09T12:40:05Z</time>
      </trkpt>
      <trkpt lat="47.25401" lon="4.67461">
        <ele>538.96</ele>
        <time>2014-11-09T12:40:16Z</time>
      </trkpt>
      <trkpt lat="47.25382" lon="4.67442">
        <ele>539.44</ele>
        <time>2014-11-09T12:40:35Z</time>
      </trkpt>
      <trkpt lat="47.25369" lon="4.67424">
        <ele>538.96</ele>
        <time>2014-11-09T12:40:49Z</time>
      </trkpt>
      <trkpt lat="47.25354" lon="4.67408">
        <ele>538.96</ele>
        <time>2014-11-09T12:41:04Z</time>
      </trkpt>
      <trkpt lat="47.25341" lon="4.6739">
        <ele>538.48</ele>
        <time>2014-11-09T12:41:18Z</time>
      </trkpt>
      <trkpt lat="47.25337" lon="4.67387">
        <ele>538.48</ele>
        <time>2014-11-09T12:41:21Z</time>
      </trkpt>
      <trkpt lat="47.25328" lon="4.67367">
        <ele>537.99</ele>
        <time>2014-11-09T12:41:35Z</time>
      </trkpt>
      <trkpt lat="47.25327" lon="4.67364">
        <ele>537.99</ele>
        <time>2014-11-09T12:41:37Z</time>
      </trkpt>
      <trkpt lat="47.25312" lon="4.67347">
        <ele>537.51</ele>
        <time>2014-11-09T12:41:51Z</time>
      </trkpt>
      <trkpt lat="47.253" lon="4.67327">
        <ele>537.51</ele>
        <time>2014-11-09T12:42:06Z</time>
      </trkpt>
      <trkpt lat="47.25286" lon="4.673">
        <ele>537.03</ele>
        <time>2014-11-09T12:42:23Z</time>
      </trkpt>
      <trkpt lat="47.2528" lon="4.67289">
        <ele>537.03</ele>
        <time>2014-11-09T12:42:35Z</time>
      </trkpt>
      <trkpt lat="47.25273" lon="4.67279">
        <ele>536.55</ele>
        <time>2014-11-09T12:42:48Z</time>
      </trkpt>
      <trkpt lat="47.25261" lon="4.6726">
        <ele>535.59</ele>
        <time>2014-11-09T12:43:03Z</time>
      </trkpt>
      <trkpt lat="47.2525" lon="4.67241">
        <ele>535.11</ele>
        <time>2014-11-09T12:43:19Z</time>
      </trkpt>
      <trkpt lat="47.25237" lon="4.67224">
        <ele>534.63</ele>
        <time>2014-11-09T12:43:33Z</time>
      </trkpt>
      <trkpt lat="47.25225" lon="4.67205">
        <ele>533.67</ele>
        <time>2014-11-09T12:43:48Z</time>
      </trkpt>
      <trkpt lat="47.25212" lon="4.67182">
        <ele>532.23</ele>
        <time>2014-11-09T12:44:05Z</time>
      </trkpt>
      <trkpt lat="47.25204" lon="4.67168">
        <ele>532.23</ele>
        <time>2014-11-09T12:44:15Z</time>
      </trkpt>
      <trkpt lat="47.25189" lon="4.67147">
        <ele>531.27</ele>
        <time>2014-11-09T12:44:32Z</time>
      </trkpt>
      <trkpt lat="47.25176" lon="4.67128">
        <ele>530.79</ele>
        <time>2014-11-09T12:44:48Z</time>
      </trkpt>
      <trkpt lat="47.25165" lon="4.6711">
        <ele>530.3</ele>
        <time>2014-11-09T12:45:01Z</time>
      </trkpt>
      <trkpt lat="47.25153" lon="4.6709">
        <ele>529.34</ele>
        <time>2014-11-09T12:45:17Z</time>
      </trkpt>
      <trkpt lat="47.25138" lon="4.67068">
        <ele>528.86</ele>
        <time>2014-11-09T12:45:34Z</time>
      </trkpt>
      <trkpt lat="47.25126" lon="4.67049">
        <ele>528.86</ele>
        <time>2014-11-09T12:45:49Z</time>
      </trkpt>
      <trkpt lat="47.25125" lon="4.67046">
        <ele>528.86</ele>
        <time>2014-11-09T12:45:51Z</time>
      </trkpt>
      <trkpt lat="47.25112" lon="4.67026">
        <ele>528.86</ele>
        <time>2014-11-09T12:46:10Z</time>
      </trkpt>
      <trkpt lat="47.25098" lon="4.67006">
        <ele>528.86</ele>
        <time>2014-11-09T12:46:28Z</time>
      </trkpt>
      <trkpt lat="47.25087" lon="4.66988">
        <ele>528.86</ele>
        <time>2014-11-09T12:46:43Z</time>
      </trkpt>
      <trkpt lat="47.2508" lon="4.66976">
        <ele>529.34</ele>
        <time>2014-11-09T12:46:53Z</time>
      </trkpt>
      <trkpt lat="47.25075" lon="4.66965">
        <ele>530.3</ele>
        <time>2014-11-09T12:47:03Z</time>
      </trkpt>
      <trkpt lat="47.25059" lon="4.66948">
        <ele>531.27</ele>
        <time>2014-11-09T12:47:19Z</time>
      </trkpt>
      <trkpt lat="47.2505" lon="4.66932">
        <ele>532.23</ele>
        <time>2014-11-09T12:47:34Z</time>
      </trkpt>
      <trkpt lat="47.25034" lon="4.66918">
        <ele>532.71</ele>
        <time>2014-11-09T12:47:48Z</time>
      </trkpt>
      <trkpt lat="47.25027" lon="4.6691">
        <ele>532.71</ele>
        <time>2014-11-09T12:47:57Z</time>
      </trkpt>
      <trkpt lat="47.25017" lon="4.66899">
        <ele>533.67</ele>
        <time>2014-11-09T12:48:08Z</time>
      </trkpt>
      <trkpt lat="47.25012" lon="4.66894">
        <ele>533.67</ele>
        <time>2014-11-09T12:48:13Z</time>
      </trkpt>
      <trkpt lat="47.24999" lon="4.66882">
        <ele>533.67</ele>
        <time>2014-11-09T12:48:27Z</time>
      </trkpt>
      <trkpt lat="47.24984" lon="4.6687">
        <ele>534.15</ele>
        <time>2014-11-09T12:48:42Z</time>
      </trkpt>
      <trkpt lat="47.24972" lon="4.66858">
        <ele>534.63</ele>
        <time>2014-11-09T12:48:56Z</time>
      </trkpt>
      <trkpt lat="47.24965" lon="4.66851">
        <ele>535.11</ele>
        <time>2014-11-09T12:49:03Z</time>
      </trkpt>
      <trkpt lat="47.24955" lon="4.66841">
        <ele>535.11</ele>
        <time>2014-11-09T12:49:15Z</time>
      </trkpt>
      <trkpt lat="47.2495" lon="4.66831">
        <ele>535.59</ele>
        <time>2014-11-09T12:49:23Z</time>
      </trkpt>
      <trkpt lat="47.24937" lon="4.66818">
        <ele>535.59</ele>
        <time>2014-11-09T12:49:36Z</time>
      </trkpt>
      <trkpt lat="47.24936" lon="4.66817">
        <ele>535.59</ele>
        <time>2014-11-09T12:49:37Z</time>
      </trkpt>
      <trkpt lat="47.24935" lon="4.66814">
        <ele>536.07</ele>
        <time>2014-11-09T12:49:39Z</time>
      </trkpt>
      <trkpt lat="47.24927" lon="4.66805">
        <ele>535.59</ele>
        <time>2014-11-09T12:49:48Z</time>
      </trkpt>
      <trkpt lat="47.24919" lon="4.66796">
        <ele>536.07</ele>
        <time>2014-11-09T12:49:54Z</time>
      </trkpt>
      <trkpt lat="47.24913" lon="4.66791">
        <ele>536.07</ele>
        <time>2014-11-09T12:50:01Z</time>
      </trkpt>
      <trkpt lat="47.24905" lon="4.66783">
        <ele>536.07</ele>
        <time>2014-11-09T12:50:10Z</time>
      </trkpt>
      <trkpt lat="47.24892" lon="4.66772">
        <ele>535.59</ele>
        <time>2014-11-09T12:50:22Z</time>
      </trkpt>
      <trkpt lat="47.24885" lon="4.66768">
        <ele>536.55</ele>
        <time>2014-11-09T12:50:29Z</time>
      </trkpt>
      <trkpt lat="47.24877" lon="4.66761">
        <ele>536.07</ele>
        <time>2014-11-09T12:50:38Z</time>
      </trkpt>
      <trkpt lat="47.24872" lon="4.6676">
        <ele>536.07</ele>
        <time>2014-11-09T12:50:42Z</time>
      </trkpt>
      <trkpt lat="47.24857" lon="4.66745">
        <ele>535.59</ele>
        <time>2014-11-09T12:50:56Z</time>
      </trkpt>
      <trkpt lat="47.24846" lon="4.6673">
        <ele>535.59</ele>
        <time>2014-11-09T12:51:10Z</time>
      </trkpt>
      <trkpt lat="47.24842" lon="4.66722">
        <ele>535.11</ele>
        <time>2014-11-09T12:51:16Z</time>
      </trkpt>
      <trkpt lat="47.24828" lon="4.66706">
        <ele>535.59</ele>
        <time>2014-11-09T12:51:31Z</time>
      </trkpt>
      <trkpt lat="47.24812" lon="4.66695">
        <ele>536.07</ele>
        <time>2014-11-09T12:51:46Z</time>
      </trkpt>
      <trkpt lat="47.24802" lon="4.66683">
        <ele>535.11</ele>
        <time>2014-11-09T12:52:00Z</time>
      </trkpt>
      <trkpt lat="47.24803" lon="4.66685">
        <ele>535.59</ele>
        <time>2014-11-09T12:52:16Z</time>
      </trkpt>
      <trkpt lat="47.24799" lon="4.66682">
        <ele>535.11</ele>
        <time>2014-11-09T12:52:36Z</time>
      </trkpt>
      <trkpt lat="47.24802" lon="4.66684">
        <ele>535.59</ele>
        <time>2014-11-09T12:52:47Z</time>
      </trkpt>
      <trkpt lat="47.24803" lon="4.66684">
        <ele>535.11</ele>
        <time>2014-11-09T12:53:02Z</time>
      </trkpt>
      <trkpt lat="47.24804" lon="4.66685">
        <ele>535.11</ele>
        <time>2014-11-09T12:53:27Z</time>
      </trkpt>
      <trkpt lat="47.24799" lon="4.66682">
        <ele>535.11</ele>
        <time>2014-11-09T12:53:41Z</time>
      </trkpt>
      <trkpt lat="47.24791" lon="4.66673">
        <ele>535.11</ele>
        <time>2014-11-09T12:53:49Z</time>
      </trkpt>
      <trkpt lat="47.24787" lon="4.66667">
        <ele>535.11</ele>
        <time>2014-11-09T12:53:54Z</time>
      </trkpt>
      <trkpt lat="47.24784" lon="4.66665">
        <ele>534.63</ele>
        <time>2014-11-09T12:53:57Z</time>
      </trkpt>
      <trkpt lat="47.24777" lon="4.66661">
        <ele>535.11</ele>
        <time>2014-11-09T12:54:02Z</time>
      </trkpt>
      <trkpt lat="47.24764" lon="4.66645">
        <ele>535.11</ele>
        <time>2014-11-09T12:54:18Z</time>
      </trkpt>
      <trkpt lat="47.24759" lon="4.66639">
        <ele>535.11</ele>
        <time>2014-11-09T12:54:29Z</time>
      </trkpt>
      <trkpt lat="47.24747" lon="4.66628">
        <ele>535.11</ele>
        <time>2014-11-09T12:54:40Z</time>
      </trkpt>
      <trkpt lat="47.24745" lon="4.66627">
        <ele>535.59</ele>
        <time>2014-11-09T12:54:42Z</time>
      </trkpt>
      <trkpt lat="47.24728" lon="4.66608">
        <ele>534.63</ele>
        <time>2014-11-09T12:54:59Z</time>
      </trkpt>
      <trkpt lat="47.24713" lon="4.66592">
        <ele>534.63</ele>
        <time>2014-11-09T12:55:15Z</time>
      </trkpt>
      <trkpt lat="47.24698" lon="4.66576">
        <ele>535.11</ele>
        <time>2014-11-09T12:55:30Z</time>
      </trkpt>
      <trkpt lat="47.24683" lon="4.6656">
        <ele>535.11</ele>
        <time>2014-11-09T12:55:44Z</time>
      </trkpt>
      <trkpt lat="47.24667" lon="4.66546">
        <ele>534.63</ele>
        <time>2014-11-09T12:55:59Z</time>
      </trkpt>
      <trkpt lat="47.24648" lon="4.66526">
        <ele>534.15</ele>
        <time>2014-11-09T12:56:15Z</time>
      </trkpt>
      <trkpt lat="47.24628" lon="4.66504">
        <ele>534.63</ele>
        <time>2014-11-09T12:56:30Z</time>
      </trkpt>
      <trkpt lat="47.24616" lon="4.6649">
        <ele>533.67</ele>
        <time>2014-11-09T12:56:42Z</time>
      </trkpt>
      <trkpt lat="47.24604" lon="4.66478">
        <ele>533.67</ele>
        <time>2014-11-09T12:56:55Z</time>
      </trkpt>
      <trkpt lat="47.24586" lon="4.66463">
        <ele>533.67</ele>
        <time>2014-11-09T12:57:11Z</time>
      </trkpt>
      <trkpt lat="47.24572" lon="4.66449">
        <ele>533.67</ele>
        <time>2014-11-09T12:57:25Z</time>
      </trkpt>
      <trkpt lat="47.24559" lon="4.66433">
        <ele>533.67</ele>
        <time>2014-11-09T12:57:39Z</time>
      </trkpt>
      <trkpt lat="47.24534" lon="4.6641">
        <ele>534.63</ele>
        <time>2014-11-09T12:58:03Z</time>
      </trkpt>
      <trkpt lat="47.2452" lon="4.66395">
        <ele>535.11</ele>
        <time>2014-11-09T12:58:17Z</time>
      </trkpt>
      <trkpt lat="47.24505" lon="4.66379">
        <ele>535.59</ele>
        <time>2014-11-09T12:58:31Z</time>
      </trkpt>
      <trkpt lat="47.24489" lon="4.66364">
        <ele>535.59</ele>
        <time>2014-11-09T12:58:47Z</time>
      </trkpt>
      <trkpt lat="47.24476" lon="4.66347">
        <ele>536.07</ele>
        <time>2014-11-09T12:59:02Z</time>
      </trkpt>
      <trkpt lat="47.24461" lon="4.66334">
        <ele>536.55</ele>
        <time>2014-11-09T12:59:16Z</time>
      </trkpt>
      <trkpt lat="47.24446" lon="4.66319">
        <ele>537.51</ele>
        <time>2014-11-09T12:59:30Z</time>
      </trkpt>
      <trkpt lat="47.2443" lon="4.66301">
        <ele>538.96</ele>
        <time>2014-11-09T12:59:47Z</time>
      </trkpt>
      <trkpt lat="47.2442" lon="4.6629">
        <ele>538.48</ele>
        <time>2014-11-09T12:59:59Z</time>
      </trkpt>
      <trkpt lat="47.24406" lon="4.66277">
        <ele>539.44</ele>
        <time>2014-11-09T13:00:14Z</time>
      </trkpt>
      <trkpt lat="47.24394" lon="4.66265">
        <ele>539.92</ele>
        <time>2014-11-09T13:00:25Z</time>
      </trkpt>
      <trkpt lat="47.24382" lon="4.66253">
        <ele>539.44</ele>
        <time>2014-11-09T13:00:38Z</time>
      </trkpt>
      <trkpt lat="47.24368" lon="4.66237">
        <ele>539.92</ele>
        <time>2014-11-09T13:00:53Z</time>
      </trkpt>
      <trkpt lat="47.24352" lon="4.66222">
        <ele>539.92</ele>
        <time>2014-11-09T13:01:09Z</time>
      </trkpt>
      <trkpt lat="47.24334" lon="4.66205">
        <ele>540.4</ele>
        <time>2014-11-09T13:01:25Z</time>
      </trkpt>
      <trkpt lat="47.24332" lon="4.66201">
        <ele>540.4</ele>
        <time>2014-11-09T13:01:28Z</time>
      </trkpt>
      <trkpt lat="47.24315" lon="4.66184">
        <ele>539.92</ele>
        <time>2014-11-09T13:01:46Z</time>
      </trkpt>
      <trkpt lat="47.24298" lon="4.66168">
        <ele>539.92</ele>
        <time>2014-11-09T13:02:02Z</time>
      </trkpt>
      <trkpt lat="47.2428" lon="4.6615">
        <ele>539.44</ele>
        <time>2014-11-09T13:02:19Z</time>
      </trkpt>
      <trkpt lat="47.24263" lon="4.66133">
        <ele>539.44</ele>
        <time>2014-11-09T13:02:34Z</time>
      </trkpt>
      <trkpt lat="47.24246" lon="4.66116">
        <ele>538.96</ele>
        <time>2014-11-09T13:02:50Z</time>
      </trkpt>
      <trkpt lat="47.24228" lon="4.66097">
        <ele>538.96</ele>
        <time>2014-11-09T13:03:07Z</time>
      </trkpt>
      <trkpt lat="47.24213" lon="4.66078">
        <ele>538.96</ele>
        <time>2014-11-09T13:03:24Z</time>
      </trkpt>
      <trkpt lat="47.24198" lon="4.66062">
        <ele>538.48</ele>
        <time>2014-11-09T13:03:39Z</time>
      </trkpt>
      <trkpt lat="47.24181" lon="4.66042">
        <ele>537.99</ele>
        <time>2014-11-09T13:03:55Z</time>
      </trkpt>
      <trkpt lat="47.24165" lon="4.66026">
        <ele>537.99</ele>
        <time>2014-11-09T13:04:11Z</time>
      </trkpt>
      <trkpt lat="47.24151" lon="4.66009">
        <ele>537.51</ele>
        <time>2014-11-09T13:04:25Z</time>
      </trkpt>
      <trkpt lat="47.24137" lon="4.65996">
        <ele>537.03</ele>
        <time>2014-11-09T13:04:39Z</time>
      </trkpt>
      <trkpt lat="47.24124" lon="4.65981">
        <ele>537.51</ele>
        <time>2014-11-09T13:04:52Z</time>
      </trkpt>
      <trkpt lat="47.24108" lon="4.65964">
        <ele>537.03</ele>
        <time>2014-11-09T13:05:08Z</time>
      </trkpt>
      <trkpt lat="47.24093" lon="4.65949">
        <ele>537.03</ele>
        <time>2014-11-09T13:05:23Z</time>
      </trkpt>
      <trkpt lat="47.24092" lon="4.65949">
        <ele>537.03</ele>
        <time>2014-11-09T13:05:24Z</time>
      </trkpt>
      <trkpt lat="47.24091" lon="4.65948">
        <ele>537.51</ele>
        <time>2014-11-09T13:05:25Z</time>
      </trkpt>
      <trkpt lat="47.24077" lon="4.65934">
        <ele>536.55</ele>
        <time>2014-11-09T13:05:39Z</time>
      </trkpt>
      <trkpt lat="47.24076" lon="4.65933">
        <ele>537.03</ele>
        <time>2014-11-09T13:05:40Z</time>
      </trkpt>
      <trkpt lat="47.24075" lon="4.65932">
        <ele>537.03</ele>
        <time>2014-11-09T13:05:41Z</time>
      </trkpt>
      <trkpt lat="47.24059" lon="4.65917">
        <ele>537.03</ele>
        <time>2014-11-09T13:05:58Z</time>
      </trkpt>
      <trkpt lat="47.2404" lon="4.65901">
        <ele>537.03</ele>
        <time>2014-11-09T13:06:14Z</time>
      </trkpt>
      <trkpt lat="47.24024" lon="4.65884">
        <ele>537.51</ele>
        <time>2014-11-09T13:06:30Z</time>
      </trkpt>
      <trkpt lat="47.24007" lon="4.65866">
        <ele>537.51</ele>
        <time>2014-11-09T13:06:46Z</time>
      </trkpt>
      <trkpt lat="47.23994" lon="4.65852">
        <ele>537.51</ele>
        <time>2014-11-09T13:06:59Z</time>
      </trkpt>
      <trkpt lat="47.2398" lon="4.65837">
        <ele>537.51</ele>
        <time>2014-11-09T13:07:13Z</time>
      </trkpt>
      <trkpt lat="47.23966" lon="4.6582">
        <ele>537.03</ele>
        <time>2014-11-09T13:07:28Z</time>
      </trkpt>
      <trkpt lat="47.23959" lon="4.65813">
        <ele>537.51</ele>
        <time>2014-11-09T13:07:42Z</time>
      </trkpt>
      <trkpt lat="47.23953" lon="4.65808">
        <ele>537.51</ele>
        <time>2014-11-09T13:07:50Z</time>
      </trkpt>
      <trkpt lat="47.23946" lon="4.65803">
        <ele>537.51</ele>
        <time>2014-11-09T13:08:01Z</time>
      </trkpt>
      <trkpt lat="47.2394" lon="4.65796">
        <ele>537.51</ele>
        <time>2014-11-09T13:08:13Z</time>
      </trkpt>
      <trkpt lat="47.23931" lon="4.65786">
        <ele>537.51</ele>
        <time>2014-11-09T13:08:25Z</time>
      </trkpt>
      <trkpt lat="47.23919" lon="4.65771">
        <ele>537.99</ele>
        <time>2014-11-09T13:08:41Z</time>
      </trkpt>
      <trkpt lat="47.2391" lon="4.65756">
        <ele>537.99</ele>
        <time>2014-11-09T13:08:55Z</time>
      </trkpt>
      <trkpt lat="47.23896" lon="4.6575">
        <ele>538.96</ele>
        <time>2014-11-09T13:09:11Z</time>
      </trkpt>
      <trkpt lat="47.23883" lon="4.65737">
        <ele>539.44</ele>
        <time>2014-11-09T13:09:27Z</time>
      </trkpt>
      <trkpt lat="47.2387" lon="4.65723">
        <ele>539.92</ele>
        <time>2014-11-09T13:09:43Z</time>
      </trkpt>
      <trkpt lat="47.23857" lon="4.65709">
        <ele>540.4</ele>
        <time>2014-11-09T13:09:58Z</time>
      </trkpt>
      <trkpt lat="47.23843" lon="4.65693">
        <ele>540.4</ele>
        <time>2014-11-09T13:10:11Z</time>
      </trkpt>
      <trkpt lat="47.23832" lon="4.65683">
        <ele>540.88</ele>
        <time>2014-11-09T13:10:24Z</time>
      </trkpt>
      <trkpt lat="47.23827" lon="4.65673">
        <ele>540.88</ele>
        <time>2014-11-09T13:10:31Z</time>
      </trkpt>
      <trkpt lat="47.23813" lon="4.65659">
        <ele>541.36</ele>
        <time>2014-11-09T13:10:46Z</time>
      </trkpt>
      <trkpt lat="47.23796" lon="4.65644">
        <ele>541.36</ele>
        <time>2014-11-09T13:11:03Z</time>
      </trkpt>
      <trkpt lat="47.23783" lon="4.65633">
        <ele>541.36</ele>
        <time>2014-11-09T13:11:14Z</time>
      </trkpt>
      <trkpt lat="47.2377" lon="4.65617">
        <ele>541.36</ele>
        <time>2014-11-09T13:11:29Z</time>
      </trkpt>
      <trkpt lat="47.23767" lon="4.65611">
        <ele>541.84</ele>
        <time>2014-11-09T13:11:35Z</time>
      </trkpt>
      <trkpt lat="47.23765" lon="4.65609">
        <ele>541.84</ele>
        <time>2014-11-09T13:11:36Z</time>
      </trkpt>
      <trkpt lat="47.23752" lon="4.65588">
        <ele>541.36</ele>
        <time>2014-11-09T13:11:52Z</time>
      </trkpt>
      <trkpt lat="47.23741" lon="4.65573">
        <ele>541.84</ele>
        <time>2014-11-09T13:12:05Z</time>
      </trkpt>
      <trkpt lat="47.23729" lon="4.65556">
        <ele>541.84</ele>
        <time>2014-11-09T13:12:20Z</time>
      </trkpt>
      <trkpt lat="47.23714" lon="4.65537">
        <ele>541.84</ele>
        <time>2014-11-09T13:12:37Z</time>
      </trkpt>
      <trkpt lat="47.23709" lon="4.65532">
        <ele>541.36</ele>
        <time>2014-11-09T13:12:43Z</time>
      </trkpt>
      <trkpt lat="47.23695" lon="4.65518">
        <ele>541.36</ele>
        <time>2014-11-09T13:12:57Z</time>
      </trkpt>
      <trkpt lat="47.23683" lon="4.655">
        <ele>540.88</ele>
        <time>2014-11-09T13:13:12Z</time>
      </trkpt>
      <trkpt lat="47.2368" lon="4.65497">
        <ele>540.88</ele>
        <time>2014-11-09T13:13:15Z</time>
      </trkpt>
      <trkpt lat="47.23678" lon="4.65496">
        <ele>540.88</ele>
        <time>2014-11-09T13:13:16Z</time>
      </trkpt>
      <trkpt lat="47.23674" lon="4.65492">
        <ele>540.88</ele>
        <time>2014-11-09T13:13:20Z</time>
      </trkpt>
      <trkpt lat="47.23661" lon="4.65476">
        <ele>540.4</ele>
        <time>2014-11-09T13:13:35Z</time>
      </trkpt>
      <trkpt lat="47.2365" lon="4.65461">
        <ele>540.4</ele>
        <time>2014-11-09T13:13:47Z</time>
      </trkpt>
      <trkpt lat="47.23648" lon="4.65459">
        <ele>540.4</ele>
        <time>2014-11-09T13:13:49Z</time>
      </trkpt>
      <trkpt lat="47.23636" lon="4.65443">
        <ele>539.92</ele>
        <time>2014-11-09T13:14:03Z</time>
      </trkpt>
      <trkpt lat="47.23626" lon="4.65423">
        <ele>538.96</ele>
        <time>2014-11-09T13:14:19Z</time>
      </trkpt>
      <trkpt lat="47.23614" lon="4.65403">
        <ele>537.99</ele>
        <time>2014-11-09T13:14:35Z</time>
      </trkpt>
      <trkpt lat="47.23602" lon="4.65388">
        <ele>537.51</ele>
        <time>2014-11-09T13:14:52Z</time>
      </trkpt>
      <trkpt lat="47.23601" lon="4.65387">
        <ele>537.03</ele>
        <time>2014-11-09T13:14:53Z</time>
      </trkpt>
      <trkpt lat="47.23588" lon="4.65367">
        <ele>536.55</ele>
        <time>2014-11-09T13:15:08Z</time>
      </trkpt>
      <trkpt lat="47.23572" lon="4.65346">
        <ele>535.59</ele>
        <time>2014-11-09T13:15:26Z</time>
      </trkpt>
      <trkpt lat="47.23563" lon="4.65334">
        <ele>534.63</ele>
        <time>2014-11-09T13:15:36Z</time>
      </trkpt>
      <trkpt lat="47.23547" lon="4.65315">
        <ele>534.15</ele>
        <time>2014-11-09T13:15:52Z</time>
      </trkpt>
      <trkpt lat="47.23536" lon="4.65298">
        <ele>533.67</ele>
        <time>2014-11-09T13:16:08Z</time>
      </trkpt>
      <trkpt lat="47.2353" lon="4.65283">
        <ele>532.71</ele>
        <time>2014-11-09T13:16:22Z</time>
      </trkpt>
      <trkpt lat="47.23521" lon="4.65255">
        <ele>531.75</ele>
        <time>2014-11-09T13:16:37Z</time>
      </trkpt>
      <trkpt lat="47.23512" lon="4.65233">
        <ele>531.27</ele>
        <time>2014-11-09T13:16:53Z</time>
      </trkpt>
      <trkpt lat="47.23502" lon="4.65208">
        <ele>529.82</ele>
        <time>2014-11-09T13:17:10Z</time>
      </trkpt>
      <trkpt lat="47.23497" lon="4.65185">
        <ele>529.34</ele>
        <time>2014-11-09T13:17:26Z</time>
      </trkpt>
      <trkpt lat="47.23494" lon="4.6516">
        <ele>528.38</ele>
        <time>2014-11-09T13:17:40Z</time>
      </trkpt>
      <trkpt lat="47.23495" lon="4.65131">
        <ele>526.94</ele>
        <time>2014-11-09T13:17:57Z</time>
      </trkpt>
      <trkpt lat="47.23495" lon="4.65111">
        <ele>526.46</ele>
        <time>2014-11-09T13:18:11Z</time>
      </trkpt>
      <trkpt lat="47.23493" lon="4.65092">
        <ele>525.5</ele>
        <time>2014-11-09T13:18:23Z</time>
      </trkpt>
      <trkpt lat="47.23491" lon="4.65071">
        <ele>524.54</ele>
        <time>2014-11-09T13:18:38Z</time>
      </trkpt>
      <trkpt lat="47.2349" lon="4.65055">
        <ele>523.58</ele>
        <time>2014-11-09T13:18:52Z</time>
      </trkpt>
      <trkpt lat="47.2349" lon="4.6504">
        <ele>523.58</ele>
        <time>2014-11-09T13:19:09Z</time>
      </trkpt>
      <trkpt lat="47.23483" lon="4.65029">
        <ele>522.61</ele>
        <time>2014-11-09T13:19:22Z</time>
      </trkpt>
      <trkpt lat="47.23479" lon="4.65021">
        <ele>522.13</ele>
        <time>2014-11-09T13:19:33Z</time>
      </trkpt>
      <trkpt lat="47.23472" lon="4.65006">
        <ele>521.17</ele>
        <time>2014-11-09T13:19:51Z</time>
      </trkpt>
      <trkpt lat="47.23462" lon="4.6499">
        <ele>521.17</ele>
        <time>2014-11-09T13:20:04Z</time>
      </trkpt>
      <trkpt lat="47.23457" lon="4.64969">
        <ele>520.21</ele>
        <time>2014-11-09T13:20:17Z</time>
      </trkpt>
      <trkpt lat="47.23446" lon="4.64948">
        <ele>520.21</ele>
        <time>2014-11-09T13:20:30Z</time>
      </trkpt>
      <trkpt lat="47.23439" lon="4.64929">
        <ele>520.21</ele>
        <time>2014-11-09T13:20:44Z</time>
      </trkpt>
      <trkpt lat="47.23431" lon="4.64904">
        <ele>520.21</ele>
        <time>2014-11-09T13:20:59Z</time>
      </trkpt>
      <trkpt lat="47.23421" lon="4.64883">
        <ele>520.21</ele>
        <time>2014-11-09T13:21:15Z</time>
      </trkpt>
      <trkpt lat="47.23418" lon="4.64868">
        <ele>520.21</ele>
        <time>2014-11-09T13:21:30Z</time>
      </trkpt>
      <trkpt lat="47.2341" lon="4.64847">
        <ele>520.21</ele>
        <time>2014-11-09T13:21:44Z</time>
      </trkpt>
      <trkpt lat="47.23408" lon="4.6484">
        <ele>520.21</ele>
        <time>2014-11-09T13:21:47Z</time>
      </trkpt>
      <trkpt lat="47.23397" lon="4.64819">
        <ele>520.21</ele>
        <time>2014-11-09T13:22:04Z</time>
      </trkpt>
      <trkpt lat="47.23394" lon="4.64815">
        <ele>520.21</ele>
        <time>2014-11-09T13:22:07Z</time>
      </trkpt>
      <trkpt lat="47.23393" lon="4.64814">
        <ele>520.21</ele>
        <time>2014-11-09T13:22:08Z</time>
      </trkpt>
      <trkpt lat="47.23377" lon="4.648">
        <ele>519.73</ele>
        <time>2014-11-09T13:22:24Z</time>
      </trkpt>
      <trkpt lat="47.23373" lon="4.64794">
        <ele>519.73</ele>
        <time>2014-11-09T13:22:29Z</time>
      </trkpt>
      <trkpt lat="47.23357" lon="4.64775">
        <ele>519.73</ele>
        <time>2014-11-09T13:22:46Z</time>
      </trkpt>
      <trkpt lat="47.23349" lon="4.64757">
        <ele>519.25</ele>
        <time>2014-11-09T13:22:59Z</time>
      </trkpt>
      <trkpt lat="47.23336" lon="4.64735">
        <ele>519.25</ele>
        <time>2014-11-09T13:23:15Z</time>
      </trkpt>
      <trkpt lat="47.23327" lon="4.64714">
        <ele>519.25</ele>
        <time>2014-11-09T13:23:30Z</time>
      </trkpt>
      <trkpt lat="47.23315" lon="4.64688">
        <ele>518.77</ele>
        <time>2014-11-09T13:23:48Z</time>
      </trkpt>
      <trkpt lat="47.23304" lon="4.64666">
        <ele>518.77</ele>
        <time>2014-11-09T13:24:03Z</time>
      </trkpt>
      <trkpt lat="47.23295" lon="4.64651">
        <ele>518.77</ele>
        <time>2014-11-09T13:24:15Z</time>
      </trkpt>
      <trkpt lat="47.23283" lon="4.64632">
        <ele>517.81</ele>
        <time>2014-11-09T13:24:32Z</time>
      </trkpt>
      <trkpt lat="47.23272" lon="4.64613">
        <ele>517.33</ele>
        <time>2014-11-09T13:24:48Z</time>
      </trkpt>
      <trkpt lat="47.2326" lon="4.64595">
        <ele>517.33</ele>
        <time>2014-11-09T13:25:02Z</time>
      </trkpt>
      <trkpt lat="47.23252" lon="4.6458">
        <ele>516.85</ele>
        <time>2014-11-09T13:25:15Z</time>
      </trkpt>
      <trkpt lat="47.23238" lon="4.64562">
        <ele>516.37</ele>
        <time>2014-11-09T13:25:32Z</time>
      </trkpt>
      <trkpt lat="47.23222" lon="4.64544">
        <ele>515.88</ele>
        <time>2014-11-09T13:25:48Z</time>
      </trkpt>
      <trkpt lat="47.2321" lon="4.64529">
        <ele>515.88</ele>
        <time>2014-11-09T13:26:03Z</time>
      </trkpt>
      <trkpt lat="47.232" lon="4.64513">
        <ele>515.88</ele>
        <time>2014-11-09T13:26:17Z</time>
      </trkpt>
      <trkpt lat="47.23186" lon="4.64496">
        <ele>515.4</ele>
        <time>2014-11-09T13:26:34Z</time>
      </trkpt>
      <trkpt lat="47.23172" lon="4.64482">
        <ele>515.4</ele>
        <time>2014-11-09T13:26:48Z</time>
      </trkpt>
      <trkpt lat="47.23153" lon="4.64471">
        <ele>514.92</ele>
        <time>2014-11-09T13:27:04Z</time>
      </trkpt>
      <trkpt lat="47.2314" lon="4.64465">
        <ele>514.44</ele>
        <time>2014-11-09T13:27:19Z</time>
      </trkpt>
      <trkpt lat="47.23124" lon="4.64457">
        <ele>514.44</ele>
        <time>2014-11-09T13:27:34Z</time>
      </trkpt>
      <trkpt lat="47.23107" lon="4.6445">
        <ele>513.96</ele>
        <time>2014-11-09T13:27:49Z</time>
      </trkpt>
      <trkpt lat="47.23092" lon="4.64438">
        <ele>513.96</ele>
        <time>2014-11-09T13:28:05Z</time>
      </trkpt>
      <trkpt lat="47.23081" lon="4.64427">
        <ele>513.48</ele>
        <time>2014-11-09T13:28:19Z</time>
      </trkpt>
      <trkpt lat="47.23071" lon="4.64422">
        <ele>513.48</ele>
        <time>2014-11-09T13:28:32Z</time>
      </trkpt>
      <trkpt lat="47.23055" lon="4.64409">
        <ele>513</ele>
        <time>2014-11-09T13:28:47Z</time>
      </trkpt>
      <trkpt lat="47.23037" lon="4.64397">
        <ele>513</ele>
        <time>2014-11-09T13:29:02Z</time>
      </trkpt>
      <trkpt lat="47.23019" lon="4.64383">
        <ele>512.52</ele>
        <time>2014-11-09T13:29:17Z</time>
      </trkpt>
      <trkpt lat="47.23003" lon="4.64371">
        <ele>511.56</ele>
        <time>2014-11-09T13:29:34Z</time>
      </trkpt>
      <trkpt lat="47.22984" lon="4.6436">
        <ele>511.08</ele>
        <time>2014-11-09T13:29:52Z</time>
      </trkpt>
      <trkpt lat="47.22967" lon="4.6435">
        <ele>510.6</ele>
        <time>2014-11-09T13:30:07Z</time>
      </trkpt>
      <trkpt lat="47.22956" lon="4.64348">
        <ele>510.12</ele>
        <time>2014-11-09T13:30:16Z</time>
      </trkpt>
      <trkpt lat="47.22951" lon="4.64347">
        <ele>510.12</ele>
        <time>2014-11-09T13:30:21Z</time>
      </trkpt>
      <trkpt lat="47.22937" lon="4.64344">
        <ele>509.64</ele>
        <time>2014-11-09T13:30:35Z</time>
      </trkpt>
      <trkpt lat="47.22923" lon="4.64344">
        <ele>509.64</ele>
        <time>2014-11-09T13:30:47Z</time>
      </trkpt>
      <trkpt lat="47.22909" lon="4.64349">
        <ele>509.16</ele>
        <time>2014-11-09T13:31:00Z</time>
      </trkpt>
      <trkpt lat="47.22894" lon="4.64351">
        <ele>508.19</ele>
        <time>2014-11-09T13:31:14Z</time>
      </trkpt>
      <trkpt lat="47.22881" lon="4.64355">
        <ele>507.71</ele>
        <time>2014-11-09T13:31:26Z</time>
      </trkpt>
      <trkpt lat="47.22864" lon="4.64355">
        <ele>507.23</ele>
        <time>2014-11-09T13:31:41Z</time>
      </trkpt>
      <trkpt lat="47.22849" lon="4.64355">
        <ele>506.75</ele>
        <time>2014-11-09T13:31:55Z</time>
      </trkpt>
      <trkpt lat="47.2283" lon="4.64349">
        <ele>506.27</ele>
        <time>2014-11-09T13:32:11Z</time>
      </trkpt>
      <trkpt lat="47.22815" lon="4.64349">
        <ele>505.31</ele>
        <time>2014-11-09T13:32:26Z</time>
      </trkpt>
      <trkpt lat="47.22798" lon="4.64347">
        <ele>504.35</ele>
        <time>2014-11-09T13:32:41Z</time>
      </trkpt>
      <trkpt lat="47.2278" lon="4.64347">
        <ele>503.87</ele>
        <time>2014-11-09T13:32:56Z</time>
      </trkpt>
      <trkpt lat="47.22763" lon="4.64347">
        <ele>503.39</ele>
        <time>2014-11-09T13:33:12Z</time>
      </trkpt>
      <trkpt lat="47.22739" lon="4.64348">
        <ele>502.43</ele>
        <time>2014-11-09T13:33:32Z</time>
      </trkpt>
      <trkpt lat="47.22717" lon="4.64343">
        <ele>501.46</ele>
        <time>2014-11-09T13:33:50Z</time>
      </trkpt>
      <trkpt lat="47.22701" lon="4.64337">
        <ele>500.5</ele>
        <time>2014-11-09T13:34:05Z</time>
      </trkpt>
      <trkpt lat="47.22694" lon="4.64335">
        <ele>500.02</ele>
        <time>2014-11-09T13:34:11Z</time>
      </trkpt>
      <trkpt lat="47.22689" lon="4.64333">
        <ele>500.02</ele>
        <time>2014-11-09T13:34:15Z</time>
      </trkpt>
      <trkpt lat="47.22672" lon="4.6433">
        <ele>499.54</ele>
        <time>2014-11-09T13:34:31Z</time>
      </trkpt>
      <trkpt lat="47.22655" lon="4.64329">
        <ele>498.58</ele>
        <time>2014-11-09T13:34:47Z</time>
      </trkpt>
      <trkpt lat="47.22639" lon="4.64322">
        <ele>498.58</ele>
        <time>2014-11-09T13:35:02Z</time>
      </trkpt>
      <trkpt lat="47.22621" lon="4.64315">
        <ele>497.14</ele>
        <time>2014-11-09T13:35:20Z</time>
      </trkpt>
      <trkpt lat="47.22607" lon="4.64299">
        <ele>497.14</ele>
        <time>2014-11-09T13:35:35Z</time>
      </trkpt>
      <trkpt lat="47.22591" lon="4.64286">
        <ele>496.66</ele>
        <time>2014-11-09T13:35:50Z</time>
      </trkpt>
      <trkpt lat="47.22579" lon="4.64273">
        <ele>497.14</ele>
        <time>2014-11-09T13:36:04Z</time>
      </trkpt>
      <trkpt lat="47.22564" lon="4.64262">
        <ele>496.66</ele>
        <time>2014-11-09T13:36:20Z</time>
      </trkpt>
      <trkpt lat="47.22561" lon="4.6426">
        <ele>497.14</ele>
        <time>2014-11-09T13:36:22Z</time>
      </trkpt>
      <trkpt lat="47.22542" lon="4.64258">
        <ele>496.66</ele>
        <time>2014-11-09T13:36:38Z</time>
      </trkpt>
      <trkpt lat="47.22535" lon="4.64257">
        <ele>496.66</ele>
        <time>2014-11-09T13:36:45Z</time>
      </trkpt>
      <trkpt lat="47.2253" lon="4.64255">
        <ele>496.66</ele>
        <time>2014-11-09T13:36:50Z</time>
      </trkpt>
      <trkpt lat="47.2252" lon="4.6425">
        <ele>497.14</ele>
        <time>2014-11-09T13:37:02Z</time>
      </trkpt>
      <trkpt lat="47.2251" lon="4.64245">
        <ele>496.66</ele>
        <time>2014-11-09T13:37:13Z</time>
      </trkpt>
      <trkpt lat="47.22488" lon="4.64236">
        <ele>497.62</ele>
        <time>2014-11-09T13:37:31Z</time>
      </trkpt>
      <trkpt lat="47.22468" lon="4.64225">
        <ele>498.1</ele>
        <time>2014-11-09T13:37:49Z</time>
      </trkpt>
      <trkpt lat="47.22454" lon="4.64218">
        <ele>498.1</ele>
        <time>2014-11-09T13:38:04Z</time>
      </trkpt>
      <trkpt lat="47.22433" lon="4.64208">
        <ele>498.58</ele>
        <time>2014-11-09T13:38:24Z</time>
      </trkpt>
      <trkpt lat="47.22416" lon="4.64201">
        <ele>498.58</ele>
        <time>2014-11-09T13:38:42Z</time>
      </trkpt>
      <trkpt lat="47.22397" lon="4.64193">
        <ele>498.1</ele>
        <time>2014-11-09T13:38:59Z</time>
      </trkpt>
      <trkpt lat="47.22376" lon="4.64177">
        <ele>498.1</ele>
        <time>2014-11-09T13:39:20Z</time>
      </trkpt>
      <trkpt lat="47.22358" lon="4.64165">
        <ele>497.14</ele>
        <time>2014-11-09T13:39:39Z</time>
      </trkpt>
      <trkpt lat="47.22336" lon="4.6415">
        <ele>496.66</ele>
        <time>2014-11-09T13:40:00Z</time>
      </trkpt>
      <trkpt lat="47.22313" lon="4.64139">
        <ele>495.7</ele>
        <time>2014-11-09T13:40:21Z</time>
      </trkpt>
      <trkpt lat="47.22295" lon="4.64128">
        <ele>495.22</ele>
        <time>2014-11-09T13:40:40Z</time>
      </trkpt>
      <trkpt lat="47.22274" lon="4.64117">
        <ele>494.26</ele>
        <time>2014-11-09T13:40:58Z</time>
      </trkpt>
      <trkpt lat="47.22253" lon="4.64103">
        <ele>492.81</ele>
        <time>2014-11-09T13:41:17Z</time>
      </trkpt>
      <trkpt lat="47.22235" lon="4.64096">
        <ele>492.81</ele>
        <time>2014-11-09T13:41:35Z</time>
      </trkpt>
      <trkpt lat="47.22217" lon="4.64091">
        <ele>492.33</ele>
        <time>2014-11-09T13:41:51Z</time>
      </trkpt>
      <trkpt lat="47.22203" lon="4.64089">
        <ele>491.37</ele>
        <time>2014-11-09T13:42:05Z</time>
      </trkpt>
      <trkpt lat="47.22184" lon="4.64086">
        <ele>490.89</ele>
        <time>2014-11-09T13:42:21Z</time>
      </trkpt>
      <trkpt lat="47.22167" lon="4.64083">
        <ele>489.93</ele>
        <time>2014-11-09T13:42:37Z</time>
      </trkpt>
      <trkpt lat="47.22146" lon="4.6408">
        <ele>489.45</ele>
        <time>2014-11-09T13:42:55Z</time>
      </trkpt>
      <trkpt lat="47.22125" lon="4.64077">
        <ele>488.01</ele>
        <time>2014-11-09T13:43:13Z</time>
      </trkpt>
      <trkpt lat="47.22106" lon="4.64073">
        <ele>487.53</ele>
        <time>2014-11-09T13:43:31Z</time>
      </trkpt>
      <trkpt lat="47.22105" lon="4.64074">
        <ele>487.53</ele>
        <time>2014-11-09T13:43:32Z</time>
      </trkpt>
      <trkpt lat="47.22094" lon="4.64076">
        <ele>487.05</ele>
        <time>2014-11-09T13:43:40Z</time>
      </trkpt>
      <trkpt lat="47.2208" lon="4.64076">
        <ele>486.08</ele>
        <time>2014-11-09T13:43:53Z</time>
      </trkpt>
      <trkpt lat="47.22078" lon="4.64075">
        <ele>485.6</ele>
        <time>2014-11-09T13:43:55Z</time>
      </trkpt>
      <trkpt lat="47.22076" lon="4.64075">
        <ele>485.6</ele>
        <time>2014-11-09T13:43:56Z</time>
      </trkpt>
      <trkpt lat="47.22071" lon="4.64073">
        <ele>485.6</ele>
        <time>2014-11-09T13:44:01Z</time>
      </trkpt>
      <trkpt lat="47.22058" lon="4.64065">
        <ele>485.12</ele>
        <time>2014-11-09T13:44:14Z</time>
      </trkpt>
      <trkpt lat="47.22047" lon="4.64057">
        <ele>484.64</ele>
        <time>2014-11-09T13:44:25Z</time>
      </trkpt>
      <trkpt lat="47.22044" lon="4.64056">
        <ele>484.16</ele>
        <time>2014-11-09T13:44:27Z</time>
      </trkpt>
      <trkpt lat="47.22043" lon="4.64055">
        <ele>484.16</ele>
        <time>2014-11-09T13:44:28Z</time>
      </trkpt>
      <trkpt lat="47.22042" lon="4.64055">
        <ele>484.64</ele>
        <time>2014-11-09T13:44:29Z</time>
      </trkpt>
      <trkpt lat="47.22029" lon="4.64048">
        <ele>483.68</ele>
        <time>2014-11-09T13:44:41Z</time>
      </trkpt>
      <trkpt lat="47.22009" lon="4.64037">
        <ele>482.72</ele>
        <time>2014-11-09T13:44:59Z</time>
      </trkpt>
      <trkpt lat="47.21995" lon="4.64028">
        <ele>481.76</ele>
        <time>2014-11-09T13:45:14Z</time>
      </trkpt>
      <trkpt lat="47.21993" lon="4.64028">
        <ele>481.76</ele>
        <time>2014-11-09T13:45:15Z</time>
      </trkpt>
      <trkpt lat="47.21992" lon="4.64028">
        <ele>481.76</ele>
        <time>2014-11-09T13:45:16Z</time>
      </trkpt>
      <trkpt lat="47.21975" lon="4.64019">
        <ele>481.28</ele>
        <time>2014-11-09T13:45:32Z</time>
      </trkpt>
      <trkpt lat="47.21974" lon="4.64018">
        <ele>481.28</ele>
        <time>2014-11-09T13:45:33Z</time>
      </trkpt>
      <trkpt lat="47.21973" lon="4.64018">
        <ele>480.8</ele>
        <time>2014-11-09T13:45:34Z</time>
      </trkpt>
      <trkpt lat="47.21972" lon="4.64017">
        <ele>480.8</ele>
        <time>2014-11-09T13:45:35Z</time>
      </trkpt>
      <trkpt lat="47.2197" lon="4.64008">
        <ele>480.32</ele>
        <time>2014-11-09T13:45:47Z</time>
      </trkpt>
      <trkpt lat="47.21972" lon="4.63996">
        <ele>479.84</ele>
        <time>2014-11-09T13:45:56Z</time>
      </trkpt>
      <trkpt lat="47.21972" lon="4.63984">
        <ele>479.35</ele>
        <time>2014-11-09T13:46:04Z</time>
      </trkpt>
      <trkpt lat="47.21973" lon="4.6397">
        <ele>477.43</ele>
        <time>2014-11-09T13:46:15Z</time>
      </trkpt>
      <trkpt lat="47.21972" lon="4.63947">
        <ele>475.03</ele>
        <time>2014-11-09T13:46:31Z</time>
      </trkpt>
      <trkpt lat="47.2197" lon="4.6394">
        <ele>475.51</ele>
        <time>2014-11-09T13:46:46Z</time>
      </trkpt>
      <trkpt lat="47.21975" lon="4.6394">
        <ele>475.03</ele>
        <time>2014-11-09T13:47:07Z</time>
      </trkpt>
      <trkpt lat="47.21972" lon="4.63942">
        <ele>475.03</ele>
        <time>2014-11-09T13:47:22Z</time>
      </trkpt>
      <trkpt lat="47.21971" lon="4.63942">
        <ele>475.03</ele>
        <time>2014-11-09T13:47:38Z</time>
      </trkpt>
      <trkpt lat="47.21975" lon="4.63941">
        <ele>475.03</ele>
        <time>2014-11-09T13:47:54Z</time>
      </trkpt>
      <trkpt lat="47.21973" lon="4.63949">
        <ele>474.55</ele>
        <time>2014-11-09T13:48:24Z</time>
      </trkpt>
      <trkpt lat="47.21972" lon="4.63952">
        <ele>475.03</ele>
        <time>2014-11-09T13:48:40Z</time>
      </trkpt>
      <trkpt lat="47.2197" lon="4.63953">
        <ele>475.03</ele>
        <time>2014-11-09T13:49:01Z</time>
      </trkpt>
      <trkpt lat="47.21971" lon="4.63955">
        <ele>475.03</ele>
        <time>2014-11-09T13:49:07Z</time>
      </trkpt>
      <trkpt lat="47.21971" lon="4.63959">
        <ele>475.03</ele>
        <time>2014-11-09T13:49:10Z</time>
      </trkpt>
      <trkpt lat="47.21971" lon="4.63963">
        <ele>475.51</ele>
        <time>2014-11-09T13:49:13Z</time>
      </trkpt>
      <trkpt lat="47.2197" lon="4.63976">
        <ele>477.43</ele>
        <time>2014-11-09T13:49:25Z</time>
      </trkpt>
      <trkpt lat="47.2197" lon="4.6398">
        <ele>476.95</ele>
        <time>2014-11-09T13:49:27Z</time>
      </trkpt>
      <trkpt lat="47.21971" lon="4.63992">
        <ele>477.91</ele>
        <time>2014-11-09T13:49:34Z</time>
      </trkpt>
      <trkpt lat="47.21971" lon="4.63995">
        <ele>478.87</ele>
        <time>2014-11-09T13:49:36Z</time>
      </trkpt>
      <trkpt lat="47.21967" lon="4.64016">
        <ele>479.84</ele>
        <time>2014-11-09T13:49:51Z</time>
      </trkpt>
      <trkpt lat="47.21955" lon="4.64018">
        <ele>478.39</ele>
        <time>2014-11-09T13:50:07Z</time>
      </trkpt>
      <trkpt lat="47.21947" lon="4.64023">
        <ele>477.91</ele>
        <time>2014-11-09T13:50:17Z</time>
      </trkpt>
      <trkpt lat="47.21941" lon="4.64024">
        <ele>476.95</ele>
        <time>2014-11-09T13:50:21Z</time>
      </trkpt>
      <trkpt lat="47.2194" lon="4.64025">
        <ele>476.95</ele>
        <time>2014-11-09T13:50:22Z</time>
      </trkpt>
      <trkpt lat="47.21938" lon="4.64024">
        <ele>476.95</ele>
        <time>2014-11-09T13:50:23Z</time>
      </trkpt>
      <trkpt lat="47.21937" lon="4.64024">
        <ele>476.95</ele>
        <time>2014-11-09T13:50:24Z</time>
      </trkpt>
      <trkpt lat="47.21935" lon="4.64011">
        <ele>477.43</ele>
        <time>2014-11-09T13:50:35Z</time>
      </trkpt>
      <trkpt lat="47.21931" lon="4.64">
        <ele>477.43</ele>
        <time>2014-11-09T13:50:49Z</time>
      </trkpt>
      <trkpt lat="47.21932" lon="4.64004">
        <ele>477.43</ele>
        <time>2014-11-09T13:51:01Z</time>
      </trkpt>
      <trkpt lat="47.2193" lon="4.64016">
        <ele>476.95</ele>
        <time>2014-11-09T13:51:11Z</time>
      </trkpt>
      <trkpt lat="47.21929" lon="4.64017">
        <ele>476.95</ele>
        <time>2014-11-09T13:51:13Z</time>
      </trkpt>
      <trkpt lat="47.21926" lon="4.64017">
        <ele>476.95</ele>
        <time>2014-11-09T13:51:15Z</time>
      </trkpt>
      <trkpt lat="47.21913" lon="4.64021">
        <ele>476.47</ele>
        <time>2014-11-09T13:51:30Z</time>
      </trkpt>
      <trkpt lat="47.21909" lon="4.64005">
        <ele>475.99</ele>
        <time>2014-11-09T13:51:44Z</time>
      </trkpt>
      <trkpt lat="47.2191" lon="4.63996">
        <ele>475.99</ele>
        <time>2014-11-09T13:52:00Z</time>
      </trkpt>
      <trkpt lat="47.21911" lon="4.63995">
        <ele>475.99</ele>
        <time>2014-11-09T13:52:14Z</time>
      </trkpt>
      <trkpt lat="47.21909" lon="4.64">
        <ele>475.99</ele>
        <time>2014-11-09T13:52:24Z</time>
      </trkpt>
      <trkpt lat="47.21907" lon="4.64006">
        <ele>476.47</ele>
        <time>2014-11-09T13:52:37Z</time>
      </trkpt>
      <trkpt lat="47.21907" lon="4.64015">
        <ele>476.47</ele>
        <time>2014-11-09T13:52:43Z</time>
      </trkpt>
      <trkpt lat="47.21906" lon="4.64016">
        <ele>476.95</ele>
        <time>2014-11-09T13:52:44Z</time>
      </trkpt>
      <trkpt lat="47.21903" lon="4.64018">
        <ele>476.47</ele>
        <time>2014-11-09T13:52:47Z</time>
      </trkpt>
      <trkpt lat="47.21901" lon="4.64019">
        <ele>476.47</ele>
        <time>2014-11-09T13:52:48Z</time>
      </trkpt>
      <trkpt lat="47.21889" lon="4.64025">
        <ele>476.47</ele>
        <time>2014-11-09T13:53:01Z</time>
      </trkpt>
      <trkpt lat="47.21884" lon="4.64024">
        <ele>475.99</ele>
        <time>2014-11-09T13:53:05Z</time>
      </trkpt>
      <trkpt lat="47.21881" lon="4.64026">
        <ele>475.99</ele>
        <time>2014-11-09T13:53:17Z</time>
      </trkpt>
      <trkpt lat="47.21881" lon="4.64027">
        <ele>475.99</ele>
        <time>2014-11-09T13:56:32Z</time>
      </trkpt>
      <trkpt lat="47.2187" lon="4.64028">
        <ele>482.72</ele>
        <time>2014-11-09T14:29:18Z</time>
      </trkpt>
      <trkpt lat="47.21833" lon="4.64028">
        <ele>481.28</ele>
        <time>2014-11-09T14:30:02Z</time>
      </trkpt>
      <trkpt lat="47.21829" lon="4.64026">
        <ele>480.8</ele>
        <time>2014-11-09T14:30:17Z</time>
      </trkpt>
      <trkpt lat="47.21817" lon="4.64032">
        <ele>479.84</ele>
        <time>2014-11-09T14:30:30Z</time>
      </trkpt>
      <trkpt lat="47.21811" lon="4.6403">
        <ele>479.84</ele>
        <time>2014-11-09T14:30:36Z</time>
      </trkpt>
      <trkpt lat="47.21801" lon="4.6403">
        <ele>479.84</ele>
        <time>2014-11-09T14:30:49Z</time>
      </trkpt>
      <trkpt lat="47.21801" lon="4.6403">
        <ele>480.32</ele>
        <time>2014-11-09T14:30:52Z</time>
      </trkpt>
      <trkpt lat="47.21786" lon="4.64023">
        <ele>480.32</ele>
        <time>2014-11-09T14:31:06Z</time>
      </trkpt>
      <trkpt lat="47.21783" lon="4.64021">
        <ele>480.32</ele>
        <time>2014-11-09T14:31:20Z</time>
      </trkpt>
      <trkpt lat="47.21777" lon="4.64003">
        <ele>479.84</ele>
        <time>2014-11-09T14:31:34Z</time>
      </trkpt>
      <trkpt lat="47.21771" lon="4.63997">
        <ele>480.32</ele>
        <time>2014-11-09T14:31:51Z</time>
      </trkpt>
      <trkpt lat="47.21786" lon="4.64021">
        <ele>480.32</ele>
        <time>2014-11-09T14:32:17Z</time>
      </trkpt>
      <trkpt lat="47.21788" lon="4.64026">
        <ele>480.32</ele>
        <time>2014-11-09T14:32:27Z</time>
      </trkpt>
      <trkpt lat="47.21805" lon="4.64035">
        <ele>479.84</ele>
        <time>2014-11-09T14:32:43Z</time>
      </trkpt>
      <trkpt lat="47.21818" lon="4.64041">
        <ele>479.35</ele>
        <time>2014-11-09T14:32:58Z</time>
      </trkpt>
      <trkpt lat="47.21818" lon="4.64045">
        <ele>478.87</ele>
        <time>2014-11-09T14:33:01Z</time>
      </trkpt>
      <trkpt lat="47.21816" lon="4.64064">
        <ele>477.91</ele>
        <time>2014-11-09T14:33:17Z</time>
      </trkpt>
      <trkpt lat="47.21816" lon="4.64067">
        <ele>477.43</ele>
        <time>2014-11-09T14:33:33Z</time>
      </trkpt>
      <trkpt lat="47.21812" lon="4.64081">
        <ele>475.99</ele>
        <time>2014-11-09T14:33:49Z</time>
      </trkpt>
      <trkpt lat="47.21802" lon="4.64094">
        <ele>474.07</ele>
        <time>2014-11-09T14:34:05Z</time>
      </trkpt>
      <trkpt lat="47.21793" lon="4.64104">
        <ele>473.11</ele>
        <time>2014-11-09T14:34:20Z</time>
      </trkpt>
      <trkpt lat="47.21792" lon="4.64104">
        <ele>472.63</ele>
        <time>2014-11-09T14:34:22Z</time>
      </trkpt>
      <trkpt lat="47.21777" lon="4.64107">
        <ele>470.7</ele>
        <time>2014-11-09T14:34:37Z</time>
      </trkpt>
      <trkpt lat="47.21764" lon="4.64105">
        <ele>469.26</ele>
        <time>2014-11-09T14:34:52Z</time>
      </trkpt>
      <trkpt lat="47.2176" lon="4.64103">
        <ele>468.78</ele>
        <time>2014-11-09T14:35:03Z</time>
      </trkpt>
      <trkpt lat="47.21742" lon="4.64105">
        <ele>467.34</ele>
        <time>2014-11-09T14:35:19Z</time>
      </trkpt>
      <trkpt lat="47.21735" lon="4.64105">
        <ele>467.34</ele>
        <time>2014-11-09T14:35:31Z</time>
      </trkpt>
      <trkpt lat="47.21728" lon="4.64103">
        <ele>466.38</ele>
        <time>2014-11-09T14:35:42Z</time>
      </trkpt>
      <trkpt lat="47.21712" lon="4.64102">
        <ele>464.93</ele>
        <time>2014-11-09T14:35:58Z</time>
      </trkpt>
      <trkpt lat="47.21697" lon="4.64098">
        <ele>463.49</ele>
        <time>2014-11-09T14:36:12Z</time>
      </trkpt>
      <trkpt lat="47.21676" lon="4.64093">
        <ele>461.57</ele>
        <time>2014-11-09T14:36:31Z</time>
      </trkpt>
      <trkpt lat="47.21665" lon="4.64083">
        <ele>461.57</ele>
        <time>2014-11-09T14:36:48Z</time>
      </trkpt>
      <trkpt lat="47.21665" lon="4.64082">
        <ele>461.57</ele>
        <time>2014-11-09T14:36:49Z</time>
      </trkpt>
      <trkpt lat="47.21657" lon="4.64064">
        <ele>460.13</ele>
        <time>2014-11-09T14:37:06Z</time>
      </trkpt>
      <trkpt lat="47.21658" lon="4.64056">
        <ele>459.65</ele>
        <time>2014-11-09T14:37:19Z</time>
      </trkpt>
      <trkpt lat="47.21657" lon="4.64052">
        <ele>459.65</ele>
        <time>2014-11-09T14:37:22Z</time>
      </trkpt>
      <trkpt lat="47.21656" lon="4.64019">
        <ele>457.24</ele>
        <time>2014-11-09T14:37:42Z</time>
      </trkpt>
      <trkpt lat="47.21655" lon="4.64008">
        <ele>457.24</ele>
        <time>2014-11-09T14:37:49Z</time>
      </trkpt>
      <trkpt lat="47.21664" lon="4.63983">
        <ele>455.8</ele>
        <time>2014-11-09T14:38:06Z</time>
      </trkpt>
      <trkpt lat="47.21668" lon="4.63974">
        <ele>454.84</ele>
        <time>2014-11-09T14:38:14Z</time>
      </trkpt>
      <trkpt lat="47.21676" lon="4.63959">
        <ele>453.88</ele>
        <time>2014-11-09T14:38:27Z</time>
      </trkpt>
      <trkpt lat="47.21681" lon="4.63951">
        <ele>452.92</ele>
        <time>2014-11-09T14:38:43Z</time>
      </trkpt>
      <trkpt lat="47.21682" lon="4.63949">
        <ele>452.92</ele>
        <time>2014-11-09T14:38:45Z</time>
      </trkpt>
      <trkpt lat="47.21682" lon="4.63932">
        <ele>451.48</ele>
        <time>2014-11-09T14:39:01Z</time>
      </trkpt>
      <trkpt lat="47.21679" lon="4.63936">
        <ele>451</ele>
        <time>2014-11-09T14:39:15Z</time>
      </trkpt>
      <trkpt lat="47.21685" lon="4.63935">
        <ele>451.48</ele>
        <time>2014-11-09T14:39:27Z</time>
      </trkpt>
      <trkpt lat="47.21688" lon="4.63926">
        <ele>450.52</ele>
        <time>2014-11-09T14:39:44Z</time>
      </trkpt>
      <trkpt lat="47.21697" lon="4.63909">
        <ele>449.07</ele>
        <time>2014-11-09T14:40:00Z</time>
      </trkpt>
      <trkpt lat="47.21704" lon="4.6389">
        <ele>447.63</ele>
        <time>2014-11-09T14:40:17Z</time>
      </trkpt>
      <trkpt lat="47.21703" lon="4.63877">
        <ele>446.19</ele>
        <time>2014-11-09T14:40:30Z</time>
      </trkpt>
      <trkpt lat="47.217" lon="4.63864">
        <ele>444.75</ele>
        <time>2014-11-09T14:40:45Z</time>
      </trkpt>
      <trkpt lat="47.21698" lon="4.63857">
        <ele>443.79</ele>
        <time>2014-11-09T14:40:50Z</time>
      </trkpt>
      <trkpt lat="47.21689" lon="4.63832">
        <ele>440.9</ele>
        <time>2014-11-09T14:41:09Z</time>
      </trkpt>
      <trkpt lat="47.21684" lon="4.63816">
        <ele>438.98</ele>
        <time>2014-11-09T14:41:24Z</time>
      </trkpt>
      <trkpt lat="47.21678" lon="4.6379">
        <ele>436.1</ele>
        <time>2014-11-09T14:41:41Z</time>
      </trkpt>
      <trkpt lat="47.21674" lon="4.63775">
        <ele>434.17</ele>
        <time>2014-11-09T14:41:51Z</time>
      </trkpt>
      <trkpt lat="47.21674" lon="4.63767">
        <ele>433.69</ele>
        <time>2014-11-09T14:41:56Z</time>
      </trkpt>
      <trkpt lat="47.21673" lon="4.63759">
        <ele>432.73</ele>
        <time>2014-11-09T14:42:02Z</time>
      </trkpt>
      <trkpt lat="47.21673" lon="4.63757">
        <ele>432.73</ele>
        <time>2014-11-09T14:42:04Z</time>
      </trkpt>
      <trkpt lat="47.21676" lon="4.63743">
        <ele>430.81</ele>
        <time>2014-11-09T14:42:14Z</time>
      </trkpt>
      <trkpt lat="47.21681" lon="4.63727">
        <ele>428.89</ele>
        <time>2014-11-09T14:42:26Z</time>
      </trkpt>
      <trkpt lat="47.21694" lon="4.6371">
        <ele>426</ele>
        <time>2014-11-09T14:42:44Z</time>
      </trkpt>
      <trkpt lat="47.21707" lon="4.63695">
        <ele>423.6</ele>
        <time>2014-11-09T14:43:00Z</time>
      </trkpt>
      <trkpt lat="47.21708" lon="4.63693">
        <ele>423.6</ele>
        <time>2014-11-09T14:43:03Z</time>
      </trkpt>
      <trkpt lat="47.2171" lon="4.63692">
        <ele>423.12</ele>
        <time>2014-11-09T14:43:05Z</time>
      </trkpt>
      <trkpt lat="47.21713" lon="4.63688">
        <ele>422.64</ele>
        <time>2014-11-09T14:43:09Z</time>
      </trkpt>
      <trkpt lat="47.21728" lon="4.63669">
        <ele>419.27</ele>
        <time>2014-11-09T14:43:28Z</time>
      </trkpt>
      <trkpt lat="47.21733" lon="4.63662">
        <ele>420.23</ele>
        <time>2014-11-09T14:43:34Z</time>
      </trkpt>
      <trkpt lat="47.21736" lon="4.6366">
        <ele>417.83</ele>
        <time>2014-11-09T14:43:37Z</time>
      </trkpt>
      <trkpt lat="47.21751" lon="4.63643">
        <ele>414.95</ele>
        <time>2014-11-09T14:43:55Z</time>
      </trkpt>
      <trkpt lat="47.21755" lon="4.63636">
        <ele>413.98</ele>
        <time>2014-11-09T14:44:01Z</time>
      </trkpt>
      <trkpt lat="47.21768" lon="4.63623">
        <ele>412.06</ele>
        <time>2014-11-09T14:44:15Z</time>
      </trkpt>
      <trkpt lat="47.21774" lon="4.63617">
        <ele>411.1</ele>
        <time>2014-11-09T14:44:21Z</time>
      </trkpt>
      <trkpt lat="47.21789" lon="4.63596">
        <ele>409.18</ele>
        <time>2014-11-09T14:44:40Z</time>
      </trkpt>
      <trkpt lat="47.21792" lon="4.63593">
        <ele>407.74</ele>
        <time>2014-11-09T14:44:43Z</time>
      </trkpt>
      <trkpt lat="47.21807" lon="4.63573">
        <ele>405.33</ele>
        <time>2014-11-09T14:45:02Z</time>
      </trkpt>
      <trkpt lat="47.21819" lon="4.63557">
        <ele>402.93</ele>
        <time>2014-11-09T14:45:17Z</time>
      </trkpt>
      <trkpt lat="47.21835" lon="4.63536">
        <ele>399.57</ele>
        <time>2014-11-09T14:45:36Z</time>
      </trkpt>
      <trkpt lat="47.2184" lon="4.63531">
        <ele>398.6</ele>
        <time>2014-11-09T14:45:42Z</time>
      </trkpt>
      <trkpt lat="47.21846" lon="4.63525">
        <ele>397.16</ele>
        <time>2014-11-09T14:45:49Z</time>
      </trkpt>
      <trkpt lat="47.21855" lon="4.63511">
        <ele>394.76</ele>
        <time>2014-11-09T14:46:02Z</time>
      </trkpt>
      <trkpt lat="47.21869" lon="4.63493">
        <ele>391.87</ele>
        <time>2014-11-09T14:46:18Z</time>
      </trkpt>
      <trkpt lat="47.21871" lon="4.63491">
        <ele>391.39</ele>
        <time>2014-11-09T14:46:20Z</time>
      </trkpt>
      <trkpt lat="47.21874" lon="4.63486">
        <ele>390.91</ele>
        <time>2014-11-09T14:46:24Z</time>
      </trkpt>
      <trkpt lat="47.21888" lon="4.63467">
        <ele>388.03</ele>
        <time>2014-11-09T14:46:42Z</time>
      </trkpt>
      <trkpt lat="47.21897" lon="4.63457">
        <ele>386.11</ele>
        <time>2014-11-09T14:46:55Z</time>
      </trkpt>
      <trkpt lat="47.21897" lon="4.63446">
        <ele>384.18</ele>
        <time>2014-11-09T14:47:04Z</time>
      </trkpt>
      <trkpt lat="47.21878" lon="4.6343">
        <ele>380.82</ele>
        <time>2014-11-09T14:47:22Z</time>
      </trkpt>
      <trkpt lat="47.21864" lon="4.63421">
        <ele>377.94</ele>
        <time>2014-11-09T14:47:36Z</time>
      </trkpt>
      <trkpt lat="47.21862" lon="4.6342">
        <ele>377.94</ele>
        <time>2014-11-09T14:47:38Z</time>
      </trkpt>
      <trkpt lat="47.21849" lon="4.63412">
        <ele>375.53</ele>
        <time>2014-11-09T14:47:51Z</time>
      </trkpt>
      <trkpt lat="47.21831" lon="4.63401">
        <ele>372.65</ele>
        <time>2014-11-09T14:48:08Z</time>
      </trkpt>
      <trkpt lat="47.21814" lon="4.63391">
        <ele>370.24</ele>
        <time>2014-11-09T14:48:23Z</time>
      </trkpt>
      <trkpt lat="47.21801" lon="4.63382">
        <ele>368.32</ele>
        <time>2014-11-09T14:48:37Z</time>
      </trkpt>
      <trkpt lat="47.21791" lon="4.63379">
        <ele>366.88</ele>
        <time>2014-11-09T14:48:46Z</time>
      </trkpt>
      <trkpt lat="47.21775" lon="4.6337">
        <ele>364.48</ele>
        <time>2014-11-09T14:49:01Z</time>
      </trkpt>
      <trkpt lat="47.21759" lon="4.63367">
        <ele>362.55</ele>
        <time>2014-11-09T14:49:13Z</time>
      </trkpt>
      <trkpt lat="47.21746" lon="4.63356">
        <ele>360.63</ele>
        <time>2014-11-09T14:49:25Z</time>
      </trkpt>
      <trkpt lat="47.21743" lon="4.63355">
        <ele>360.15</ele>
        <time>2014-11-09T14:49:29Z</time>
      </trkpt>
      <trkpt lat="47.21735" lon="4.63347">
        <ele>358.71</ele>
        <time>2014-11-09T14:49:38Z</time>
      </trkpt>
      <trkpt lat="47.21734" lon="4.63348">
        <ele>358.71</ele>
        <time>2014-11-09T14:49:41Z</time>
      </trkpt>
      <trkpt lat="47.2173" lon="4.63337">
        <ele>357.75</ele>
        <time>2014-11-09T14:49:55Z</time>
      </trkpt>
      <trkpt lat="47.21729" lon="4.63335">
        <ele>357.27</ele>
        <time>2014-11-09T14:49:57Z</time>
      </trkpt>
      <trkpt lat="47.21725" lon="4.6333">
        <ele>356.79</ele>
        <time>2014-11-09T14:50:01Z</time>
      </trkpt>
      <trkpt lat="47.21721" lon="4.63312">
        <ele>355.83</ele>
        <time>2014-11-09T14:50:12Z</time>
      </trkpt>
      <trkpt lat="47.21718" lon="4.63293">
        <ele>355.34</ele>
        <time>2014-11-09T14:50:25Z</time>
      </trkpt>
      <trkpt lat="47.21716" lon="4.63288">
        <ele>354.86</ele>
        <time>2014-11-09T14:50:31Z</time>
      </trkpt>
      <trkpt lat="47.21712" lon="4.63262">
        <ele>354.38</ele>
        <time>2014-11-09T14:50:46Z</time>
      </trkpt>
      <trkpt lat="47.21708" lon="4.6325">
        <ele>353.9</ele>
        <time>2014-11-09T14:50:54Z</time>
      </trkpt>
      <trkpt lat="47.21698" lon="4.63228">
        <ele>353.42</ele>
        <time>2014-11-09T14:51:08Z</time>
      </trkpt>
      <trkpt lat="47.21689" lon="4.63209">
        <ele>353.42</ele>
        <time>2014-11-09T14:51:22Z</time>
      </trkpt>
      <trkpt lat="47.21685" lon="4.63201">
        <ele>353.42</ele>
        <time>2014-11-09T14:51:27Z</time>
      </trkpt>
      <trkpt lat="47.21671" lon="4.6317">
        <ele>352.94</ele>
        <time>2014-11-09T14:51:47Z</time>
      </trkpt>
      <trkpt lat="47.21663" lon="4.6315">
        <ele>352.94</ele>
        <time>2014-11-09T14:52:01Z</time>
      </trkpt>
      <trkpt lat="47.2166" lon="4.63142">
        <ele>352.46</ele>
        <time>2014-11-09T14:52:06Z</time>
      </trkpt>
      <trkpt lat="47.21654" lon="4.6313">
        <ele>352.46</ele>
        <time>2014-11-09T14:52:17Z</time>
      </trkpt>
      <trkpt lat="47.21646" lon="4.63106">
        <ele>352.46</ele>
        <time>2014-11-09T14:52:32Z</time>
      </trkpt>
      <trkpt lat="47.21637" lon="4.63083">
        <ele>352.46</ele>
        <time>2014-11-09T14:52:46Z</time>
      </trkpt>
      <trkpt lat="47.21629" lon="4.6306">
        <ele>352.46</ele>
        <time>2014-11-09T14:53:01Z</time>
      </trkpt>
      <trkpt lat="47.21618" lon="4.63037">
        <ele>351.98</ele>
        <time>2014-11-09T14:53:17Z</time>
      </trkpt>
      <trkpt lat="47.21611" lon="4.63014">
        <ele>352.46</ele>
        <time>2014-11-09T14:53:32Z</time>
      </trkpt>
      <trkpt lat="47.21602" lon="4.6299">
        <ele>351.98</ele>
        <time>2014-11-09T14:53:47Z</time>
      </trkpt>
      <trkpt lat="47.21593" lon="4.62967">
        <ele>351.98</ele>
        <time>2014-11-09T14:54:03Z</time>
      </trkpt>
      <trkpt lat="47.21591" lon="4.62962">
        <ele>351.98</ele>
        <time>2014-11-09T14:54:06Z</time>
      </trkpt>
      <trkpt lat="47.21585" lon="4.62939">
        <ele>351.98</ele>
        <time>2014-11-09T14:54:21Z</time>
      </trkpt>
      <trkpt lat="47.2158" lon="4.62921">
        <ele>351.98</ele>
        <time>2014-11-09T14:54:33Z</time>
      </trkpt>
      <trkpt lat="47.21579" lon="4.62919">
        <ele>352.46</ele>
        <time>2014-11-09T14:54:34Z</time>
      </trkpt>
      <trkpt lat="47.21576" lon="4.62915">
        <ele>352.46</ele>
        <time>2014-11-09T14:54:37Z</time>
      </trkpt>
      <trkpt lat="47.2157" lon="4.62895">
        <ele>352.46</ele>
        <time>2014-11-09T14:54:51Z</time>
      </trkpt>
      <trkpt lat="47.21563" lon="4.62873">
        <ele>353.42</ele>
        <time>2014-11-09T14:55:07Z</time>
      </trkpt>
      <trkpt lat="47.21562" lon="4.62872">
        <ele>353.42</ele>
        <time>2014-11-09T14:55:08Z</time>
      </trkpt>
      <trkpt lat="47.21559" lon="4.62857">
        <ele>354.38</ele>
        <time>2014-11-09T14:55:21Z</time>
      </trkpt>
      <trkpt lat="47.21552" lon="4.62843">
        <ele>355.34</ele>
        <time>2014-11-09T14:55:30Z</time>
      </trkpt>
      <trkpt lat="47.21552" lon="4.62821">
        <ele>355.34</ele>
        <time>2014-11-09T14:55:44Z</time>
      </trkpt>
      <trkpt lat="47.21558" lon="4.62814">
        <ele>354.86</ele>
        <time>2014-11-09T14:55:51Z</time>
      </trkpt>
      <trkpt lat="47.21563" lon="4.62806">
        <ele>354.38</ele>
        <time>2014-11-09T14:55:57Z</time>
      </trkpt>
      <trkpt lat="47.21574" lon="4.62787">
        <ele>353.42</ele>
        <time>2014-11-09T14:56:12Z</time>
      </trkpt>
      <trkpt lat="47.21573" lon="4.62777">
        <ele>352.94</ele>
        <time>2014-11-09T14:56:26Z</time>
      </trkpt>
      <trkpt lat="47.21573" lon="4.6278">
        <ele>353.42</ele>
        <time>2014-11-09T14:56:45Z</time>
      </trkpt>
      <trkpt lat="47.21583" lon="4.6277">
        <ele>352.94</ele>
        <time>2014-11-09T14:57:03Z</time>
      </trkpt>
      <trkpt lat="47.21586" lon="4.62766">
        <ele>352.94</ele>
        <time>2014-11-09T14:57:07Z</time>
      </trkpt>
      <trkpt lat="47.21597" lon="4.6276">
        <ele>352.94</ele>
        <time>2014-11-09T14:57:17Z</time>
      </trkpt>
      <trkpt lat="47.2161" lon="4.62742">
        <ele>352.46</ele>
        <time>2014-11-09T14:57:33Z</time>
      </trkpt>
      <trkpt lat="47.21624" lon="4.62729">
        <ele>352.94</ele>
        <time>2014-11-09T14:57:49Z</time>
      </trkpt>
      <trkpt lat="47.21631" lon="4.62724">
        <ele>352.94</ele>
        <time>2014-11-09T14:57:56Z</time>
      </trkpt>
      <trkpt lat="47.21637" lon="4.62721">
        <ele>352.94</ele>
        <time>2014-11-09T14:58:01Z</time>
      </trkpt>
      <trkpt lat="47.21643" lon="4.62713">
        <ele>352.94</ele>
        <time>2014-11-09T14:58:07Z</time>
      </trkpt>
      <trkpt lat="47.21653" lon="4.62699">
        <ele>352.94</ele>
        <time>2014-11-09T14:58:20Z</time>
      </trkpt>
      <trkpt lat="47.21665" lon="4.62686">
        <ele>352.94</ele>
        <time>2014-11-09T14:58:32Z</time>
      </trkpt>
      <trkpt lat="47.21669" lon="4.6268">
        <ele>352.94</ele>
        <time>2014-11-09T14:58:37Z</time>
      </trkpt>
      <trkpt lat="47.21679" lon="4.62667">
        <ele>352.94</ele>
        <time>2014-11-09T14:58:51Z</time>
      </trkpt>
      <trkpt lat="47.21685" lon="4.62657">
        <ele>352.46</ele>
        <time>2014-11-09T14:58:59Z</time>
      </trkpt>
      <trkpt lat="47.21698" lon="4.6264">
        <ele>352.46</ele>
        <time>2014-11-09T14:59:14Z</time>
      </trkpt>
      <trkpt lat="47.21705" lon="4.62629">
        <ele>352.46</ele>
        <time>2014-11-09T14:59:24Z</time>
      </trkpt>
      <trkpt lat="47.21716" lon="4.62615">
        <ele>352.46</ele>
        <time>2014-11-09T14:59:36Z</time>
      </trkpt>
      <trkpt lat="47.21725" lon="4.62602">
        <ele>352.46</ele>
        <time>2014-11-09T14:59:47Z</time>
      </trkpt>
      <trkpt lat="47.21724" lon="4.62594">
        <ele>353.9</ele>
        <time>2014-11-09T14:59:59Z</time>
      </trkpt>
      <trkpt lat="47.21725" lon="4.62589">
        <ele>355.34</ele>
        <time>2014-11-09T15:00:07Z</time>
      </trkpt>
      <trkpt lat="47.21727" lon="4.62587">
        <ele>354.86</ele>
        <time>2014-11-09T15:00:18Z</time>
      </trkpt>
      <trkpt lat="47.21729" lon="4.6258">
        <ele>354.86</ele>
        <time>2014-11-09T15:00:28Z</time>
      </trkpt>
      <trkpt lat="47.21731" lon="4.62576">
        <ele>354.86</ele>
        <time>2014-11-09T15:00:34Z</time>
      </trkpt>
      <trkpt lat="47.21737" lon="4.62564">
        <ele>354.38</ele>
        <time>2014-11-09T15:00:45Z</time>
      </trkpt>
      <trkpt lat="47.21738" lon="4.62563">
        <ele>354.86</ele>
        <time>2014-11-09T15:00:46Z</time>
      </trkpt>
      <trkpt lat="47.21741" lon="4.62558">
        <ele>354.38</ele>
        <time>2014-11-09T15:00:51Z</time>
      </trkpt>
      <trkpt lat="47.21747" lon="4.62549">
        <ele>354.38</ele>
        <time>2014-11-09T15:01:00Z</time>
      </trkpt>
      <trkpt lat="47.21751" lon="4.6254">
        <ele>354.86</ele>
        <time>2014-11-09T15:01:12Z</time>
      </trkpt>
      <trkpt lat="47.2175" lon="4.62538">
        <ele>354.38</ele>
        <time>2014-11-09T15:01:30Z</time>
      </trkpt>
      <trkpt lat="47.21746" lon="4.62535">
        <ele>354.38</ele>
        <time>2014-11-09T15:01:45Z</time>
      </trkpt>
      <trkpt lat="47.21748" lon="4.62534">
        <ele>354.38</ele>
        <time>2014-11-09T15:01:59Z</time>
      </trkpt>
      <trkpt lat="47.21751" lon="4.6254">
        <ele>354.38</ele>
        <time>2014-11-09T15:02:14Z</time>
      </trkpt>
      <trkpt lat="47.21752" lon="4.62542">
        <ele>354.38</ele>
        <time>2014-11-09T15:02:20Z</time>
      </trkpt>
      <trkpt lat="47.21762" lon="4.62539">
        <ele>353.9</ele>
        <time>2014-11-09T15:02:32Z</time>
      </trkpt>
      <trkpt lat="47.21766" lon="4.62533">
        <ele>353.9</ele>
        <time>2014-11-09T15:02:53Z</time>
      </trkpt>
      <trkpt lat="47.21774" lon="4.62522">
        <ele>353.9</ele>
        <time>2014-11-09T15:03:06Z</time>
      </trkpt>
      <trkpt lat="47.21784" lon="4.62508">
        <ele>353.42</ele>
        <time>2014-11-09T15:03:23Z</time>
      </trkpt>
      <trkpt lat="47.21795" lon="4.62492">
        <ele>353.42</ele>
        <time>2014-11-09T15:03:37Z</time>
      </trkpt>
      <trkpt lat="47.21806" lon="4.62473">
        <ele>353.42</ele>
        <time>2014-11-09T15:03:53Z</time>
      </trkpt>
      <trkpt lat="47.21806" lon="4.62472">
        <ele>353.42</ele>
        <time>2014-11-09T15:03:54Z</time>
      </trkpt>
      <trkpt lat="47.2182" lon="4.62449">
        <ele>353.42</ele>
        <time>2014-11-09T15:04:14Z</time>
      </trkpt>
      <trkpt lat="47.21821" lon="4.62447">
        <ele>353.42</ele>
        <time>2014-11-09T15:04:16Z</time>
      </trkpt>
      <trkpt lat="47.21833" lon="4.6243">
        <ele>353.42</ele>
        <time>2014-11-09T15:04:32Z</time>
      </trkpt>
      <trkpt lat="47.21844" lon="4.62412">
        <ele>353.42</ele>
        <time>2014-11-09T15:04:48Z</time>
      </trkpt>
      <trkpt lat="47.21855" lon="4.62393">
        <ele>352.94</ele>
        <time>2014-11-09T15:05:03Z</time>
      </trkpt>
      <trkpt lat="47.21863" lon="4.62376">
        <ele>352.94</ele>
        <time>2014-11-09T15:05:17Z</time>
      </trkpt>
      <trkpt lat="47.21871" lon="4.62358">
        <ele>352.94</ele>
        <time>2014-11-09T15:05:31Z</time>
      </trkpt>
      <trkpt lat="47.21877" lon="4.6234">
        <ele>352.94</ele>
        <time>2014-11-09T15:05:44Z</time>
      </trkpt>
      <trkpt lat="47.21877" lon="4.62339">
        <ele>352.94</ele>
        <time>2014-11-09T15:05:45Z</time>
      </trkpt>
      <trkpt lat="47.21881" lon="4.62331">
        <ele>352.46</ele>
        <time>2014-11-09T15:05:51Z</time>
      </trkpt>
      <trkpt lat="47.21887" lon="4.6231">
        <ele>352.46</ele>
        <time>2014-11-09T15:06:06Z</time>
      </trkpt>
      <trkpt lat="47.2189" lon="4.62298">
        <ele>352.46</ele>
        <time>2014-11-09T15:06:18Z</time>
      </trkpt>
      <trkpt lat="47.21891" lon="4.62292">
        <ele>352.46</ele>
        <time>2014-11-09T15:06:22Z</time>
      </trkpt>
      <trkpt lat="47.21893" lon="4.62289">
        <ele>352.94</ele>
        <time>2014-11-09T15:06:24Z</time>
      </trkpt>
      <trkpt lat="47.21897" lon="4.6227">
        <ele>352.46</ele>
        <time>2014-11-09T15:06:38Z</time>
      </trkpt>
      <trkpt lat="47.21902" lon="4.62253">
        <ele>352.94</ele>
        <time>2014-11-09T15:06:52Z</time>
      </trkpt>
      <trkpt lat="47.21907" lon="4.6224">
        <ele>352.94</ele>
        <time>2014-11-09T15:07:06Z</time>
      </trkpt>
      <trkpt lat="47.21907" lon="4.62238">
        <ele>352.94</ele>
        <time>2014-11-09T15:07:07Z</time>
      </trkpt>
      <trkpt lat="47.21908" lon="4.6223">
        <ele>352.46</ele>
        <time>2014-11-09T15:07:11Z</time>
      </trkpt>
      <trkpt lat="47.21911" lon="4.62224">
        <ele>352.94</ele>
        <time>2014-11-09T15:07:16Z</time>
      </trkpt>
      <trkpt lat="47.21911" lon="4.62217">
        <ele>352.94</ele>
        <time>2014-11-09T15:07:20Z</time>
      </trkpt>
      <trkpt lat="47.21914" lon="4.62207">
        <ele>352.46</ele>
        <time>2014-11-09T15:07:27Z</time>
      </trkpt>
      <trkpt lat="47.21918" lon="4.6219">
        <ele>352.94</ele>
        <time>2014-11-09T15:07:39Z</time>
      </trkpt>
      <trkpt lat="47.2192" lon="4.62185">
        <ele>352.94</ele>
        <time>2014-11-09T15:07:43Z</time>
      </trkpt>
      <trkpt lat="47.2192" lon="4.62181">
        <ele>352.94</ele>
        <time>2014-11-09T15:07:45Z</time>
      </trkpt>
      <trkpt lat="47.21925" lon="4.62164">
        <ele>352.94</ele>
        <time>2014-11-09T15:07:58Z</time>
      </trkpt>
      <trkpt lat="47.21927" lon="4.6216">
        <ele>352.94</ele>
        <time>2014-11-09T15:08:01Z</time>
      </trkpt>
      <trkpt lat="47.21932" lon="4.6214">
        <ele>353.9</ele>
        <time>2014-11-09T15:08:13Z</time>
      </trkpt>
      <trkpt lat="47.21934" lon="4.62123">
        <ele>354.86</ele>
        <time>2014-11-09T15:08:28Z</time>
      </trkpt>
      <trkpt lat="47.21935" lon="4.62121">
        <ele>354.86</ele>
        <time>2014-11-09T15:08:30Z</time>
      </trkpt>
      <trkpt lat="47.21939" lon="4.62112">
        <ele>354.86</ele>
        <time>2014-11-09T15:08:36Z</time>
      </trkpt>
      <trkpt lat="47.21944" lon="4.62089">
        <ele>354.86</ele>
        <time>2014-11-09T15:08:50Z</time>
      </trkpt>
      <trkpt lat="47.21945" lon="4.62084">
        <ele>355.34</ele>
        <time>2014-11-09T15:08:54Z</time>
      </trkpt>
      <trkpt lat="47.21953" lon="4.62064">
        <ele>354.86</ele>
        <time>2014-11-09T15:09:08Z</time>
      </trkpt>
      <trkpt lat="47.21953" lon="4.62063">
        <ele>354.86</ele>
        <time>2014-11-09T15:09:09Z</time>
      </trkpt>
      <trkpt lat="47.21958" lon="4.62041">
        <ele>354.86</ele>
        <time>2014-11-09T15:09:23Z</time>
      </trkpt>
      <trkpt lat="47.21963" lon="4.62021">
        <ele>354.86</ele>
        <time>2014-11-09T15:09:35Z</time>
      </trkpt>
      <trkpt lat="47.21967" lon="4.62">
        <ele>354.86</ele>
        <time>2014-11-09T15:09:49Z</time>
      </trkpt>
      <trkpt lat="47.21968" lon="4.61997">
        <ele>354.86</ele>
        <time>2014-11-09T15:09:51Z</time>
      </trkpt>
      <trkpt lat="47.21972" lon="4.61983">
        <ele>354.86</ele>
        <time>2014-11-09T15:10:01Z</time>
      </trkpt>
      <trkpt lat="47.21977" lon="4.61969">
        <ele>354.86</ele>
        <time>2014-11-09T15:10:12Z</time>
      </trkpt>
      <trkpt lat="47.21979" lon="4.61957">
        <ele>354.38</ele>
        <time>2014-11-09T15:10:19Z</time>
      </trkpt>
      <trkpt lat="47.21982" lon="4.61941">
        <ele>354.86</ele>
        <time>2014-11-09T15:10:29Z</time>
      </trkpt>
      <trkpt lat="47.21984" lon="4.6193">
        <ele>354.38</ele>
        <time>2014-11-09T15:10:35Z</time>
      </trkpt>
      <trkpt lat="47.21984" lon="4.61921">
        <ele>354.86</ele>
        <time>2014-11-09T15:10:41Z</time>
      </trkpt>
      <trkpt lat="47.21985" lon="4.61901">
        <ele>354.38</ele>
        <time>2014-11-09T15:10:53Z</time>
      </trkpt>
      <trkpt lat="47.21986" lon="4.61893">
        <ele>354.38</ele>
        <time>2014-11-09T15:10:58Z</time>
      </trkpt>
      <trkpt lat="47.21987" lon="4.61874">
        <ele>353.9</ele>
        <time>2014-11-09T15:11:12Z</time>
      </trkpt>
      <trkpt lat="47.21989" lon="4.61858">
        <ele>353.9</ele>
        <time>2014-11-09T15:11:24Z</time>
      </trkpt>
      <trkpt lat="47.21994" lon="4.61847">
        <ele>353.9</ele>
        <time>2014-11-09T15:11:34Z</time>
      </trkpt>
      <trkpt lat="47.21999" lon="4.61842">
        <ele>354.38</ele>
        <time>2014-11-09T15:11:40Z</time>
      </trkpt>
      <trkpt lat="47.22005" lon="4.61839">
        <ele>354.38</ele>
        <time>2014-11-09T15:11:45Z</time>
      </trkpt>
      <trkpt lat="47.2201" lon="4.61832">
        <ele>354.38</ele>
        <time>2014-11-09T15:11:52Z</time>
      </trkpt>
      <trkpt lat="47.22012" lon="4.61829">
        <ele>353.9</ele>
        <time>2014-11-09T15:11:55Z</time>
      </trkpt>
      <trkpt lat="47.22013" lon="4.61822">
        <ele>353.9</ele>
        <time>2014-11-09T15:12:01Z</time>
      </trkpt>
      <trkpt lat="47.22015" lon="4.61818">
        <ele>353.9</ele>
        <time>2014-11-09T15:12:04Z</time>
      </trkpt>
      <trkpt lat="47.22013" lon="4.61814">
        <ele>353.9</ele>
        <time>2014-11-09T15:12:20Z</time>
      </trkpt>
      <trkpt lat="47.22015" lon="4.6181">
        <ele>353.9</ele>
        <time>2014-11-09T15:12:26Z</time>
      </trkpt>
      <trkpt lat="47.22026" lon="4.61787">
        <ele>353.42</ele>
        <time>2014-11-09T15:12:43Z</time>
      </trkpt>
      <trkpt lat="47.22031" lon="4.61777">
        <ele>353.42</ele>
        <time>2014-11-09T15:12:54Z</time>
      </trkpt>
      <trkpt lat="47.22034" lon="4.61752">
        <ele>352.94</ele>
        <time>2014-11-09T15:13:09Z</time>
      </trkpt>
      <trkpt lat="47.22034" lon="4.61726">
        <ele>353.42</ele>
        <time>2014-11-09T15:13:26Z</time>
      </trkpt>
      <trkpt lat="47.22036" lon="4.61704">
        <ele>353.42</ele>
        <time>2014-11-09T15:13:39Z</time>
      </trkpt>
      <trkpt lat="47.22036" lon="4.61689">
        <ele>353.9</ele>
        <time>2014-11-09T15:13:48Z</time>
      </trkpt>
      <trkpt lat="47.22037" lon="4.61684">
        <ele>353.42</ele>
        <time>2014-11-09T15:13:52Z</time>
      </trkpt>
      <trkpt lat="47.22038" lon="4.61682">
        <ele>353.42</ele>
        <time>2014-11-09T15:13:54Z</time>
      </trkpt>
      <trkpt lat="47.22038" lon="4.61662">
        <ele>353.9</ele>
        <time>2014-11-09T15:14:08Z</time>
      </trkpt>
      <trkpt lat="47.22037" lon="4.61649">
        <ele>353.9</ele>
        <time>2014-11-09T15:14:16Z</time>
      </trkpt>
      <trkpt lat="47.22034" lon="4.61643">
        <ele>353.42</ele>
        <time>2014-11-09T15:14:20Z</time>
      </trkpt>
      <trkpt lat="47.22028" lon="4.61637">
        <ele>354.38</ele>
        <time>2014-11-09T15:14:34Z</time>
      </trkpt>
      <trkpt lat="47.22031" lon="4.61633">
        <ele>353.9</ele>
        <time>2014-11-09T15:14:48Z</time>
      </trkpt>
      <trkpt lat="47.22018" lon="4.61617">
        <ele>354.38</ele>
        <time>2014-11-09T15:15:02Z</time>
      </trkpt>
      <trkpt lat="47.22011" lon="4.61603">
        <ele>355.34</ele>
        <time>2014-11-09T15:15:13Z</time>
      </trkpt>
      <trkpt lat="47.22011" lon="4.61603">
        <ele>355.83</ele>
        <time>2014-11-09T15:15:17Z</time>
      </trkpt>
      <trkpt lat="47.22009" lon="4.61599">
        <ele>355.83</ele>
        <time>2014-11-09T15:15:20Z</time>
      </trkpt>
      <trkpt lat="47.2201" lon="4.61595">
        <ele>355.83</ele>
        <time>2014-11-09T15:15:23Z</time>
      </trkpt>
      <trkpt lat="47.22015" lon="4.61585">
        <ele>357.27</ele>
        <time>2014-11-09T15:15:37Z</time>
      </trkpt>
      <trkpt lat="47.22023" lon="4.61583">
        <ele>356.31</ele>
        <time>2014-11-09T15:15:49Z</time>
      </trkpt>
      <trkpt lat="47.22043" lon="4.61585">
        <ele>354.86</ele>
        <time>2014-11-09T15:16:06Z</time>
      </trkpt>
      <trkpt lat="47.22058" lon="4.61587">
        <ele>353.9</ele>
        <time>2014-11-09T15:16:22Z</time>
      </trkpt>
      <trkpt lat="47.22072" lon="4.61586">
        <ele>352.94</ele>
        <time>2014-11-09T15:16:38Z</time>
      </trkpt>
      <trkpt lat="47.22079" lon="4.61588">
        <ele>352.94</ele>
        <time>2014-11-09T15:16:52Z</time>
      </trkpt>
      <trkpt lat="47.2208" lon="4.61587">
        <ele>352.94</ele>
        <time>2014-11-09T15:17:03Z</time>
      </trkpt>
      <trkpt lat="47.22089" lon="4.61594">
        <ele>352.94</ele>
        <time>2014-11-09T15:17:12Z</time>
      </trkpt>
      <trkpt lat="47.22092" lon="4.61594">
        <ele>353.42</ele>
        <time>2014-11-09T15:17:15Z</time>
      </trkpt>
      <trkpt lat="47.22099" lon="4.61598">
        <ele>353.42</ele>
        <time>2014-11-09T15:17:22Z</time>
      </trkpt>
      <trkpt lat="47.22105" lon="4.61603">
        <ele>353.9</ele>
        <time>2014-11-09T15:17:29Z</time>
      </trkpt>
      <trkpt lat="47.22118" lon="4.61607">
        <ele>353.9</ele>
        <time>2014-11-09T15:17:44Z</time>
      </trkpt>
      <trkpt lat="47.22122" lon="4.61608">
        <ele>353.9</ele>
        <time>2014-11-09T15:18:08Z</time>
      </trkpt>
      <trkpt lat="47.22131" lon="4.61608">
        <ele>354.38</ele>
        <time>2014-11-09T15:18:24Z</time>
      </trkpt>
      <trkpt lat="47.22131" lon="4.6161">
        <ele>354.38</ele>
        <time>2014-11-09T15:18:46Z</time>
      </trkpt>
    </trkseg>
  </trk>
</gpx>